Time,TemperatureF,DewpointF,PressureIn,WindDirection,WindDirectionDegrees,WindSpeedMPH,WindSpeedGustMPH,Humidity,HourlyPrecipIn,Conditions,Clouds,dailyrainin,SolarRadiationWatts/m^2,SoftwareType,DateUTC
2012-12-03 00:00:00,63.2,61.2,30.22,ENE,59,0.0,3.0,93,0.00,,---,0.00,0.00,VWS V14.01,2012-12-03 05:00:00,
2012-12-03 00:01:00,63.1,61.0,30.22,ENE,64,2.0,3.0,93,0.00,,---,0.00,0.00,VWS V14.01,2012-12-03 05:01:00,
2012-12-03 00:02:00,63.2,61.5,30.22,ENE,69,1.0,3.0,94,0.00,,---,0.00,0.00,VWS V14.01,2012-12-03 05:02:00,
2012-12-03 00:03:00,63.2,61.5,30.22,East,81,2.0,4.0,94,0.00,,---,0.00,0.00,VWS V14.01,2012-12-03 05:03:00,
2012-12-03 00:04:00,63.2,61.2,30.22,East,97,3.0,4.0,93,0.00,,---,0.00,0.00,VWS V14.01,2012-12-03 05:04:00,
2012-12-03 00:05:00,63.2,61.2,30.22,ENE,66,1.0,6.0,93,0.00,,---,0.00,0.00,VWS V14.01,2012-12-03 05:05:00,
2012-12-03 00:06:00,63.2,61.5,30.22,ENE,57,1.0,6.0,94,0.00,,---,0.00,0.00,VWS V14.01,2012-12-03 05:06:00,
2012-12-03 00:07:00,63.2,61.5,30.22,NNE,27,1.0,6.0,94,0.00,,---,0.00,0.00,VWS V14.01,2012-12-03 05:07:00,
2012-12-03 00:08:00,63.2,61.5,30.22,ESE,117,0.0,6.0,94,0.00,,---,0.00,0.00,VWS V14.01,2012-12-03 05:08:00,
2012-12-03 00:09:00,63.2,61.5,30.22,NE,56,3.0,6.0,94,0.00,,---,0.00,0.00,VWS V14.01,2012-12-03 05:09:00,
2012-12-03 00:10:00,63.2,61.5,30.22,NE,50,2.0,6.0,94,0.00,,---,0.00,0.00,VWS V14.01,2012-12-03 05:10:00,
2012-12-03 00:11:00,63.2,61.5,30.22,East,93,2.0,6.0,94,0.00,,---,0.00,0.00,VWS V14.01,2012-12-03 05:11:00,
2012-12-03 00:12:00,63.2,61.5,30.22,ENE,64,1.0,6.0,94,0.00,,---,0.00,0.00,VWS V14.01,2012-12-03 05:12:00,
2012-12-03 00:13:00,63.2,61.2,30.22,ENE,76,4.0,6.0,93,0.00,,---,0.00,0.00,VWS V14.01,2012-12-03 05:13:00,
2012-12-03 00:14:00,63.1,61.3,30.22,NE,46,1.0,6.0,94,0.00,,---,0.00,0.00,VWS V14.01,2012-12-03 05:14:00,
2012-12-03 00:15:00,63.1,61.3,30.22,ENE,68,1.0,6.0,94,0.00,,---,0.00,0.00,VWS V14.01,2012-12-03 05:15:00,
2012-12-03 00:16:00,63.1,61.3,30.22,ENE,62,1.0,6.0,94,0.00,,---,0.00,0.00,VWS V14.01,2012-12-03 05:16:00,
2012-12-03 00:17:00,63.1,61.3,30.22,NE,45,1.0,6.0,94,0.00,,---,0.00,0.00,VWS V14.01,2012-12-03 05:17:00,
2012-12-03 00:18:00,63.1,61.3,30.22,NE,49,1.0,6.0,94,0.00,,---,0.00,0.00,VWS V14.01,2012-12-03 05:18:00,
2012-12-03 00:19:00,63.1,61.3,30.22,NE,35,0.0,6.0,94,0.00,,---,0.00,0.00,VWS V14.01,2012-12-03 05:19:00,
2012-12-03 00:20:00,63.1,61.3,30.22,ENE,66,2.0,6.0,94,0.00,,---,0.00,0.00,VWS V14.01,2012-12-03 05:20:00,
2012-12-03 00:21:00,63.1,61.3,30.22,ENE,61,3.0,6.0,94,0.00,,---,0.00,0.00,VWS V14.01,2012-12-03 05:21:00,
2012-12-03 00:22:00,63.1,61.3,30.22,ENE,61,0.0,6.0,94,0.00,,---,0.00,0.00,VWS V14.01,2012-12-03 05:22:00,
2012-12-03 00:23:00,63.1,61.3,30.22,NNE,13,2.0,6.0,94,0.00,,---,0.00,0.00,VWS V14.01,2012-12-03 05:23:00,
2012-12-03 00:24:00,63.1,61.3,30.22,NE,44,2.0,6.0,94,0.00,,---,0.00,0.00,VWS V14.01,2012-12-03 05:24:00,
2012-12-03 00:25:00,63.0,61.2,30.22,NE,42,2.0,6.0,94,0.00,,---,0.00,0.00,VWS V14.01,2012-12-03 05:25:00,
2012-12-03 00:26:00,63.1,61.3,30.22,NE,49,1.0,6.0,94,0.00,,---,0.00,0.00,VWS V14.01,2012-12-03 05:26:00,
2012-12-03 00:27:00,63.0,61.2,30.22,ENE,72,2.0,6.0,94,0.00,,---,0.00,0.00,VWS V14.01,2012-12-03 05:27:00,
2012-12-03 00:28:00,63.1,61.3,30.22,ENE,68,1.0,6.0,94,0.00,,---,0.00,0.00,VWS V14.01,2012-12-03 05:28:00,
2012-12-03 00:29:00,63.1,61.3,30.22,ENE,63,2.0,6.0,94,0.00,,---,0.00,0.00,VWS V14.01,2012-12-03 05:29:00,
2012-12-03 00:30:00,63.0,61.2,30.22,ENE,63,2.0,6.0,94,0.00,,---,0.00,0.00,VWS V14.01,2012-12-03 05:30:00,
2012-12-03 00:31:00,63.1,61.3,30.22,NE,49,3.0,6.0,94,0.00,,---,0.00,0.00,VWS V14.01,2012-12-03 05:31:00,
2012-12-03 00:32:00,63.0,61.2,30.22,NE,56,2.0,6.0,94,0.00,,---,0.00,0.00,VWS V14.01,2012-12-03 05:32:00,
2012-12-03 00:33:00,63.0,61.2,30.22,NE,38,0.0,6.0,94,0.00,,---,0.00,0.00,VWS V14.01,2012-12-03 05:33:00,
2012-12-03 00:34:00,63.0,61.2,30.22,ENE,68,2.0,6.0,94,0.00,,---,0.00,0.00,VWS V14.01,2012-12-03 05:34:00,
2012-12-03 00:35:00,63.0,61.2,30.22,NE,52,5.0,6.0,94,0.00,,---,0.00,0.00,VWS V14.01,2012-12-03 05:35:00,
2012-12-03 00:36:00,63.0,61.2,30.22,ENE,76,0.0,6.0,94,0.00,,---,0.00,0.00,VWS V14.01,2012-12-03 05:36:00,
2012-12-03 00:37:00,63.0,61.2,30.22,NE,50,2.0,6.0,94,0.00,,---,0.00,0.00,VWS V14.01,2012-12-03 05:37:00,
2012-12-03 00:38:00,63.0,61.2,30.22,ENE,66,1.0,6.0,94,0.00,,---,0.00,0.00,VWS V14.01,2012-12-03 05:38:00,
2012-12-03 00:39:00,63.0,61.2,30.22,East,88,3.0,6.0,94,0.00,,---,0.00,0.00,VWS V14.01,2012-12-03 05:39:00,
2012-12-03 00:40:00,63.1,61.3,30.22,ENE,66,2.0,6.0,94,0.00,,---,0.00,0.00,VWS V14.01,2012-12-03 05:40:00,
2012-12-03 00:41:00,63.0,61.2,30.22,East,82,1.0,6.0,94,0.00,,---,0.00,0.00,VWS V14.01,2012-12-03 05:41:00,
2012-12-03 00:42:00,63.0,61.2,30.22,East,82,1.0,6.0,94,0.00,,---,0.00,0.00,VWS V14.01,2012-12-03 05:42:00,
2012-12-03 00:43:00,63.0,61.2,30.22,ENE,78,2.0,6.0,94,0.00,,---,0.00,0.00,VWS V14.01,2012-12-03 05:43:00,
2012-12-03 00:44:00,62.9,61.2,30.22,ENE,78,1.0,6.0,94,0.00,,---,0.00,0.00,VWS V14.01,2012-12-03 05:44:00,
2012-12-03 00:45:00,62.9,61.2,30.22,NE,41,2.0,6.0,94,0.00,,---,0.00,0.00,VWS V14.01,2012-12-03 05:45:00,
2012-12-03 00:46:00,62.9,61.2,30.22,ENE,72,2.0,6.0,94,0.00,,---,0.00,0.00,VWS V14.01,2012-12-03 05:46:00,
2012-12-03 00:47:00,62.9,61.2,30.22,ENE,72,3.0,6.0,94,0.00,,---,0.00,0.00,VWS V14.01,2012-12-03 05:47:00,
2012-12-03 00:48:00,62.9,61.2,30.22,East,83,0.0,6.0,94,0.00,,---,0.00,0.00,VWS V14.01,2012-12-03 05:48:00,
2012-12-03 00:49:00,62.9,61.2,30.22,East,83,0.0,6.0,94,0.00,,---,0.00,0.00,VWS V14.01,2012-12-03 05:49:00,
2012-12-03 00:50:00,62.9,61.2,30.22,NE,45,1.0,6.0,94,0.00,,---,0.00,0.00,VWS V14.01,2012-12-03 05:50:00,
2012-12-03 00:51:00,62.9,61.5,30.23,NE,35,1.0,6.0,95,0.00,,---,0.00,0.00,VWS V14.01,2012-12-03 05:51:00,
2012-12-03 00:52:00,62.9,61.5,30.23,NE,48,2.0,6.0,95,0.00,,---,0.00,0.00,VWS V14.01,2012-12-03 05:52:00,
2012-12-03 00:53:00,62.9,61.5,30.23,NE,54,4.0,6.0,95,0.00,,---,0.00,0.00,VWS V14.01,2012-12-03 05:53:00,
2012-12-03 00:54:00,62.9,61.5,30.23,NE,53,1.0,6.0,95,0.00,,---,0.00,0.00,VWS V14.01,2012-12-03 05:54:00,
2012-12-03 00:55:00,62.8,61.3,30.23,ENE,62,1.0,6.0,95,0.00,,---,0.00,0.00,VWS V14.01,2012-12-03 05:55:00,
2012-12-03 00:56:00,62.9,61.5,30.23,ENE,60,0.0,6.0,95,0.00,,---,0.00,0.00,VWS V14.01,2012-12-03 05:56:00,
2012-12-03 00:57:00,62.9,61.5,30.23,East,92,1.0,6.0,95,0.00,,---,0.00,0.00,VWS V14.01,2012-12-03 05:57:00,
2012-12-03 00:58:00,62.9,61.5,30.23,ENE,61,2.0,6.0,95,0.00,,---,0.00,0.00,VWS V14.01,2012-12-03 05:58:00,
2012-12-03 00:59:00,62.9,61.5,30.23,ENE,61,0.0,6.0,95,0.00,,---,0.00,0.00,VWS V14.01,2012-12-03 05:59:00,
2012-12-03 01:00:00,62.9,61.5,30.23,ENE,61,0.0,6.0,95,0.00,,---,0.00,0.00,VWS V14.01,2012-12-03 06:00:00,
2012-12-03 01:01:00,62.9,61.5,30.23,ENE,59,1.0,2.0,95,0.00,,---,0.00,0.00,VWS V14.01,2012-12-03 06:01:00,
2012-12-03 01:02:00,63.0,61.5,30.23,ENE,58,0.0,2.0,95,0.00,,---,0.00,0.00,VWS V14.01,2012-12-03 06:02:00,
2012-12-03 01:03:00,63.0,61.5,30.23,ENE,59,0.0,2.0,95,0.00,,---,0.00,0.00,VWS V14.01,2012-12-03 06:03:00,
2012-12-03 01:04:00,63.1,61.7,30.23,NE,56,1.0,2.0,95,0.00,,---,0.00,0.00,VWS V14.01,2012-12-03 06:04:00,
2012-12-03 01:05:00,63.1,61.7,30.23,ESE,102,1.0,2.0,95,0.00,,---,0.00,0.00,VWS V14.01,2012-12-03 06:05:00,
2012-12-03 01:06:00,63.1,61.7,30.23,NNE,33,0.0,3.0,95,0.00,,---,0.00,0.00,VWS V14.01,2012-12-03 06:06:00,
2012-12-03 01:07:00,63.1,61.7,30.23,NNE,33,0.0,3.0,95,0.00,,---,0.00,0.00,VWS V14.01,2012-12-03 06:07:00,
2012-12-03 01:08:00,63.1,61.7,30.23,NE,35,0.0,3.0,95,0.00,,---,0.00,0.00,VWS V14.01,2012-12-03 06:08:00,
2012-12-03 01:09:00,63.2,61.8,30.23,NE,35,0.0,3.0,95,0.00,,---,0.00,0.00,VWS V14.01,2012-12-03 06:09:00,
2012-12-03 01:10:00,63.2,61.8,30.23,ENE,64,2.0,3.0,95,0.00,,---,0.00,0.00,VWS V14.01,2012-12-03 06:10:00,
2012-12-03 01:11:00,63.2,61.8,30.23,ENE,59,0.0,3.0,95,0.00,,---,0.00,0.00,VWS V14.01,2012-12-03 06:11:00,
2012-12-03 01:12:00,63.2,61.8,30.23,NE,53,0.0,3.0,95,0.00,,---,0.00,0.00,VWS V14.01,2012-12-03 06:12:00,
2012-12-03 01:13:00,63.3,61.8,30.23,NE,53,0.0,3.0,95,0.00,,---,0.00,0.00,VWS V14.01,2012-12-03 06:13:00,
2012-12-03 01:14:00,63.3,61.8,30.23,NE,53,0.0,3.0,95,0.00,,---,0.00,0.00,VWS V14.01,2012-12-03 06:14:00,
2012-12-03 01:15:00,63.4,62.0,30.23,NE,38,0.0,3.0,95,0.00,,---,0.00,0.00,VWS V14.01,2012-12-03 06:15:00,
2012-12-03 01:16:00,63.4,62.0,30.23,NE,42,3.0,3.0,95,0.00,,---,0.00,0.00,VWS V14.01,2012-12-03 06:16:00,
2012-12-03 01:17:00,63.4,62.0,30.23,NE,42,1.0,3.0,95,0.00,,---,0.00,0.00,VWS V14.01,2012-12-03 06:17:00,
2012-12-03 01:18:00,63.4,62.0,30.23,ENE,68,1.0,3.0,95,0.00,,---,0.00,0.00,VWS V14.01,2012-12-03 06:18:00,
2012-12-03 01:19:00,63.4,62.0,30.23,NE,54,1.0,3.0,95,0.00,,---,0.00,0.00,VWS V14.01,2012-12-03 06:19:00,
2012-12-03 01:20:00,63.4,62.0,30.23,NE,48,0.0,3.0,95,0.00,,---,0.00,0.00,VWS V14.01,2012-12-03 06:20:00,
2012-12-03 01:21:00,63.4,62.0,30.23,NE,48,1.0,3.0,95,0.00,,---,0.00,0.00,VWS V14.01,2012-12-03 06:21:00,
2012-12-03 01:22:00,63.4,62.0,30.23,NE,48,1.0,3.0,95,0.00,,---,0.00,0.00,VWS V14.01,2012-12-03 06:22:00,
2012-12-03 01:23:00,63.4,62.0,30.23,NE,48,0.0,3.0,95,0.00,,---,0.00,0.00,VWS V14.01,2012-12-03 06:23:00,
2012-12-03 01:24:00,63.5,62.0,30.23,NE,56,4.0,4.0,95,0.00,,---,0.00,0.00,VWS V14.01,2012-12-03 06:24:00,
2012-12-03 01:25:00,63.4,62.0,30.23,ENE,68,4.0,5.0,95,0.00,,---,0.00,0.00,VWS V14.01,2012-12-03 06:25:00,
2012-12-03 01:26:00,63.5,62.0,30.23,NNW,342,2.0,5.0,95,0.00,,---,0.00,0.00,VWS V14.01,2012-12-03 06:26:00,
2012-12-03 01:27:00,63.5,62.0,30.23,NNW,342,0.0,5.0,95,0.00,,---,0.00,0.00,VWS V14.01,2012-12-03 06:27:00,
2012-12-03 01:28:00,63.5,62.0,30.23,NNW,342,0.0,5.0,95,0.00,,---,0.00,0.00,VWS V14.01,2012-12-03 06:28:00,
2012-12-03 01:29:00,63.5,62.0,30.23,NNW,342,0.0,5.0,95,0.00,,---,0.00,0.00,VWS V14.01,2012-12-03 06:29:00,
2012-12-03 01:30:00,63.6,62.2,30.23,NNW,342,0.0,5.0,95,0.00,,---,0.00,0.00,VWS V14.01,2012-12-03 06:30:00,
2012-12-03 01:31:00,63.6,62.2,30.23,NNW,342,0.0,5.0,95,0.00,,---,0.00,0.00,VWS V14.01,2012-12-03 06:31:00,
2012-12-03 01:32:00,63.6,62.2,30.23,NNW,342,0.0,5.0,95,0.00,,---,0.00,0.00,VWS V14.01,2012-12-03 06:32:00,
2012-12-03 01:33:00,63.6,62.2,30.23,NNW,342,0.0,5.0,95,0.00,,---,0.00,0.00,VWS V14.01,2012-12-03 06:33:00,
2012-12-03 01:34:00,63.6,62.2,30.23,North,359,1.0,5.0,95,0.00,,---,0.00,0.00,VWS V14.01,2012-12-03 06:34:00,
2012-12-03 01:35:00,63.6,62.2,30.23,ENE,74,1.0,5.0,95,0.00,,---,0.00,0.00,VWS V14.01,2012-12-03 06:35:00,
2012-12-03 01:36:00,63.6,62.2,30.23,ENE,74,0.0,5.0,95,0.00,,---,0.00,0.00,VWS V14.01,2012-12-03 06:36:00,
2012-12-03 01:37:00,63.6,62.2,30.23,ENE,74,0.0,5.0,95,0.00,,---,0.00,0.00,VWS V14.01,2012-12-03 06:37:00,
2012-12-03 01:38:00,63.6,62.2,30.23,ENE,74,0.0,5.0,95,0.00,,---,0.00,0.00,VWS V14.01,2012-12-03 06:38:00,
2012-12-03 01:39:00,63.6,62.2,30.23,ENE,74,1.0,5.0,95,0.00,,---,0.00,0.00,VWS V14.01,2012-12-03 06:39:00,
2012-12-03 01:40:00,63.6,62.2,30.23,ENE,72,2.0,5.0,95,0.00,,---,0.00,0.00,VWS V14.01,2012-12-03 06:40:00,
2012-12-03 01:41:00,63.6,62.2,30.23,ENE,60,0.0,5.0,95,0.00,,---,0.00,0.00,VWS V14.01,2012-12-03 06:41:00,
2012-12-03 01:42:00,63.6,62.2,30.23,ENE,60,1.0,5.0,95,0.00,,---,0.00,0.00,VWS V14.01,2012-12-03 06:42:00,
2012-12-03 01:43:00,63.6,62.2,30.23,ENE,60,0.0,5.0,95,0.00,,---,0.00,0.00,VWS V14.01,2012-12-03 06:43:00,
2012-12-03 01:44:00,63.6,62.2,30.23,East,81,1.0,5.0,95,0.00,,---,0.00,0.00,VWS V14.01,2012-12-03 06:44:00,
2012-12-03 01:45:00,63.7,62.2,30.23,NE,52,2.0,5.0,95,0.00,,---,0.00,0.00,VWS V14.01,2012-12-03 06:45:00,
2012-12-03 01:46:00,63.7,62.2,30.23,ENE,75,1.0,5.0,95,0.00,,---,0.00,0.00,VWS V14.01,2012-12-03 06:46:00,
2012-12-03 01:47:00,63.7,62.2,30.23,NE,45,1.0,5.0,95,0.00,,---,0.00,0.00,VWS V14.01,2012-12-03 06:47:00,
2012-12-03 01:48:00,63.7,62.2,30.23,NE,53,2.0,5.0,95,0.00,,---,0.00,0.00,VWS V14.01,2012-12-03 06:48:00,
2012-12-03 01:49:00,63.7,62.2,30.23,NE,43,3.0,5.0,95,0.00,,---,0.00,0.00,VWS V14.01,2012-12-03 06:49:00,
2012-12-03 01:50:00,63.7,62.2,30.23,NE,47,1.0,5.0,95,0.00,,---,0.00,0.00,VWS V14.01,2012-12-03 06:50:00,
2012-12-03 01:51:00,63.6,62.2,30.23,ENE,69,2.0,5.0,95,0.00,,---,0.00,0.00,VWS V14.01,2012-12-03 06:51:00,
2012-12-03 01:52:00,63.7,62.2,30.23,ENE,69,0.0,5.0,95,0.00,,---,0.00,0.00,VWS V14.01,2012-12-03 06:52:00,
2012-12-03 01:53:00,63.7,62.2,30.23,NE,45,0.0,5.0,95,0.00,,---,0.00,0.00,VWS V14.01,2012-12-03 06:53:00,
2012-12-03 01:54:00,63.7,62.2,30.23,NE,45,0.0,5.0,95,0.00,,---,0.00,0.00,VWS V14.01,2012-12-03 06:54:00,
2012-12-03 01:55:00,63.7,62.2,30.23,NE,37,1.0,5.0,95,0.00,,---,0.00,0.00,VWS V14.01,2012-12-03 06:55:00,
2012-12-03 01:56:00,63.7,62.2,30.23,NNE,28,2.0,5.0,95,0.00,,---,0.00,0.00,VWS V14.01,2012-12-03 06:56:00,
2012-12-03 01:57:00,63.7,62.2,30.23,ENE,60,0.0,5.0,95,0.00,,---,0.00,0.00,VWS V14.01,2012-12-03 06:57:00,
2012-12-03 01:58:00,63.7,62.2,30.23,ENE,58,0.0,5.0,95,0.00,,---,0.00,0.00,VWS V14.01,2012-12-03 06:58:00,
2012-12-03 01:59:00,63.7,62.2,30.23,NE,55,0.0,5.0,95,0.00,,---,0.00,0.00,VWS V14.01,2012-12-03 06:59:00,
2012-12-03 02:00:00,63.7,62.2,30.23,NE,52,1.0,5.0,95,0.00,,---,0.00,0.00,VWS V14.01,2012-12-03 07:00:00,
2012-12-03 02:01:00,63.7,62.2,30.23,NNE,25,2.0,4.0,95,0.00,,---,0.00,0.00,VWS V14.01,2012-12-03 07:01:00,
2012-12-03 02:02:00,63.7,62.2,30.23,NNE,25,0.0,4.0,95,0.00,,---,0.00,0.00,VWS V14.01,2012-12-03 07:02:00,
2012-12-03 02:03:00,63.7,62.2,30.23,ENE,75,1.0,4.0,95,0.00,,---,0.00,0.00,VWS V14.01,2012-12-03 07:03:00,
2012-12-03 02:04:00,63.7,62.0,30.23,ENE,70,2.0,4.0,94,0.00,,---,0.00,0.00,VWS V14.01,2012-12-03 07:04:00,
2012-12-03 02:05:00,63.7,62.0,30.23,ENE,70,0.0,4.0,94,0.00,,---,0.00,0.00,VWS V14.01,2012-12-03 07:05:00,
2012-12-03 02:06:00,63.7,62.0,30.23,ENE,70,0.0,4.0,94,0.00,,---,0.00,0.00,VWS V14.01,2012-12-03 07:06:00,
2012-12-03 02:07:00,63.7,62.0,30.23,NE,34,0.0,4.0,94,0.00,,---,0.00,0.00,VWS V14.01,2012-12-03 07:07:00,
2012-12-03 02:08:00,63.7,62.0,30.23,ENE,68,3.0,4.0,94,0.00,,---,0.00,0.00,VWS V14.01,2012-12-03 07:08:00,
2012-12-03 02:09:00,63.7,62.0,30.23,East,87,2.0,5.0,94,0.00,,---,0.00,0.00,VWS V14.01,2012-12-03 07:09:00,
2012-12-03 02:10:00,63.7,62.0,30.23,NNE,29,0.0,5.0,94,0.00,,---,0.00,0.00,VWS V14.01,2012-12-03 07:10:00,
2012-12-03 02:11:00,63.7,62.0,30.23,ENE,58,2.0,5.0,94,0.00,,---,0.00,0.00,VWS V14.01,2012-12-03 07:11:00,
2012-12-03 02:12:00,63.7,62.0,30.23,NNE,24,1.0,5.0,94,0.00,,---,0.00,0.00,VWS V14.01,2012-12-03 07:12:00,
2012-12-03 02:13:00,63.7,62.0,30.23,East,97,2.0,5.0,94,0.00,,---,0.00,0.00,VWS V14.01,2012-12-03 07:13:00,
2012-12-03 02:14:00,63.7,62.0,30.23,NE,56,0.0,5.0,94,0.00,,---,0.00,0.00,VWS V14.01,2012-12-03 07:14:00,
2012-12-03 02:15:00,63.7,62.0,30.23,NE,56,0.0,5.0,94,0.00,,---,0.00,0.00,VWS V14.01,2012-12-03 07:15:00,
2012-12-03 02:16:00,63.7,62.0,30.23,NNE,22,1.0,5.0,94,0.00,,---,0.00,0.00,VWS V14.01,2012-12-03 07:16:00,
2012-12-03 02:17:00,63.7,62.0,30.23,NE,35,1.0,5.0,94,0.00,,---,0.00,0.00,VWS V14.01,2012-12-03 07:17:00,
2012-12-03 02:18:00,63.7,62.0,30.23,NNE,12,1.0,5.0,94,0.00,,---,0.00,0.00,VWS V14.01,2012-12-03 07:18:00,
2012-12-03 02:19:00,63.7,62.0,30.23,East,87,1.0,5.0,94,0.00,,---,0.00,0.00,VWS V14.01,2012-12-03 07:19:00,
2012-12-03 02:20:00,63.7,62.0,30.23,East,85,1.0,5.0,94,0.00,,---,0.00,0.00,VWS V14.01,2012-12-03 07:20:00,
2012-12-03 02:21:00,63.7,62.0,30.23,ENE,75,2.0,5.0,94,0.00,,---,0.00,0.00,VWS V14.01,2012-12-03 07:21:00,
2012-12-03 02:22:00,63.7,62.0,30.23,East,89,3.0,5.0,94,0.00,,---,0.00,0.00,VWS V14.01,2012-12-03 07:22:00,
2012-12-03 02:23:00,63.7,62.0,30.23,ENE,67,0.0,5.0,94,0.00,,---,0.00,0.00,VWS V14.01,2012-12-03 07:23:00,
2012-12-03 02:24:00,63.6,61.8,30.22,East,100,2.0,5.0,94,0.00,,---,0.00,0.00,VWS V14.01,2012-12-03 07:24:00,
2012-12-03 02:25:00,63.6,61.8,30.22,ESE,108,0.0,5.0,94,0.00,,---,0.00,0.00,VWS V14.01,2012-12-03 07:25:00,
2012-12-03 02:26:00,63.6,61.8,30.22,East,82,1.0,5.0,94,0.00,,---,0.00,0.00,VWS V14.01,2012-12-03 07:26:00,
2012-12-03 02:27:00,63.7,62.0,30.23,East,82,0.0,5.0,94,0.00,,---,0.00,0.00,VWS V14.01,2012-12-03 07:27:00,
2012-12-03 02:28:00,63.6,61.8,30.22,East,100,2.0,5.0,94,0.00,,---,0.00,0.00,VWS V14.01,2012-12-03 07:28:00,
2012-12-03 02:29:00,63.6,61.8,30.23,East,91,0.0,5.0,94,0.00,,---,0.00,0.00,VWS V14.01,2012-12-03 07:29:00,
2012-12-03 02:30:00,63.6,61.8,30.22,ENE,73,3.0,5.0,94,0.00,,---,0.00,0.00,VWS V14.01,2012-12-03 07:30:00,
2012-12-03 02:31:00,63.6,61.8,30.22,ESE,109,3.0,5.0,94,0.00,,---,0.00,0.00,VWS V14.01,2012-12-03 07:31:00,
2012-12-03 02:32:00,63.6,61.8,30.22,NE,41,0.0,5.0,94,0.00,,---,0.00,0.00,VWS V14.01,2012-12-03 07:32:00,
2012-12-03 02:33:00,63.6,61.8,30.22,NE,54,1.0,5.0,94,0.00,,---,0.00,0.00,VWS V14.01,2012-12-03 07:33:00,
2012-12-03 02:34:00,63.6,61.8,30.22,ENE,72,1.0,5.0,94,0.00,,---,0.00,0.00,VWS V14.01,2012-12-03 07:34:00,
2012-12-03 02:35:00,63.6,61.8,30.22,NE,53,0.0,5.0,94,0.00,,---,0.00,0.00,VWS V14.01,2012-12-03 07:35:00,
2012-12-03 02:36:00,63.6,61.8,30.22,ENE,66,0.0,5.0,94,0.00,,---,0.00,0.00,VWS V14.01,2012-12-03 07:36:00,
2012-12-03 02:37:00,63.7,62.0,30.22,ENE,66,0.0,5.0,94,0.00,,---,0.00,0.00,VWS V14.01,2012-12-03 07:37:00,
2012-12-03 02:38:00,63.6,61.8,30.22,ENE,66,0.0,5.0,94,0.00,,---,0.00,0.00,VWS V14.01,2012-12-03 07:38:00,
2012-12-03 02:39:00,63.6,61.8,30.22,ENE,66,0.0,5.0,94,0.00,,---,0.00,0.00,VWS V14.01,2012-12-03 07:39:00,
2012-12-03 02:40:00,63.6,61.8,30.22,ENE,66,0.0,5.0,94,0.00,,---,0.00,0.00,VWS V14.01,2012-12-03 07:40:00,
2012-12-03 02:41:00,63.6,61.8,30.22,ENE,66,0.0,5.0,94,0.00,,---,0.00,0.00,VWS V14.01,2012-12-03 07:41:00,
2012-12-03 02:42:00,63.6,61.8,30.22,ENE,66,0.0,5.0,94,0.00,,---,0.00,0.00,VWS V14.01,2012-12-03 07:42:00,
2012-12-03 02:43:00,63.7,62.0,30.22,ENE,66,0.0,5.0,94,0.00,,---,0.00,0.00,VWS V14.01,2012-12-03 07:43:00,
2012-12-03 02:44:00,63.6,61.8,30.22,ENE,66,0.0,5.0,94,0.00,,---,0.00,0.00,VWS V14.01,2012-12-03 07:44:00,
2012-12-03 02:45:00,63.6,61.8,30.22,ENE,66,0.0,5.0,94,0.00,,---,0.00,0.00,VWS V14.01,2012-12-03 07:45:00,
2012-12-03 02:46:00,63.6,61.8,30.22,ENE,66,0.0,5.0,94,0.00,,---,0.00,0.00,VWS V14.01,2012-12-03 07:46:00,
2012-12-03 02:47:00,63.6,61.8,30.22,ENE,66,0.0,5.0,94,0.00,,---,0.00,0.00,VWS V14.01,2012-12-03 07:47:00,
2012-12-03 02:48:00,63.6,61.8,30.22,ENE,66,1.0,5.0,94,0.00,,---,0.00,0.00,VWS V14.01,2012-12-03 07:48:00,
2012-12-03 02:49:00,63.6,61.8,30.22,NE,48,0.0,5.0,94,0.00,,---,0.00,0.00,VWS V14.01,2012-12-03 07:49:00,
2012-12-03 02:50:00,63.6,61.8,30.22,NE,48,0.0,5.0,94,0.00,,---,0.00,0.00,VWS V14.01,2012-12-03 07:50:00,
2012-12-03 02:51:00,63.6,61.8,30.22,NE,48,0.0,5.0,94,0.00,,---,0.00,0.00,VWS V14.01,2012-12-03 07:51:00,
2012-12-03 02:52:00,63.6,61.8,30.22,NE,48,0.0,5.0,94,0.00,,---,0.00,0.00,VWS V14.01,2012-12-03 07:52:00,
2012-12-03 02:53:00,63.7,62.0,30.22,NE,48,0.0,5.0,94,0.00,,---,0.00,0.00,VWS V14.01,2012-12-03 07:53:00,
2012-12-03 02:54:00,63.6,61.8,30.22,NE,48,0.0,5.0,94,0.00,,---,0.00,0.00,VWS V14.01,2012-12-03 07:54:00,
2012-12-03 02:55:00,63.7,62.0,30.22,NE,48,0.0,5.0,94,0.00,,---,0.00,0.00,VWS V14.01,2012-12-03 07:55:00,
2012-12-03 02:56:00,63.7,62.0,30.22,NE,48,0.0,5.0,94,0.00,,---,0.00,0.00,VWS V14.01,2012-12-03 07:56:00,
2012-12-03 02:57:00,63.7,62.0,30.22,NE,48,2.0,5.0,94,0.00,,---,0.00,0.00,VWS V14.01,2012-12-03 07:57:00,
2012-12-03 02:58:00,63.7,62.0,30.22,NE,48,0.0,5.0,94,0.00,,---,0.00,0.00,VWS V14.01,2012-12-03 07:58:00,
2012-12-03 02:59:00,63.7,62.0,30.22,NE,48,0.0,5.0,94,0.00,,---,0.00,0.00,VWS V14.01,2012-12-03 07:59:00,
2012-12-03 03:00:00,63.7,62.0,30.22,NE,48,1.0,5.0,94,0.00,,---,0.00,0.00,VWS V14.01,2012-12-03 08:00:00,
2012-12-03 03:01:00,63.8,62.0,30.22,NE,48,0.0,1.0,94,0.00,,---,0.00,0.00,VWS V14.01,2012-12-03 08:01:00,
2012-12-03 03:02:00,63.8,62.0,30.22,NE,48,1.0,1.0,94,0.00,,---,0.00,0.00,VWS V14.01,2012-12-03 08:02:00,
2012-12-03 03:03:00,63.8,62.0,30.22,ESE,104,0.0,2.0,94,0.00,,---,0.00,0.00,VWS V14.01,2012-12-03 08:03:00,
2012-12-03 03:04:00,63.8,62.0,30.22,East,85,2.0,3.0,94,0.00,,---,0.00,0.00,VWS V14.01,2012-12-03 08:04:00,
2012-12-03 03:05:00,63.8,62.0,30.22,East,85,0.0,3.0,94,0.00,,---,0.00,0.00,VWS V14.01,2012-12-03 08:05:00,
2012-12-03 03:06:00,63.8,62.0,30.22,East,85,0.0,3.0,94,0.00,,---,0.00,0.00,VWS V14.01,2012-12-03 08:06:00,
2012-12-03 03:07:00,63.9,62.1,30.22,East,85,0.0,3.0,94,0.00,,---,0.00,0.00,VWS V14.01,2012-12-03 08:07:00,
2012-12-03 03:08:00,63.9,62.1,30.22,East,85,0.0,3.0,94,0.00,,---,0.00,0.00,VWS V14.01,2012-12-03 08:08:00,
2012-12-03 03:09:00,63.9,62.1,30.22,East,85,0.0,3.0,94,0.00,,---,0.00,0.00,VWS V14.01,2012-12-03 08:09:00,
2012-12-03 03:10:00,63.9,62.1,30.22,East,85,0.0,3.0,94,0.00,,---,0.00,0.00,VWS V14.01,2012-12-03 08:10:00,
2012-12-03 03:11:00,64.0,62.2,30.22,East,85,0.0,3.0,94,0.00,,---,0.00,0.00,VWS V14.01,2012-12-03 08:11:00,
2012-12-03 03:12:00,64.0,62.2,30.22,East,85,0.0,3.0,94,0.00,,---,0.00,0.00,VWS V14.01,2012-12-03 08:12:00,
2012-12-03 03:13:00,64.0,62.2,30.22,ENE,69,1.0,3.0,94,0.00,,---,0.00,0.00,VWS V14.01,2012-12-03 08:13:00,
2012-12-03 03:14:00,64.0,62.2,30.22,NE,41,2.0,3.0,94,0.00,,---,0.00,0.00,VWS V14.01,2012-12-03 08:14:00,
2012-12-03 03:15:00,64.0,62.2,30.22,East,87,1.0,3.0,94,0.00,,---,0.00,0.00,VWS V14.01,2012-12-03 08:15:00,
2012-12-03 03:16:00,64.0,62.2,30.22,East,87,0.0,3.0,94,0.00,,---,0.00,0.00,VWS V14.01,2012-12-03 08:16:00,
2012-12-03 03:17:00,64.0,62.2,30.22,ENE,66,2.0,3.0,94,0.00,,---,0.00,0.00,VWS V14.01,2012-12-03 08:17:00,
2012-12-03 03:18:00,64.0,62.2,30.22,ENE,60,2.0,3.0,94,0.00,,---,0.00,0.00,VWS V14.01,2012-12-03 08:18:00,
2012-12-03 03:19:00,64.0,62.2,30.22,ENE,60,0.0,3.0,94,0.00,,---,0.00,0.00,VWS V14.01,2012-12-03 08:19:00,
2012-12-03 03:20:00,64.0,62.2,30.22,NE,50,1.0,3.0,94,0.00,,---,0.00,0.00,VWS V14.01,2012-12-03 08:20:00,
2012-12-03 03:21:00,64.0,62.2,30.22,East,80,2.0,3.0,94,0.00,,---,0.00,0.00,VWS V14.01,2012-12-03 08:21:00,
2012-12-03 03:22:00,64.0,62.2,30.22,NE,54,0.0,3.0,94,0.00,,---,0.00,0.00,VWS V14.01,2012-12-03 08:22:00,
2012-12-03 03:23:00,64.0,62.2,30.22,NE,54,0.0,3.0,94,0.00,,---,0.00,0.00,VWS V14.01,2012-12-03 08:23:00,
2012-12-03 03:24:00,64.0,62.2,30.22,NE,54,1.0,3.0,94,0.00,,---,0.00,0.00,VWS V14.01,2012-12-03 08:24:00,
2012-12-03 03:25:00,64.0,62.2,30.22,NE,54,0.0,3.0,94,0.00,,---,0.00,0.00,VWS V14.01,2012-12-03 08:25:00,
2012-12-03 03:26:00,64.0,62.2,30.22,East,87,1.0,3.0,94,0.00,,---,0.00,0.00,VWS V14.01,2012-12-03 08:26:00,
2012-12-03 03:27:00,64.0,62.2,30.22,East,87,3.0,3.0,94,0.00,,---,0.00,0.00,VWS V14.01,2012-12-03 08:27:00,
2012-12-03 03:28:00,64.0,62.2,30.22,NE,48,2.0,4.0,94,0.00,,---,0.00,0.00,VWS V14.01,2012-12-03 08:28:00,
2012-12-03 03:29:00,64.0,62.2,30.22,ENE,59,1.0,4.0,94,0.00,,---,0.00,0.00,VWS V14.01,2012-12-03 08:29:00,
2012-12-03 03:30:00,64.0,62.2,30.22,ENE,61,3.0,4.0,94,0.00,,---,0.00,0.00,VWS V14.01,2012-12-03 08:30:00,
2012-12-03 03:31:00,64.0,62.2,30.22,ENE,72,0.0,4.0,94,0.00,,---,0.00,0.00,VWS V14.01,2012-12-03 08:31:00,
2012-12-03 03:32:00,64.0,62.2,30.22,ENE,72,0.0,4.0,94,0.00,,---,0.00,0.00,VWS V14.01,2012-12-03 08:32:00,
2012-12-03 03:33:00,64.1,62.3,30.22,ENE,72,0.0,4.0,94,0.00,,---,0.00,0.00,VWS V14.01,2012-12-03 08:33:00,
2012-12-03 03:34:00,64.1,62.3,30.22,ENE,72,0.0,4.0,94,0.00,,---,0.00,0.00,VWS V14.01,2012-12-03 08:34:00,
2012-12-03 03:35:00,64.1,62.3,30.22,ENE,72,0.0,4.0,94,0.00,,---,0.00,0.00,VWS V14.01,2012-12-03 08:35:00,
2012-12-03 03:36:00,64.1,62.3,30.22,ENE,72,0.0,4.0,94,0.00,,---,0.00,0.00,VWS V14.01,2012-12-03 08:36:00,
2012-12-03 03:37:00,64.1,62.3,30.22,ENE,72,1.0,4.0,94,0.00,,---,0.00,0.00,VWS V14.01,2012-12-03 08:37:00,
2012-12-03 03:38:00,64.1,62.3,30.22,ENE,72,0.0,4.0,94,0.00,,---,0.00,0.00,VWS V14.01,2012-12-03 08:38:00,
2012-12-03 03:39:00,64.1,62.3,30.22,ENE,72,0.0,4.0,94,0.00,,---,0.00,0.00,VWS V14.01,2012-12-03 08:39:00,
2012-12-03 03:40:00,64.1,62.3,30.22,ENE,72,2.0,4.0,94,0.00,,---,0.00,0.00,VWS V14.01,2012-12-03 08:40:00,
2012-12-03 03:41:00,64.1,62.3,30.22,ENE,72,0.0,4.0,94,0.00,,---,0.00,0.00,VWS V14.01,2012-12-03 08:41:00,
2012-12-03 03:42:00,64.1,62.3,30.22,ENE,72,1.0,4.0,94,0.00,,---,0.00,0.00,VWS V14.01,2012-12-03 08:42:00,
2012-12-03 03:43:00,64.1,62.3,30.22,ENE,66,2.0,4.0,94,0.00,,---,0.00,0.00,VWS V14.01,2012-12-03 08:43:00,
2012-12-03 03:44:00,64.1,62.3,30.22,ENE,68,0.0,4.0,94,0.00,,---,0.00,0.00,VWS V14.01,2012-12-03 08:44:00,
2012-12-03 03:45:00,64.1,62.3,30.22,ENE,68,0.0,4.0,94,0.00,,---,0.00,0.00,VWS V14.01,2012-12-03 08:45:00,
2012-12-03 03:46:00,64.1,62.3,30.22,NE,56,1.0,4.0,94,0.00,,---,0.00,0.00,VWS V14.01,2012-12-03 08:46:00,
2012-12-03 03:47:00,64.1,62.3,30.22,NE,56,0.0,4.0,94,0.00,,---,0.00,0.00,VWS V14.01,2012-12-03 08:47:00,
2012-12-03 03:48:00,64.1,62.3,30.22,ENE,69,0.0,4.0,94,0.00,,---,0.00,0.00,VWS V14.01,2012-12-03 08:48:00,
2012-12-03 03:49:00,64.1,62.3,30.22,ENE,68,2.0,4.0,94,0.00,,---,0.00,0.00,VWS V14.01,2012-12-03 08:49:00,
2012-12-03 03:50:00,64.2,62.4,30.22,NE,55,0.0,4.0,94,0.00,,---,0.00,0.00,VWS V14.01,2012-12-03 08:50:00,
2012-12-03 03:51:00,64.2,62.4,30.22,ENE,57,0.0,4.0,94,0.00,,---,0.00,0.00,VWS V14.01,2012-12-03 08:51:00,
2012-12-03 03:52:00,64.2,62.4,30.22,NE,52,2.0,4.0,94,0.00,,---,0.00,0.00,VWS V14.01,2012-12-03 08:52:00,
2012-12-03 03:53:00,64.2,62.4,30.22,ENE,62,0.0,4.0,94,0.00,,---,0.00,0.00,VWS V14.01,2012-12-03 08:53:00,
2012-12-03 03:54:00,64.2,62.4,30.22,ENE,62,0.0,4.0,94,0.00,,---,0.00,0.00,VWS V14.01,2012-12-03 08:54:00,
2012-12-03 03:55:00,64.2,62.4,30.22,ENE,62,0.0,4.0,94,0.00,,---,0.00,0.00,VWS V14.01,2012-12-03 08:55:00,
2012-12-03 03:56:00,64.2,62.4,30.22,ENE,62,0.0,4.0,94,0.00,,---,0.00,0.00,VWS V14.01,2012-12-03 08:56:00,
2012-12-03 03:57:00,64.2,62.4,30.22,ENE,62,0.0,4.0,94,0.00,,---,0.00,0.00,VWS V14.01,2012-12-03 08:57:00,
2012-12-03 03:58:00,64.2,62.1,30.22,ENE,62,1.0,4.0,93,0.00,,---,0.00,0.00,VWS V14.01,2012-12-03 08:58:00,
2012-12-03 03:59:00,64.2,62.4,30.22,ENE,62,0.0,4.0,94,0.00,,---,0.00,0.00,VWS V14.01,2012-12-03 08:59:00,
2012-12-03 04:00:00,64.2,62.4,30.22,ENE,62,0.0,4.0,94,0.00,,---,0.00,0.00,VWS V14.01,2012-12-03 09:00:00,
2012-12-03 04:01:00,64.2,62.4,30.22,ENE,62,0.0,0.0,94,0.00,,---,0.00,0.00,VWS V14.01,2012-12-03 09:01:00,
2012-12-03 04:02:00,64.2,62.4,30.22,ENE,62,0.0,0.0,94,0.00,,---,0.00,0.00,VWS V14.01,2012-12-03 09:02:00,
2012-12-03 04:03:00,64.2,62.4,30.22,ENE,62,0.0,0.0,94,0.00,,---,0.00,0.00,VWS V14.01,2012-12-03 09:03:00,
2012-12-03 04:04:00,64.2,62.4,30.22,ENE,62,0.0,1.0,94,0.00,,---,0.00,0.00,VWS V14.01,2012-12-03 09:04:00,
2012-12-03 04:05:00,64.2,62.4,30.22,ENE,62,0.0,1.0,94,0.00,,---,0.00,0.00,VWS V14.01,2012-12-03 09:05:00,
2012-12-03 04:06:00,64.1,62.3,30.22,ENE,62,0.0,1.0,94,0.00,,---,0.00,0.00,VWS V14.01,2012-12-03 09:06:00,
2012-12-03 04:07:00,64.1,62.3,30.22,ENE,62,2.0,2.0,94,0.00,,---,0.00,0.00,VWS V14.01,2012-12-03 09:07:00,
2012-12-03 04:08:00,64.1,62.3,30.22,NE,52,0.0,3.0,94,0.00,,---,0.00,0.00,VWS V14.01,2012-12-03 09:08:00,
2012-12-03 04:09:00,64.1,62.3,30.22,NE,52,0.0,3.0,94,0.00,,---,0.00,0.00,VWS V14.01,2012-12-03 09:09:00,
2012-12-03 04:10:00,64.1,62.3,30.22,NE,52,0.0,3.0,94,0.00,,---,0.00,0.00,VWS V14.01,2012-12-03 09:10:00,
2012-12-03 04:11:00,64.1,62.3,30.22,NE,52,0.0,3.0,94,0.00,,---,0.00,0.00,VWS V14.01,2012-12-03 09:11:00,
2012-12-03 04:12:00,64.1,62.3,30.22,NE,52,0.0,3.0,94,0.00,,---,0.00,0.00,VWS V14.01,2012-12-03 09:12:00,
2012-12-03 04:13:00,64.1,62.3,30.22,NE,52,0.0,3.0,94,0.00,,---,0.00,0.00,VWS V14.01,2012-12-03 09:13:00,
2012-12-03 04:14:00,64.1,62.3,30.22,NE,52,0.0,3.0,94,0.00,,---,0.00,0.00,VWS V14.01,2012-12-03 09:14:00,
2012-12-03 04:15:00,64.1,62.3,30.22,NE,52,1.0,3.0,94,0.00,,---,0.00,0.00,VWS V14.01,2012-12-03 09:15:00,
2012-12-03 04:16:00,64.1,62.3,30.22,NE,53,0.0,3.0,94,0.00,,---,0.00,0.00,VWS V14.01,2012-12-03 09:16:00,
2012-12-03 04:17:00,64.1,62.3,30.22,ENE,59,2.0,3.0,94,0.00,,---,0.00,0.00,VWS V14.01,2012-12-03 09:17:00,
2012-12-03 04:18:00,64.1,62.3,30.22,ENE,59,0.0,3.0,94,0.00,,---,0.00,0.00,VWS V14.01,2012-12-03 09:18:00,
2012-12-03 04:19:00,64.1,62.3,30.22,ENE,59,0.0,3.0,94,0.00,,---,0.00,0.00,VWS V14.01,2012-12-03 09:19:00,
2012-12-03 04:20:00,64.1,62.3,30.22,ENE,59,0.0,3.0,94,0.00,,---,0.00,0.00,VWS V14.01,2012-12-03 09:20:00,
2012-12-03 04:21:00,64.1,62.3,30.22,ENE,68,2.0,3.0,94,0.00,,---,0.00,0.00,VWS V14.01,2012-12-03 09:21:00,
2012-12-03 04:22:00,64.1,62.3,30.22,ENE,62,2.0,3.0,94,0.00,,---,0.00,0.00,VWS V14.01,2012-12-03 09:22:00,
2012-12-03 04:23:00,64.1,62.3,30.22,ENE,62,0.0,3.0,94,0.00,,---,0.00,0.00,VWS V14.01,2012-12-03 09:23:00,
2012-12-03 04:24:00,64.1,62.3,30.22,NE,53,0.0,3.0,94,0.00,,---,0.00,0.00,VWS V14.01,2012-12-03 09:24:00,
2012-12-03 04:25:00,64.1,62.3,30.22,NE,53,0.0,3.0,94,0.00,,---,0.00,0.00,VWS V14.01,2012-12-03 09:25:00,
2012-12-03 04:26:00,64.1,62.3,30.22,NE,54,1.0,3.0,94,0.00,,---,0.00,0.00,VWS V14.01,2012-12-03 09:26:00,
2012-12-03 04:27:00,64.1,62.3,30.22,NE,54,0.0,3.0,94,0.00,,---,0.00,0.00,VWS V14.01,2012-12-03 09:27:00,
2012-12-03 04:28:00,64.1,62.3,30.22,NE,56,3.0,3.0,94,0.00,,---,0.00,0.00,VWS V14.01,2012-12-03 09:28:00,
2012-12-03 04:29:00,64.1,62.3,30.22,NNE,33,2.0,3.0,94,0.00,,---,0.00,0.00,VWS V14.01,2012-12-03 09:29:00,
2012-12-03 04:30:00,64.1,62.3,30.22,ENE,57,2.0,4.0,94,0.00,,---,0.00,0.00,VWS V14.01,2012-12-03 09:30:00,
2012-12-03 04:31:00,64.1,62.3,30.22,ENE,69,0.0,4.0,94,0.00,,---,0.00,0.00,VWS V14.01,2012-12-03 09:31:00,
2012-12-03 04:32:00,64.1,62.3,30.22,ENE,69,0.0,4.0,94,0.00,,---,0.00,0.00,VWS V14.01,2012-12-03 09:32:00,
2012-12-03 04:33:00,64.1,62.3,30.22,ENE,69,0.0,4.0,94,0.00,,---,0.00,0.00,VWS V14.01,2012-12-03 09:33:00,
2012-12-03 04:34:00,64.1,62.3,30.22,ENE,69,0.0,4.0,94,0.00,,---,0.00,0.00,VWS V14.01,2012-12-03 09:34:00,
2012-12-03 04:35:00,64.1,62.0,30.22,ENE,69,0.0,4.0,93,0.00,,---,0.00,0.00,VWS V14.01,2012-12-03 09:35:00,
2012-12-03 04:36:00,64.1,62.0,30.22,NE,50,4.0,4.0,93,0.00,,---,0.00,0.00,VWS V14.01,2012-12-03 09:36:00,
2012-12-03 04:37:00,64.1,62.0,30.22,East,79,0.0,4.0,93,0.00,,---,0.00,0.00,VWS V14.01,2012-12-03 09:37:00,
2012-12-03 04:38:00,64.1,62.0,30.22,ENE,71,2.0,4.0,93,0.00,,---,0.00,0.00,VWS V14.01,2012-12-03 09:38:00,
2012-12-03 04:39:00,64.1,62.3,30.22,ENE,73,0.0,4.0,94,0.00,,---,0.00,0.00,VWS V14.01,2012-12-03 09:39:00,
2012-12-03 04:40:00,64.1,62.0,30.22,ENE,73,1.0,4.0,93,0.00,,---,0.00,0.00,VWS V14.01,2012-12-03 09:40:00,
2012-12-03 04:41:00,64.1,62.0,30.22,ENE,73,0.0,4.0,93,0.00,,---,0.00,0.00,VWS V14.01,2012-12-03 09:41:00,
2012-12-03 04:42:00,64.1,62.0,30.22,NE,35,2.0,4.0,93,0.00,,---,0.00,0.00,VWS V14.01,2012-12-03 09:42:00,
2012-12-03 04:43:00,64.1,62.0,30.22,NE,35,0.0,4.0,93,0.00,,---,0.00,0.00,VWS V14.01,2012-12-03 09:43:00,
2012-12-03 04:44:00,64.1,62.0,30.22,NE,35,1.0,4.0,93,0.00,,---,0.00,0.00,VWS V14.01,2012-12-03 09:44:00,
2012-12-03 04:45:00,64.1,62.0,30.22,NE,34,0.0,4.0,93,0.00,,---,0.00,0.00,VWS V14.01,2012-12-03 09:45:00,
2012-12-03 04:46:00,64.1,62.0,30.22,NE,34,0.0,4.0,93,0.00,,---,0.00,0.00,VWS V14.01,2012-12-03 09:46:00,
2012-12-03 04:47:00,64.1,62.3,30.22,ENE,73,1.0,4.0,94,0.00,,---,0.00,0.00,VWS V14.01,2012-12-03 09:47:00,
2012-12-03 04:48:00,64.1,62.3,30.22,ENE,62,0.0,4.0,94,0.00,,---,0.00,0.00,VWS V14.01,2012-12-03 09:48:00,
2012-12-03 04:49:00,64.1,62.3,30.22,NE,37,0.0,4.0,94,0.00,,---,0.00,0.00,VWS V14.01,2012-12-03 09:49:00,
2012-12-03 04:50:00,64.1,62.3,30.22,ENE,63,1.0,4.0,94,0.00,,---,0.00,0.00,VWS V14.01,2012-12-03 09:50:00,
2012-12-03 04:51:00,64.1,62.3,30.22,ENE,64,1.0,4.0,94,0.00,,---,0.00,0.00,VWS V14.01,2012-12-03 09:51:00,
2012-12-03 04:52:00,64.1,62.3,30.22,ENE,64,0.0,4.0,94,0.00,,---,0.00,0.00,VWS V14.01,2012-12-03 09:52:00,
2012-12-03 04:53:00,64.1,62.3,30.22,NE,48,0.0,4.0,94,0.00,,---,0.00,0.00,VWS V14.01,2012-12-03 09:53:00,
2012-12-03 04:54:00,64.1,62.3,30.22,East,81,0.0,4.0,94,0.00,,---,0.00,0.00,VWS V14.01,2012-12-03 09:54:00,
2012-12-03 04:55:00,64.1,62.3,30.22,NNE,27,3.0,4.0,94,0.00,,---,0.00,0.00,VWS V14.01,2012-12-03 09:55:00,
2012-12-03 04:56:00,64.1,62.3,30.22,NNE,27,0.0,4.0,94,0.00,,---,0.00,0.00,VWS V14.01,2012-12-03 09:56:00,
2012-12-03 04:57:00,64.1,62.3,30.22,NNE,27,0.0,4.0,94,0.00,,---,0.00,0.00,VWS V14.01,2012-12-03 09:57:00,
2012-12-03 04:58:00,64.1,62.3,30.22,NNE,27,0.0,4.0,94,0.00,,---,0.00,0.00,VWS V14.01,2012-12-03 09:58:00,
2012-12-03 04:59:00,64.1,62.3,30.22,NNE,27,0.0,4.0,94,0.00,,---,0.00,0.00,VWS V14.01,2012-12-03 09:59:00,
2012-12-03 05:00:00,64.1,62.3,30.22,NNE,27,0.0,4.0,94,0.00,,---,0.00,0.00,VWS V14.01,2012-12-03 10:00:00,
2012-12-03 05:01:00,64.2,62.4,30.22,NNE,27,0.0,0.0,94,0.00,,---,0.00,0.00,VWS V14.01,2012-12-03 10:01:00,
2012-12-03 05:02:00,64.2,62.4,30.22,NNE,27,0.0,0.0,94,0.00,,---,0.00,0.00,VWS V14.01,2012-12-03 10:02:00,
2012-12-03 05:03:00,64.2,62.4,30.22,NNE,27,0.0,0.0,94,0.00,,---,0.00,0.00,VWS V14.01,2012-12-03 10:03:00,
2012-12-03 05:04:00,64.2,62.4,30.22,NNE,27,0.0,0.0,94,0.00,,---,0.00,0.00,VWS V14.01,2012-12-03 10:04:00,
2012-12-03 05:05:00,64.2,62.4,30.22,NNE,27,0.0,0.0,94,0.00,,---,0.00,0.00,VWS V14.01,2012-12-03 10:05:00,
2012-12-03 05:06:00,64.2,62.4,30.22,NNE,27,0.0,0.0,94,0.00,,---,0.00,0.00,VWS V14.01,2012-12-03 10:06:00,
2012-12-03 05:07:00,64.3,62.5,30.22,NNE,27,0.0,0.0,94,0.00,,---,0.00,0.00,VWS V14.01,2012-12-03 10:07:00,
2012-12-03 05:08:00,64.3,62.5,30.22,NNE,27,0.0,0.0,94,0.00,,---,0.00,0.00,VWS V14.01,2012-12-03 10:08:00,
2012-12-03 05:09:00,64.2,62.1,30.22,NNE,27,0.0,0.0,93,0.00,,---,0.00,0.00,VWS V14.01,2012-12-03 10:09:00,
2012-12-03 05:10:00,64.3,62.5,30.22,NNE,27,0.0,0.0,94,0.00,,---,0.00,0.00,VWS V14.01,2012-12-03 10:10:00,
2012-12-03 05:11:00,64.3,62.2,30.22,NNE,27,0.0,0.0,93,0.00,,---,0.00,0.00,VWS V14.01,2012-12-03 10:11:00,
2012-12-03 05:12:00,64.3,62.5,30.22,NNE,27,1.0,1.0,94,0.00,,---,0.00,0.00,VWS V14.01,2012-12-03 10:12:00,
2012-12-03 05:13:00,64.3,62.5,30.22,NNE,27,0.0,1.0,94,0.00,,---,0.00,0.00,VWS V14.01,2012-12-03 10:13:00,
2012-12-03 05:14:00,64.2,62.1,30.22,NNE,27,0.0,1.0,93,0.00,,---,0.00,0.00,VWS V14.01,2012-12-03 10:14:00,
2012-12-03 05:15:00,64.2,62.4,30.22,NNE,27,0.0,1.0,94,0.00,,---,0.00,0.00,VWS V14.01,2012-12-03 10:15:00,
2012-12-03 05:16:00,64.3,62.5,30.22,NNE,27,1.0,1.0,94,0.00,,---,0.00,0.00,VWS V14.01,2012-12-03 10:16:00,
2012-12-03 05:17:00,64.2,62.1,30.22,NNE,27,1.0,1.0,93,0.00,,---,0.00,0.00,VWS V14.01,2012-12-03 10:17:00,
2012-12-03 05:18:00,64.2,62.1,30.22,NNE,27,1.0,1.0,93,0.00,,---,0.00,0.00,VWS V14.01,2012-12-03 10:18:00,
2012-12-03 05:19:00,64.2,62.1,30.22,ENE,72,2.0,3.0,93,0.00,,---,0.00,0.00,VWS V14.01,2012-12-03 10:19:00,
2012-12-03 05:20:00,64.1,62.0,30.22,East,85,0.0,3.0,93,0.00,,---,0.00,0.00,VWS V14.01,2012-12-03 10:20:00,
2012-12-03 05:21:00,64.1,62.0,30.22,East,85,0.0,3.0,93,0.00,,---,0.00,0.00,VWS V14.01,2012-12-03 10:21:00,
2012-12-03 05:22:00,64.1,62.0,30.22,East,85,0.0,3.0,93,0.00,,---,0.00,0.00,VWS V14.01,2012-12-03 10:22:00,
2012-12-03 05:23:00,64.1,62.0,30.22,East,85,0.0,3.0,93,0.00,,---,0.00,0.00,VWS V14.01,2012-12-03 10:23:00,
2012-12-03 05:24:00,64.1,62.3,30.22,East,85,0.0,3.0,94,0.00,,---,0.00,0.00,VWS V14.01,2012-12-03 10:24:00,
2012-12-03 05:25:00,64.1,62.0,30.22,East,85,0.0,3.0,93,0.00,,---,0.00,0.00,VWS V14.01,2012-12-03 10:25:00,
2012-12-03 05:26:00,64.1,62.0,30.22,East,85,0.0,3.0,93,0.00,,---,0.00,0.00,VWS V14.01,2012-12-03 10:26:00,
2012-12-03 05:27:00,64.1,62.0,30.22,East,85,0.0,3.0,93,0.00,,---,0.00,0.00,VWS V14.01,2012-12-03 10:27:00,
2012-12-03 05:28:00,64.1,62.0,30.22,East,85,0.0,3.0,93,0.00,,---,0.00,0.00,VWS V14.01,2012-12-03 10:28:00,
2012-12-03 05:29:00,64.1,62.0,30.22,East,85,0.0,3.0,93,0.00,,---,0.00,0.00,VWS V14.01,2012-12-03 10:29:00,
2012-12-03 05:30:00,64.0,61.9,30.22,East,85,0.0,3.0,93,0.00,,---,0.00,0.00,VWS V14.01,2012-12-03 10:30:00,
2012-12-03 05:31:00,64.0,61.9,30.23,East,85,0.0,3.0,93,0.00,,---,0.00,0.00,VWS V14.01,2012-12-03 10:31:00,
2012-12-03 05:32:00,64.0,61.9,30.23,East,85,0.0,3.0,93,0.00,,---,0.00,0.00,VWS V14.01,2012-12-03 10:32:00,
2012-12-03 05:33:00,64.0,61.9,30.23,East,85,1.0,3.0,93,0.00,,---,0.00,0.00,VWS V14.01,2012-12-03 10:33:00,
2012-12-03 05:34:00,64.0,61.9,30.22,East,85,0.0,3.0,93,0.00,,---,0.00,0.00,VWS V14.01,2012-12-03 10:34:00,
2012-12-03 05:35:00,64.0,61.9,30.22,East,85,0.0,3.0,93,0.00,,---,0.00,0.00,VWS V14.01,2012-12-03 10:35:00,
2012-12-03 05:36:00,64.0,61.9,30.22,East,85,0.0,3.0,93,0.00,,---,0.00,0.00,VWS V14.01,2012-12-03 10:36:00,
2012-12-03 05:37:00,64.0,61.9,30.22,East,85,1.0,3.0,93,0.00,,---,0.00,0.00,VWS V14.01,2012-12-03 10:37:00,
2012-12-03 05:38:00,64.0,61.9,30.23,ENE,68,2.0,3.0,93,0.00,,---,0.00,0.00,VWS V14.01,2012-12-03 10:38:00,
2012-12-03 05:39:00,64.0,62.2,30.23,ENE,68,0.0,3.0,94,0.00,,---,0.00,0.00,VWS V14.01,2012-12-03 10:39:00,
2012-12-03 05:40:00,64.0,61.9,30.23,ENE,68,0.0,3.0,93,0.00,,---,0.00,0.00,VWS V14.01,2012-12-03 10:40:00,
2012-12-03 05:41:00,64.0,62.2,30.23,ENE,68,0.0,3.0,94,0.00,,---,0.00,0.00,VWS V14.01,2012-12-03 10:41:00,
2012-12-03 05:42:00,64.0,62.2,30.23,ENE,68,0.0,3.0,94,0.00,,---,0.00,0.00,VWS V14.01,2012-12-03 10:42:00,
2012-12-03 05:43:00,64.0,62.2,30.23,ENE,68,0.0,3.0,94,0.00,,---,0.00,0.00,VWS V14.01,2012-12-03 10:43:00,
2012-12-03 05:44:00,64.0,62.2,30.23,ENE,68,0.0,3.0,94,0.00,,---,0.00,0.00,VWS V14.01,2012-12-03 10:44:00,
2012-12-03 05:45:00,64.0,62.2,30.23,ENE,68,1.0,3.0,94,0.00,,---,0.00,0.00,VWS V14.01,2012-12-03 10:45:00,
2012-12-03 05:46:00,64.0,62.2,30.23,ENE,68,0.0,3.0,94,0.00,,---,0.00,0.00,VWS V14.01,2012-12-03 10:46:00,
2012-12-03 05:47:00,64.0,62.2,30.23,ENE,68,0.0,3.0,94,0.00,,---,0.00,0.00,VWS V14.01,2012-12-03 10:47:00,
2012-12-03 05:48:00,64.0,62.2,30.23,ENE,68,0.0,3.0,94,0.00,,---,0.00,0.00,VWS V14.01,2012-12-03 10:48:00,
2012-12-03 05:49:00,64.0,62.2,30.23,ENE,68,0.0,3.0,94,0.00,,---,0.00,0.00,VWS V14.01,2012-12-03 10:49:00,
2012-12-03 05:50:00,63.9,62.1,30.23,ENE,68,0.0,3.0,94,0.00,,---,0.00,0.00,VWS V14.01,2012-12-03 10:50:00,
2012-12-03 05:51:00,63.9,62.1,30.23,ENE,68,0.0,3.0,94,0.00,,---,0.00,0.00,VWS V14.01,2012-12-03 10:51:00,
2012-12-03 05:52:00,64.0,62.2,30.23,ENE,68,0.0,3.0,94,0.00,,---,0.00,0.00,VWS V14.01,2012-12-03 10:52:00,
2012-12-03 05:53:00,64.0,62.2,30.23,ENE,68,0.0,3.0,94,0.00,,---,0.00,0.00,VWS V14.01,2012-12-03 10:53:00,
2012-12-03 05:54:00,64.0,62.2,30.23,ENE,68,0.0,3.0,94,0.00,,---,0.00,0.00,VWS V14.01,2012-12-03 10:54:00,
2012-12-03 05:55:00,64.0,62.2,30.23,ENE,68,0.0,3.0,94,0.00,,---,0.00,0.00,VWS V14.01,2012-12-03 10:55:00,
2012-12-03 05:56:00,64.0,62.2,30.23,ENE,68,0.0,3.0,94,0.00,,---,0.00,0.00,VWS V14.01,2012-12-03 10:56:00,
2012-12-03 05:57:00,64.0,62.2,30.23,ENE,68,0.0,3.0,94,0.00,,---,0.00,0.00,VWS V14.01,2012-12-03 10:57:00,
2012-12-03 05:58:00,64.0,62.2,30.23,ENE,68,0.0,3.0,94,0.00,,---,0.00,0.00,VWS V14.01,2012-12-03 10:58:00,
2012-12-03 05:59:00,64.0,62.2,30.23,ENE,68,0.0,3.0,94,0.00,,---,0.00,0.00,VWS V14.01,2012-12-03 10:59:00,
2012-12-03 06:00:00,64.0,62.2,30.23,ENE,68,0.0,3.0,94,0.00,,---,0.00,0.00,VWS V14.01,2012-12-03 11:00:00,
2012-12-03 06:01:00,64.0,62.2,30.23,ENE,68,0.0,1.0,94,0.00,,---,0.00,0.00,VWS V14.01,2012-12-03 11:01:00,
2012-12-03 06:02:00,64.0,62.2,30.23,ENE,68,0.0,1.0,94,0.00,,---,0.00,0.00,VWS V14.01,2012-12-03 11:02:00,
2012-12-03 06:03:00,64.0,62.2,30.23,ENE,68,0.0,1.0,94,0.00,,---,0.00,0.00,VWS V14.01,2012-12-03 11:03:00,
2012-12-03 06:04:00,64.0,62.2,30.23,ENE,68,0.0,1.0,94,0.00,,---,0.00,0.00,VWS V14.01,2012-12-03 11:04:00,
2012-12-03 06:05:00,64.0,62.2,30.23,ENE,68,0.0,2.0,94,0.00,,---,0.00,0.00,VWS V14.01,2012-12-03 11:05:00,
2012-12-03 06:06:00,64.0,62.2,30.23,ENE,68,1.0,2.0,94,0.00,,---,0.00,0.00,VWS V14.01,2012-12-03 11:06:00,
2012-12-03 06:07:00,64.0,62.2,30.23,East,91,0.0,2.0,94,0.00,,---,0.00,0.00,VWS V14.01,2012-12-03 11:07:00,
2012-12-03 06:08:00,64.0,62.2,30.23,East,91,0.0,2.0,94,0.00,,---,0.00,0.00,VWS V14.01,2012-12-03 11:08:00,
2012-12-03 06:09:00,64.0,62.2,30.23,NE,56,1.0,2.0,94,0.00,,---,0.00,0.00,VWS V14.01,2012-12-03 11:09:00,
2012-12-03 06:10:00,64.0,62.2,30.23,NE,56,0.0,2.0,94,0.00,,---,0.00,0.00,VWS V14.01,2012-12-03 11:10:00,
2012-12-03 06:11:00,64.0,62.2,30.23,NE,37,1.0,2.0,94,0.00,,---,0.00,0.00,VWS V14.01,2012-12-03 11:11:00,
2012-12-03 06:12:00,64.0,62.2,30.23,NE,37,0.0,2.0,94,0.00,,---,0.00,0.00,VWS V14.01,2012-12-03 11:12:00,
2012-12-03 06:13:00,64.0,62.2,30.23,NE,37,0.0,2.0,94,0.00,,---,0.00,0.00,VWS V14.01,2012-12-03 11:13:00,
2012-12-03 06:14:00,64.0,62.2,30.23,ESE,106,1.0,3.0,94,0.00,,---,0.00,0.00,VWS V14.01,2012-12-03 11:14:00,
2012-12-03 06:15:00,64.0,62.2,30.23,East,83,1.0,3.0,94,0.00,,---,0.00,0.00,VWS V14.01,2012-12-03 11:15:00,
2012-12-03 06:16:00,64.0,62.2,30.23,ESE,116,1.0,4.0,94,0.00,,---,0.00,0.00,VWS V14.01,2012-12-03 11:16:00,
2012-12-03 06:17:00,64.0,62.2,30.23,ESE,103,1.0,4.0,94,0.00,,---,0.00,0.00,VWS V14.01,2012-12-03 11:17:00,
2012-12-03 06:18:00,64.0,62.2,30.23,NNE,17,0.0,4.0,94,0.00,,---,0.00,0.00,VWS V14.01,2012-12-03 11:18:00,
2012-12-03 06:19:00,64.0,62.2,30.23,NNE,17,0.0,4.0,94,0.00,,---,0.00,0.00,VWS V14.01,2012-12-03 11:19:00,
2012-12-03 06:20:00,64.0,62.2,30.23,ENE,70,1.0,4.0,94,0.00,,---,0.00,0.00,VWS V14.01,2012-12-03 11:20:00,
2012-12-03 06:21:00,64.0,62.2,30.23,ENE,70,1.0,4.0,94,0.00,,---,0.00,0.00,VWS V14.01,2012-12-03 11:21:00,
2012-12-03 06:22:00,64.0,62.2,30.23,ENE,70,0.0,4.0,94,0.00,,---,0.00,0.00,VWS V14.01,2012-12-03 11:22:00,
2012-12-03 06:23:00,64.0,62.2,30.23,East,84,2.0,4.0,94,0.00,,---,0.00,0.00,VWS V14.01,2012-12-03 11:23:00,
2012-12-03 06:24:00,64.0,62.2,30.23,ENE,70,2.0,4.0,94,0.00,,---,0.00,0.00,VWS V14.01,2012-12-03 11:24:00,
2012-12-03 06:25:00,63.9,62.1,30.23,ENE,65,1.0,4.0,94,0.00,,---,0.00,0.00,VWS V14.01,2012-12-03 11:25:00,
2012-12-03 06:26:00,64.0,62.2,30.23,ENE,76,4.0,4.0,94,0.00,,---,0.00,0.00,VWS V14.01,2012-12-03 11:26:00,
2012-12-03 06:27:00,63.9,62.1,30.23,ENE,77,1.0,4.0,94,0.00,,---,0.00,0.00,VWS V14.01,2012-12-03 11:27:00,
2012-12-03 06:28:00,64.0,62.2,30.23,NE,44,3.0,4.0,94,0.00,,---,0.00,0.00,VWS V14.01,2012-12-03 11:28:00,
2012-12-03 06:29:00,64.0,62.2,30.23,NNE,25,2.0,4.0,94,0.00,,---,0.00,0.00,VWS V14.01,2012-12-03 11:29:00,
2012-12-03 06:30:00,64.0,62.2,30.23,NE,45,0.0,4.0,94,0.00,,---,0.00,0.00,VWS V14.01,2012-12-03 11:30:00,
2012-12-03 06:31:00,63.9,62.1,30.23,NE,45,0.0,4.0,94,0.00,,---,0.00,0.00,VWS V14.01,2012-12-03 11:31:00,
2012-12-03 06:32:00,63.9,62.1,30.24,NE,45,0.0,4.0,94,0.00,,---,0.00,0.00,VWS V14.01,2012-12-03 11:32:00,
2012-12-03 06:33:00,64.0,62.2,30.23,NE,45,0.0,4.0,94,0.00,,---,0.00,0.00,VWS V14.01,2012-12-03 11:33:00,
2012-12-03 06:34:00,64.0,62.2,30.24,NE,50,2.0,4.0,94,0.00,,---,0.00,0.00,VWS V14.01,2012-12-03 11:34:00,
2012-12-03 06:35:00,64.0,62.2,30.24,NE,50,0.0,4.0,94,0.00,,---,0.00,0.00,VWS V14.01,2012-12-03 11:35:00,
2012-12-03 06:36:00,64.0,62.2,30.24,NE,50,1.0,4.0,94,0.00,,---,0.00,0.00,VWS V14.01,2012-12-03 11:36:00,
2012-12-03 06:37:00,64.0,62.2,30.24,NE,50,0.0,4.0,94,0.00,,---,0.00,0.00,VWS V14.01,2012-12-03 11:37:00,
2012-12-03 06:38:00,64.0,62.2,30.24,NE,50,0.0,4.0,94,0.00,,---,0.00,0.00,VWS V14.01,2012-12-03 11:38:00,
2012-12-03 06:39:00,64.0,62.2,30.24,NE,50,0.0,4.0,94,0.00,,---,0.00,0.00,VWS V14.01,2012-12-03 11:39:00,
2012-12-03 06:40:00,64.0,62.2,30.24,NE,50,0.0,4.0,94,0.00,,---,0.00,0.00,VWS V14.01,2012-12-03 11:40:00,
2012-12-03 06:41:00,64.0,62.2,30.24,NE,54,0.0,4.0,94,0.00,,---,0.00,0.00,VWS V14.01,2012-12-03 11:41:00,
2012-12-03 06:42:00,64.0,62.2,30.24,NE,54,0.0,4.0,94,0.00,,---,0.00,0.00,VWS V14.01,2012-12-03 11:42:00,
2012-12-03 06:43:00,63.9,62.1,30.24,NE,54,1.0,4.0,94,0.00,,---,0.00,0.00,VWS V14.01,2012-12-03 11:43:00,
2012-12-03 06:44:00,63.9,62.1,30.24,East,92,2.0,4.0,94,0.00,,---,0.00,0.00,VWS V14.01,2012-12-03 11:44:00,
2012-12-03 06:45:00,63.9,62.1,30.24,NNE,33,2.0,4.0,94,0.00,,---,0.00,0.00,VWS V14.01,2012-12-03 11:45:00,
2012-12-03 06:46:00,63.9,62.1,30.24,ENE,68,2.0,4.0,94,0.00,,---,0.00,0.00,VWS V14.01,2012-12-03 11:46:00,
2012-12-03 06:47:00,63.9,62.1,30.24,ENE,62,0.0,4.0,94,0.00,,---,0.00,0.00,VWS V14.01,2012-12-03 11:47:00,
2012-12-03 06:48:00,63.9,62.1,30.24,ENE,77,1.0,4.0,94,0.00,,---,0.00,0.00,VWS V14.01,2012-12-03 11:48:00,
2012-12-03 06:49:00,63.9,62.1,30.24,ENE,77,0.0,4.0,94,0.00,,---,0.00,0.00,VWS V14.01,2012-12-03 11:49:00,
2012-12-03 06:50:00,63.9,62.1,30.24,ENE,77,1.0,4.0,94,0.00,,---,0.00,0.00,VWS V14.01,2012-12-03 11:50:00,
2012-12-03 06:51:00,63.9,62.1,30.24,ENE,77,0.0,4.0,94,0.00,,---,0.00,0.00,VWS V14.01,2012-12-03 11:51:00,
2012-12-03 06:52:00,63.9,62.1,30.24,ENE,77,0.0,4.0,94,0.00,,---,0.00,0.00,VWS V14.01,2012-12-03 11:52:00,
2012-12-03 06:53:00,63.9,62.1,30.24,East,82,3.0,4.0,94,0.00,,---,0.00,0.00,VWS V14.01,2012-12-03 11:53:00,
2012-12-03 06:54:00,63.9,62.1,30.24,NE,48,3.0,4.0,94,0.00,,---,0.00,0.00,VWS V14.01,2012-12-03 11:54:00,
2012-12-03 06:55:00,63.9,62.1,30.24,NE,39,0.0,4.0,94,0.00,,---,0.00,0.00,VWS V14.01,2012-12-03 11:55:00,
2012-12-03 06:56:00,63.9,62.1,30.24,NE,39,0.0,4.0,94,0.00,,---,0.00,0.00,VWS V14.01,2012-12-03 11:56:00,
2012-12-03 06:57:00,63.9,62.1,30.24,NE,39,0.0,4.0,94,0.00,,---,0.00,0.00,VWS V14.01,2012-12-03 11:57:00,
2012-12-03 06:58:00,64.0,62.2,30.24,NE,39,0.0,4.0,94,0.00,,---,0.00,0.00,VWS V14.01,2012-12-03 11:58:00,
2012-12-03 06:59:00,64.0,62.2,30.24,NE,39,1.0,4.0,94,0.00,,---,0.00,0.00,VWS V14.01,2012-12-03 11:59:00,
2012-12-03 07:00:00,64.0,62.2,30.24,NE,39,0.0,4.0,94,0.00,,---,0.00,0.00,VWS V14.01,2012-12-03 12:00:00,
2012-12-03 07:01:00,64.0,62.2,30.24,NE,39,1.0,1.0,94,0.00,,---,0.00,5.00,VWS V14.01,2012-12-03 12:01:00,
2012-12-03 07:02:00,64.0,62.2,30.24,NE,48,0.0,2.0,94,0.00,,---,0.00,5.00,VWS V14.01,2012-12-03 12:02:00,
2012-12-03 07:03:00,64.0,62.2,30.24,NE,48,1.0,2.0,94,0.00,,---,0.00,5.00,VWS V14.01,2012-12-03 12:03:00,
2012-12-03 07:04:00,64.0,62.2,30.24,NE,48,1.0,2.0,94,0.00,,---,0.00,5.00,VWS V14.01,2012-12-03 12:04:00,
2012-12-03 07:05:00,64.0,62.2,30.24,NE,48,0.0,2.0,94,0.00,,---,0.00,5.00,VWS V14.01,2012-12-03 12:05:00,
2012-12-03 07:06:00,64.0,62.2,30.24,NE,48,1.0,2.0,94,0.00,,---,0.00,7.00,VWS V14.01,2012-12-03 12:06:00,
2012-12-03 07:07:00,64.0,62.2,30.24,NE,48,1.0,2.0,94,0.00,,---,0.00,7.00,VWS V14.01,2012-12-03 12:07:00,
2012-12-03 07:08:00,64.0,62.2,30.24,NE,48,0.0,2.0,94,0.00,,---,0.00,7.00,VWS V14.01,2012-12-03 12:08:00,
2012-12-03 07:09:00,64.0,62.2,30.24,NE,48,0.0,2.0,94,0.00,,---,0.00,9.00,VWS V14.01,2012-12-03 12:09:00,
2012-12-03 07:10:00,64.0,62.2,30.24,NE,48,1.0,2.0,94,0.00,,---,0.00,9.00,VWS V14.01,2012-12-03 12:10:00,
2012-12-03 07:11:00,64.0,62.2,30.25,NE,48,0.0,2.0,94,0.00,,---,0.00,11.00,VWS V14.01,2012-12-03 12:11:00,
2012-12-03 07:12:00,64.0,62.2,30.25,NE,48,0.0,2.0,94,0.00,,---,0.00,11.00,VWS V14.01,2012-12-03 12:12:00,
2012-12-03 07:13:00,64.1,62.3,30.25,East,97,1.0,4.0,94,0.00,,---,0.00,12.00,VWS V14.01,2012-12-03 12:13:00,
2012-12-03 07:14:00,64.1,62.3,30.25,ENE,75,0.0,4.0,94,0.00,,---,0.00,14.00,VWS V14.01,2012-12-03 12:14:00,
2012-12-03 07:15:00,64.1,62.3,30.25,ENE,75,0.0,4.0,94,0.00,,---,0.00,14.00,VWS V14.01,2012-12-03 12:15:00,
2012-12-03 07:16:00,64.1,62.3,30.25,ENE,75,0.0,4.0,94,0.00,,---,0.00,16.00,VWS V14.01,2012-12-03 12:16:00,
2012-12-03 07:17:00,64.2,62.4,30.25,NE,45,1.0,4.0,94,0.00,,---,0.00,16.00,VWS V14.01,2012-12-03 12:17:00,
2012-12-03 07:18:00,64.2,62.4,30.25,ENE,60,1.0,4.0,94,0.00,,---,0.00,18.00,VWS V14.01,2012-12-03 12:18:00,
2012-12-03 07:19:00,64.3,62.5,30.25,ENE,60,1.0,4.0,94,0.00,,---,0.00,18.00,VWS V14.01,2012-12-03 12:19:00,
2012-12-03 07:20:00,64.3,62.5,30.25,ENE,60,1.0,4.0,94,0.00,,---,0.00,19.00,VWS V14.01,2012-12-03 12:20:00,
2012-12-03 07:21:00,64.3,62.5,30.25,ENE,60,0.0,4.0,94,0.00,,---,0.00,19.00,VWS V14.01,2012-12-03 12:21:00,
2012-12-03 07:22:00,64.3,62.5,30.25,East,86,0.0,4.0,94,0.00,,---,0.00,19.00,VWS V14.01,2012-12-03 12:22:00,
2012-12-03 07:23:00,64.4,62.6,30.25,NE,44,0.0,4.0,94,0.00,,---,0.00,21.00,VWS V14.01,2012-12-03 12:23:00,
2012-12-03 07:24:00,64.3,62.5,30.25,NE,46,0.0,4.0,94,0.00,,---,0.00,21.00,VWS V14.01,2012-12-03 12:24:00,
2012-12-03 07:25:00,64.4,62.6,30.25,NE,46,0.0,4.0,94,0.00,,---,0.00,23.00,VWS V14.01,2012-12-03 12:25:00,
2012-12-03 07:26:00,64.4,62.3,30.25,East,86,1.0,4.0,93,0.00,,---,0.00,23.00,VWS V14.01,2012-12-03 12:26:00,
2012-12-03 07:27:00,64.4,62.3,30.25,ENE,62,0.0,4.0,93,0.00,,---,0.00,23.00,VWS V14.01,2012-12-03 12:27:00,
2012-12-03 07:28:00,64.4,62.3,30.25,NE,43,2.0,4.0,93,0.00,,---,0.00,25.00,VWS V14.01,2012-12-03 12:28:00,
2012-12-03 07:29:00,64.5,62.4,30.25,NE,41,0.0,4.0,93,0.00,,---,0.00,25.00,VWS V14.01,2012-12-03 12:29:00,
2012-12-03 07:30:00,64.5,62.4,30.25,East,94,0.0,4.0,93,0.00,,---,0.00,26.00,VWS V14.01,2012-12-03 12:30:00,
2012-12-03 07:31:00,64.5,62.4,30.25,East,94,0.0,4.0,93,0.00,,---,0.00,28.00,VWS V14.01,2012-12-03 12:31:00,
2012-12-03 07:32:00,64.5,62.4,30.25,ENE,62,1.0,4.0,93,0.00,,---,0.00,30.00,VWS V14.01,2012-12-03 12:32:00,
2012-12-03 07:33:00,64.5,62.4,30.25,NE,54,0.0,4.0,93,0.00,,---,0.00,32.00,VWS V14.01,2012-12-03 12:33:00,
2012-12-03 07:34:00,64.5,62.4,30.25,NE,54,1.0,4.0,93,0.00,,---,0.00,33.00,VWS V14.01,2012-12-03 12:34:00,
2012-12-03 07:35:00,64.5,62.4,30.25,NE,54,0.0,4.0,93,0.00,,---,0.00,35.00,VWS V14.01,2012-12-03 12:35:00,
2012-12-03 07:36:00,64.6,62.5,30.25,NE,37,0.0,4.0,93,0.00,,---,0.00,39.00,VWS V14.01,2012-12-03 12:36:00,
2012-12-03 07:37:00,64.6,62.5,30.25,East,96,1.0,4.0,93,0.00,,---,0.00,39.00,VWS V14.01,2012-12-03 12:37:00,
2012-12-03 07:38:00,64.6,62.5,30.25,East,85,0.0,4.0,93,0.00,,---,0.00,42.00,VWS V14.01,2012-12-03 12:38:00,
2012-12-03 07:39:00,64.7,62.6,30.25,NNE,25,0.0,4.0,93,0.00,,---,0.00,42.00,VWS V14.01,2012-12-03 12:39:00,
2012-12-03 07:40:00,64.7,62.6,30.25,ENE,60,2.0,4.0,93,0.00,,---,0.00,42.00,VWS V14.01,2012-12-03 12:40:00,
2012-12-03 07:41:00,64.7,62.6,30.25,East,86,2.0,4.0,93,0.00,,---,0.00,44.00,VWS V14.01,2012-12-03 12:41:00,
2012-12-03 07:42:00,64.8,62.7,30.26,NE,54,0.0,4.0,93,0.00,,---,0.00,44.00,VWS V14.01,2012-12-03 12:42:00,
2012-12-03 07:43:00,64.8,62.7,30.26,SE,132,0.0,4.0,93,0.00,,---,0.00,44.00,VWS V14.01,2012-12-03 12:43:00,
2012-12-03 07:44:00,64.9,62.8,30.26,NE,49,0.0,4.0,93,0.00,,---,0.00,44.00,VWS V14.01,2012-12-03 12:44:00,
2012-12-03 07:45:00,64.9,62.8,30.26,East,83,1.0,4.0,93,0.00,,---,0.00,44.00,VWS V14.01,2012-12-03 12:45:00,
2012-12-03 07:46:00,65.0,62.9,30.26,NE,42,2.0,4.0,93,0.00,,---,0.00,46.00,VWS V14.01,2012-12-03 12:46:00,
2012-12-03 07:47:00,65.0,62.9,30.26,NE,56,2.0,4.0,93,0.00,,---,0.00,46.00,VWS V14.01,2012-12-03 12:47:00,
2012-12-03 07:48:00,65.0,62.9,30.26,ENE,72,2.0,4.0,93,0.00,,---,0.00,46.00,VWS V14.01,2012-12-03 12:48:00,
2012-12-03 07:49:00,65.1,63.0,30.26,East,91,3.0,4.0,93,0.00,,---,0.00,49.00,VWS V14.01,2012-12-03 12:49:00,
2012-12-03 07:50:00,65.1,63.0,30.26,East,83,2.0,4.0,93,0.00,,---,0.00,51.00,VWS V14.01,2012-12-03 12:50:00,
2012-12-03 07:51:00,65.1,63.0,30.26,East,83,0.0,4.0,93,0.00,,---,0.00,53.00,VWS V14.01,2012-12-03 12:51:00,
2012-12-03 07:52:00,65.2,63.1,30.26,East,85,3.0,5.0,93,0.00,,---,0.00,53.00,VWS V14.01,2012-12-03 12:52:00,
2012-12-03 07:53:00,65.2,63.1,30.26,North,8,0.0,5.0,93,0.00,,---,0.00,53.00,VWS V14.01,2012-12-03 12:53:00,
2012-12-03 07:54:00,65.3,63.2,30.26,NE,43,0.0,5.0,93,0.00,,---,0.00,58.00,VWS V14.01,2012-12-03 12:54:00,
2012-12-03 07:55:00,65.3,63.2,30.26,NE,43,0.0,5.0,93,0.00,,---,0.00,63.00,VWS V14.01,2012-12-03 12:55:00,
2012-12-03 07:56:00,65.3,63.2,30.26,East,88,4.0,5.0,93,0.00,,---,0.00,65.00,VWS V14.01,2012-12-03 12:56:00,
2012-12-03 07:57:00,65.4,63.0,30.26,East,81,2.0,5.0,92,0.00,,---,0.00,67.00,VWS V14.01,2012-12-03 12:57:00,
2012-12-03 07:58:00,65.4,63.0,30.26,ENE,58,2.0,5.0,92,0.00,,---,0.00,67.00,VWS V14.01,2012-12-03 12:58:00,
2012-12-03 07:59:00,65.4,63.0,30.26,East,82,2.0,5.0,92,0.00,,---,0.00,67.00,VWS V14.01,2012-12-03 12:59:00,
2012-12-03 08:00:00,65.5,63.1,30.26,East,93,2.0,5.0,92,0.00,,---,0.00,76.00,VWS V14.01,2012-12-03 13:00:00,
2012-12-03 08:01:00,65.5,63.1,30.26,ENE,65,0.0,3.0,92,0.00,,---,0.00,77.00,VWS V14.01,2012-12-03 13:01:00,
2012-12-03 08:02:00,65.6,63.2,30.26,ENE,74,0.0,3.0,92,0.00,,---,0.00,81.00,VWS V14.01,2012-12-03 13:02:00,
2012-12-03 08:03:00,65.6,63.2,30.26,ENE,74,2.0,3.0,92,0.00,,---,0.00,81.00,VWS V14.01,2012-12-03 13:03:00,
2012-12-03 08:04:00,65.6,63.2,30.26,East,93,2.0,3.0,92,0.00,,---,0.00,84.00,VWS V14.01,2012-12-03 13:04:00,
2012-12-03 08:05:00,65.7,63.3,30.26,East,86,1.0,3.0,92,0.00,,---,0.00,84.00,VWS V14.01,2012-12-03 13:05:00,
2012-12-03 08:06:00,65.7,63.3,30.26,ENE,58,4.0,4.0,92,0.00,,---,0.00,86.00,VWS V14.01,2012-12-03 13:06:00,
2012-12-03 08:07:00,65.8,63.4,30.26,NNE,31,2.0,4.0,92,0.00,,---,0.00,86.00,VWS V14.01,2012-12-03 13:07:00,
2012-12-03 08:08:00,65.8,63.4,30.26,ESE,107,4.0,4.0,92,0.00,,---,0.00,86.00,VWS V14.01,2012-12-03 13:08:00,
2012-12-03 08:09:00,65.8,63.4,30.26,ENE,64,2.0,5.0,92,0.00,,---,0.00,86.00,VWS V14.01,2012-12-03 13:09:00,
2012-12-03 08:10:00,65.9,63.2,30.26,East,85,1.0,5.0,91,0.00,,---,0.00,86.00,VWS V14.01,2012-12-03 13:10:00,
2012-12-03 08:11:00,65.9,63.2,30.26,East,94,1.0,5.0,91,0.00,,---,0.00,86.00,VWS V14.01,2012-12-03 13:11:00,
2012-12-03 08:12:00,65.9,63.5,30.26,East,91,0.0,5.0,92,0.00,,---,0.00,86.00,VWS V14.01,2012-12-03 13:12:00,
2012-12-03 08:13:00,66.0,63.3,30.27,ENE,69,1.0,5.0,91,0.00,,---,0.00,86.00,VWS V14.01,2012-12-03 13:13:00,
2012-12-03 08:14:00,66.0,63.3,30.27,ENE,60,2.0,5.0,91,0.00,,---,0.00,86.00,VWS V14.01,2012-12-03 13:14:00,
2012-12-03 08:15:00,66.0,63.3,30.26,East,100,4.0,5.0,91,0.00,,---,0.00,86.00,VWS V14.01,2012-12-03 13:15:00,
2012-12-03 08:16:00,66.0,63.3,30.27,East,81,5.0,5.0,91,0.00,,---,0.00,86.00,VWS V14.01,2012-12-03 13:16:00,
2012-12-03 08:17:00,66.0,63.3,30.27,NE,53,4.0,5.0,91,0.00,,---,0.00,86.00,VWS V14.01,2012-12-03 13:17:00,
2012-12-03 08:18:00,66.0,63.3,30.27,ESE,105,1.0,5.0,91,0.00,,---,0.00,86.00,VWS V14.01,2012-12-03 13:18:00,
2012-12-03 08:19:00,66.0,63.3,30.27,ENE,75,4.0,5.0,91,0.00,,---,0.00,86.00,VWS V14.01,2012-12-03 13:19:00,
2012-12-03 08:20:00,66.0,63.3,30.27,ESE,112,2.0,5.0,91,0.00,,---,0.00,88.00,VWS V14.01,2012-12-03 13:20:00,
2012-12-03 08:21:00,66.1,63.4,30.27,ENE,60,0.0,5.0,91,0.00,,---,0.00,88.00,VWS V14.01,2012-12-03 13:21:00,
2012-12-03 08:22:00,66.1,63.4,30.27,ESE,122,1.0,5.0,91,0.00,,---,0.00,91.00,VWS V14.01,2012-12-03 13:22:00,
2012-12-03 08:23:00,66.1,63.4,30.27,East,89,1.0,5.0,91,0.00,,---,0.00,93.00,VWS V14.01,2012-12-03 13:23:00,
2012-12-03 08:24:00,66.2,63.5,30.27,ESE,111,3.0,5.0,91,0.00,,---,0.00,97.00,VWS V14.01,2012-12-03 13:24:00,
2012-12-03 08:25:00,66.2,63.5,30.27,WNW,302,0.0,5.0,91,0.00,,---,0.00,98.00,VWS V14.01,2012-12-03 13:25:00,
2012-12-03 08:26:00,66.2,63.5,30.27,East,94,3.0,5.0,91,0.00,,---,0.00,100.00,VWS V14.01,2012-12-03 13:26:00,
2012-12-03 08:27:00,66.3,63.6,30.27,NE,54,4.0,5.0,91,0.00,,---,0.00,100.00,VWS V14.01,2012-12-03 13:27:00,
2012-12-03 08:28:00,66.3,63.6,30.27,ESE,110,5.0,5.0,91,0.00,,---,0.00,102.00,VWS V14.01,2012-12-03 13:28:00,
2012-12-03 08:29:00,66.3,63.6,30.27,ESE,116,5.0,6.0,91,0.00,,---,0.00,104.00,VWS V14.01,2012-12-03 13:29:00,
2012-12-03 08:30:00,66.4,63.7,30.27,NE,42,5.0,6.0,91,0.00,,---,0.00,109.00,VWS V14.01,2012-12-03 13:30:00,
2012-12-03 08:31:00,66.4,63.7,30.27,NE,39,3.0,6.0,91,0.00,,---,0.00,111.00,VWS V14.01,2012-12-03 13:31:00,
2012-12-03 08:32:00,66.5,63.8,30.27,NE,55,1.0,6.0,91,0.00,,---,0.00,111.00,VWS V14.01,2012-12-03 13:32:00,
2012-12-03 08:33:00,66.5,63.8,30.27,NE,55,0.0,6.0,91,0.00,,---,0.00,113.00,VWS V14.01,2012-12-03 13:33:00,
2012-12-03 08:34:00,66.6,63.9,30.27,NE,55,1.0,6.0,91,0.00,,---,0.00,113.00,VWS V14.01,2012-12-03 13:34:00,
2012-12-03 08:35:00,66.7,64.0,30.27,East,97,4.0,6.0,91,0.00,,---,0.00,113.00,VWS V14.01,2012-12-03 13:35:00,
2012-12-03 08:36:00,66.7,63.7,30.27,East,97,0.0,6.0,90,0.00,,---,0.00,114.00,VWS V14.01,2012-12-03 13:36:00,
2012-12-03 08:37:00,66.8,63.8,30.27,ENE,76,3.0,6.0,90,0.00,,---,0.00,114.00,VWS V14.01,2012-12-03 13:37:00,
2012-12-03 08:38:00,66.8,63.8,30.27,NE,53,3.0,6.0,90,0.00,,---,0.00,114.00,VWS V14.01,2012-12-03 13:38:00,
2012-12-03 08:39:00,66.8,63.8,30.27,ENE,77,3.0,6.0,90,0.00,,---,0.00,114.00,VWS V14.01,2012-12-03 13:39:00,
2012-12-03 08:40:00,66.9,63.9,30.27,East,91,2.0,6.0,90,0.00,,---,0.00,114.00,VWS V14.01,2012-12-03 13:40:00,
2012-12-03 08:41:00,66.9,63.9,30.27,NE,47,3.0,6.0,90,0.00,,---,0.00,116.00,VWS V14.01,2012-12-03 13:41:00,
2012-12-03 08:42:00,67.0,64.0,30.27,ESE,107,5.0,6.0,90,0.00,,---,0.00,116.00,VWS V14.01,2012-12-03 13:42:00,
2012-12-03 08:43:00,67.0,64.0,30.27,ENE,71,2.0,6.0,90,0.00,,---,0.00,116.00,VWS V14.01,2012-12-03 13:43:00,
2012-12-03 08:44:00,67.1,64.1,30.27,ESE,102,5.0,6.0,90,0.00,,---,0.00,116.00,VWS V14.01,2012-12-03 13:44:00,
2012-12-03 08:45:00,67.1,64.1,30.27,East,91,3.0,6.0,90,0.00,,---,0.00,118.00,VWS V14.01,2012-12-03 13:45:00,
2012-12-03 08:46:00,67.1,64.1,30.27,East,87,1.0,6.0,90,0.00,,---,0.00,118.00,VWS V14.01,2012-12-03 13:46:00,
2012-12-03 08:47:00,67.2,64.2,30.27,ENE,59,0.0,6.0,90,0.00,,---,0.00,121.00,VWS V14.01,2012-12-03 13:47:00,
2012-12-03 08:48:00,67.3,64.3,30.28,ENE,66,2.0,6.0,90,0.00,,---,0.00,125.00,VWS V14.01,2012-12-03 13:48:00,
2012-12-03 08:49:00,67.4,64.4,30.28,East,79,2.0,6.0,90,0.00,,---,0.00,125.00,VWS V14.01,2012-12-03 13:49:00,
2012-12-03 08:50:00,67.4,64.4,30.28,NE,56,3.0,6.0,90,0.00,,---,0.00,132.00,VWS V14.01,2012-12-03 13:50:00,
2012-12-03 08:51:00,67.5,64.5,30.28,ENE,59,0.0,6.0,90,0.00,,---,0.00,135.00,VWS V14.01,2012-12-03 13:51:00,
2012-12-03 08:52:00,67.5,64.5,30.28,NE,55,0.0,6.0,90,0.00,,---,0.00,139.00,VWS V14.01,2012-12-03 13:52:00,
2012-12-03 08:53:00,67.6,64.6,30.28,ENE,78,3.0,6.0,90,0.00,,---,0.00,139.00,VWS V14.01,2012-12-03 13:53:00,
2012-12-03 08:54:00,67.6,64.2,30.28,East,89,1.0,6.0,89,0.00,,---,0.00,139.00,VWS V14.01,2012-12-03 13:54:00,
2012-12-03 08:55:00,67.7,64.3,30.28,NE,41,2.0,6.0,89,0.00,,---,0.00,149.00,VWS V14.01,2012-12-03 13:55:00,
2012-12-03 08:56:00,67.8,64.4,30.28,ENE,67,0.0,6.0,89,0.00,,---,0.00,153.00,VWS V14.01,2012-12-03 13:56:00,
2012-12-03 08:57:00,67.9,64.5,30.28,East,83,2.0,6.0,89,0.00,,---,0.00,155.00,VWS V14.01,2012-12-03 13:57:00,
2012-12-03 08:58:00,67.9,64.5,30.28,ENE,75,1.0,6.0,89,0.00,,---,0.00,155.00,VWS V14.01,2012-12-03 13:58:00,
2012-12-03 08:59:00,68.0,64.6,30.28,ENE,64,2.0,6.0,89,0.00,,---,0.00,162.00,VWS V14.01,2012-12-03 13:59:00,
2012-12-03 09:00:00,68.1,64.7,30.28,ENE,62,1.0,6.0,89,0.00,,---,0.00,162.00,VWS V14.01,2012-12-03 14:00:00,
2012-12-03 09:01:00,68.1,64.7,30.28,East,94,4.0,4.0,89,0.00,,---,0.00,167.00,VWS V14.01,2012-12-03 14:01:00,
2012-12-03 09:02:00,68.1,64.4,30.28,East,90,4.0,4.0,88,0.00,,---,0.00,171.00,VWS V14.01,2012-12-03 14:02:00,
2012-12-03 09:03:00,68.2,64.8,30.28,NNE,21,2.0,4.0,89,0.00,,---,0.00,174.00,VWS V14.01,2012-12-03 14:03:00,
2012-12-03 09:04:00,68.3,64.6,30.28,ENE,58,0.0,4.0,88,0.00,,---,0.00,179.00,VWS V14.01,2012-12-03 14:04:00,
2012-12-03 09:05:00,68.4,65.0,30.28,ESE,115,3.0,6.0,89,0.00,,---,0.00,179.00,VWS V14.01,2012-12-03 14:05:00,
2012-12-03 09:06:00,68.5,64.8,30.28,East,86,1.0,6.0,88,0.00,,---,0.00,179.00,VWS V14.01,2012-12-03 14:06:00,
2012-12-03 09:07:00,68.5,64.8,30.28,East,86,0.0,6.0,88,0.00,,---,0.00,179.00,VWS V14.01,2012-12-03 14:07:00,
2012-12-03 09:08:00,68.6,65.2,30.28,NE,54,0.0,6.0,89,0.00,,---,0.00,179.00,VWS V14.01,2012-12-03 14:08:00,
2012-12-03 09:09:00,68.7,65.0,30.28,SE,137,4.0,6.0,88,0.00,,---,0.00,181.00,VWS V14.01,2012-12-03 14:09:00,
2012-12-03 09:10:00,68.7,65.0,30.28,ESE,119,6.0,6.0,88,0.00,,---,0.00,181.00,VWS V14.01,2012-12-03 14:10:00,
2012-12-03 09:11:00,68.8,64.8,30.28,NE,54,1.0,6.0,87,0.00,,---,0.00,181.00,VWS V14.01,2012-12-03 14:11:00,
2012-12-03 09:12:00,68.8,65.1,30.28,ENE,60,1.0,6.0,88,0.00,,---,0.00,179.00,VWS V14.01,2012-12-03 14:12:00,
2012-12-03 09:13:00,68.9,65.2,30.28,NE,36,0.0,6.0,88,0.00,,---,0.00,179.00,VWS V14.01,2012-12-03 14:13:00,
2012-12-03 09:14:00,69.0,65.3,30.28,ENE,57,3.0,6.0,88,0.00,,---,0.00,174.00,VWS V14.01,2012-12-03 14:14:00,
2012-12-03 09:15:00,69.0,65.3,30.28,ENE,68,3.0,6.0,88,0.00,,---,0.00,172.00,VWS V14.01,2012-12-03 14:15:00,
2012-12-03 09:16:00,69.1,65.1,30.28,ENE,68,1.0,6.0,87,0.00,,---,0.00,167.00,VWS V14.01,2012-12-03 14:16:00,
2012-12-03 09:17:00,69.1,65.1,30.28,ENE,64,2.0,6.0,87,0.00,,---,0.00,167.00,VWS V14.01,2012-12-03 14:17:00,
2012-12-03 09:18:00,69.1,65.1,30.28,NE,55,1.0,8.0,87,0.00,,---,0.00,165.00,VWS V14.01,2012-12-03 14:18:00,
2012-12-03 09:19:00,69.1,65.1,30.28,ESE,102,3.0,8.0,87,0.00,,---,0.00,165.00,VWS V14.01,2012-12-03 14:19:00,
2012-12-03 09:20:00,69.2,65.2,30.28,ESE,117,2.0,8.0,87,0.00,,---,0.00,169.00,VWS V14.01,2012-12-03 14:20:00,
2012-12-03 09:21:00,69.2,65.2,30.28,East,82,0.0,8.0,87,0.00,,---,0.00,174.00,VWS V14.01,2012-12-03 14:21:00,
2012-12-03 09:22:00,69.3,65.3,30.28,East,82,1.0,8.0,87,0.00,,---,0.00,185.00,VWS V14.01,2012-12-03 14:22:00,
2012-12-03 09:23:00,69.4,65.4,30.28,ENE,60,2.0,8.0,87,0.00,,---,0.00,200.00,VWS V14.01,2012-12-03 14:23:00,
2012-12-03 09:24:00,69.4,65.4,30.28,SE,134,1.0,8.0,87,0.00,,---,0.00,230.00,VWS V14.01,2012-12-03 14:24:00,
2012-12-03 09:25:00,69.5,65.5,30.28,East,88,4.0,8.0,87,0.00,,---,0.00,295.00,VWS V14.01,2012-12-03 14:25:00,
2012-12-03 09:26:00,69.6,65.6,30.28,NE,56,2.0,8.0,87,0.00,,---,0.00,334.00,VWS V14.01,2012-12-03 14:26:00,
2012-12-03 09:27:00,69.7,65.7,30.28,NNE,18,0.0,8.0,87,0.00,,---,0.00,397.00,VWS V14.01,2012-12-03 14:27:00,
2012-12-03 09:28:00,69.8,65.4,30.28,ENE,75,2.0,8.0,86,0.00,,---,0.00,410.00,VWS V14.01,2012-12-03 14:28:00,
2012-12-03 09:29:00,70.0,65.6,30.28,East,79,4.0,8.0,86,0.00,,---,0.00,202.00,VWS V14.01,2012-12-03 14:29:00,
2012-12-03 09:30:00,70.1,65.4,30.28,East,82,1.0,8.0,85,0.00,,---,0.00,192.00,VWS V14.01,2012-12-03 14:30:00,
2012-12-03 09:31:00,70.3,65.9,30.28,SSE,148,0.0,8.0,86,0.00,,---,0.00,183.00,VWS V14.01,2012-12-03 14:31:00,
2012-12-03 09:32:00,70.4,66.0,30.28,East,79,2.0,8.0,86,0.00,,---,0.00,174.00,VWS V14.01,2012-12-03 14:32:00,
2012-12-03 09:33:00,70.5,65.8,30.28,East,94,1.0,8.0,85,0.00,,---,0.00,174.00,VWS V14.01,2012-12-03 14:33:00,
2012-12-03 09:34:00,70.5,65.8,30.28,East,97,4.0,8.0,85,0.00,,---,0.00,160.00,VWS V14.01,2012-12-03 14:34:00,
2012-12-03 09:35:00,70.5,65.4,30.28,East,82,3.0,8.0,84,0.00,,---,0.00,156.00,VWS V14.01,2012-12-03 14:35:00,
2012-12-03 09:36:00,70.5,65.4,30.28,NNE,26,2.0,8.0,84,0.00,,---,0.00,156.00,VWS V14.01,2012-12-03 14:36:00,
2012-12-03 09:37:00,70.5,65.4,30.29,SE,126,0.0,8.0,84,0.00,,---,0.00,156.00,VWS V14.01,2012-12-03 14:37:00,
2012-12-03 09:38:00,70.4,65.3,30.29,ENE,58,3.0,8.0,84,0.00,,---,0.00,156.00,VWS V14.01,2012-12-03 14:38:00,
2012-12-03 09:39:00,70.4,65.3,30.29,ESE,112,5.0,8.0,84,0.00,,---,0.00,156.00,VWS V14.01,2012-12-03 14:39:00,
2012-12-03 09:40:00,70.5,65.4,30.29,ESE,106,1.0,8.0,84,0.00,,---,0.00,195.00,VWS V14.01,2012-12-03 14:40:00,
2012-12-03 09:41:00,70.5,65.8,30.29,SE,132,2.0,8.0,85,0.00,,---,0.00,195.00,VWS V14.01,2012-12-03 14:41:00,
2012-12-03 09:42:00,70.6,65.9,30.29,ESE,120,4.0,8.0,85,0.00,,---,0.00,195.00,VWS V14.01,2012-12-03 14:42:00,
2012-12-03 09:43:00,70.7,65.6,30.29,East,92,2.0,8.0,84,0.00,,---,0.00,158.00,VWS V14.01,2012-12-03 14:43:00,
2012-12-03 09:44:00,70.7,65.6,30.29,ENE,75,3.0,8.0,84,0.00,,---,0.00,158.00,VWS V14.01,2012-12-03 14:44:00,
2012-12-03 09:45:00,70.8,65.4,30.29,SSW,208,2.0,8.0,83,0.00,,---,0.00,141.00,VWS V14.01,2012-12-03 14:45:00,
2012-12-03 09:46:00,70.9,65.8,30.29,ENE,64,2.0,8.0,84,0.00,,---,0.00,142.00,VWS V14.01,2012-12-03 14:46:00,
2012-12-03 09:47:00,71.0,65.6,30.29,East,98,1.0,8.0,83,0.00,,---,0.00,146.00,VWS V14.01,2012-12-03 14:47:00,
2012-12-03 09:48:00,71.0,65.6,30.29,SSE,166,0.0,8.0,83,0.00,,---,0.00,148.00,VWS V14.01,2012-12-03 14:48:00,
2012-12-03 09:49:00,71.0,65.6,30.29,East,98,2.0,8.0,83,0.00,,---,0.00,153.00,VWS V14.01,2012-12-03 14:49:00,
2012-12-03 09:50:00,70.9,65.5,30.29,East,97,4.0,8.0,83,0.00,,---,0.00,156.00,VWS V14.01,2012-12-03 14:50:00,
2012-12-03 09:51:00,70.9,65.5,30.29,ENE,70,2.0,8.0,83,0.00,,---,0.00,167.00,VWS V14.01,2012-12-03 14:51:00,
2012-12-03 09:52:00,70.9,65.5,30.29,East,99,1.0,8.0,83,0.00,,---,0.00,172.00,VWS V14.01,2012-12-03 14:52:00,
2012-12-03 09:53:00,70.9,65.5,30.29,SSE,149,2.0,8.0,83,0.00,,---,0.00,178.00,VWS V14.01,2012-12-03 14:53:00,
2012-12-03 09:54:00,70.9,65.5,30.29,North,2,1.0,8.0,83,0.00,,---,0.00,186.00,VWS V14.01,2012-12-03 14:54:00,
2012-12-03 09:55:00,71.0,65.9,30.29,North,2,0.0,8.0,84,0.00,,---,0.00,186.00,VWS V14.01,2012-12-03 14:55:00,
2012-12-03 09:56:00,71.0,65.9,30.29,East,84,4.0,8.0,84,0.00,,---,0.00,207.00,VWS V14.01,2012-12-03 14:56:00,
2012-12-03 09:57:00,71.0,65.6,30.29,SSE,151,1.0,8.0,83,0.00,,---,0.00,243.00,VWS V14.01,2012-12-03 14:57:00,
2012-12-03 09:58:00,71.1,65.7,30.29,SE,146,1.0,8.0,83,0.00,,---,0.00,334.00,VWS V14.01,2012-12-03 14:58:00,
2012-12-03 09:59:00,71.1,65.7,30.29,ESE,102,3.0,8.0,83,0.00,,---,0.00,334.00,VWS V14.01,2012-12-03 14:59:00,
2012-12-03 10:00:00,71.2,65.8,30.29,ESE,109,3.0,8.0,83,0.00,,---,0.00,348.00,VWS V14.01,2012-12-03 15:00:00,
2012-12-03 10:01:00,71.3,65.9,30.29,ENE,58,1.0,5.0,83,0.00,,---,0.00,434.00,VWS V14.01,2012-12-03 15:01:00,
2012-12-03 10:02:00,71.4,66.0,30.29,ENE,75,2.0,5.0,83,0.00,,---,0.00,338.00,VWS V14.01,2012-12-03 15:02:00,
2012-12-03 10:03:00,71.5,65.7,30.28,ENE,70,0.0,5.0,82,0.00,,---,0.00,329.00,VWS V14.01,2012-12-03 15:03:00,
2012-12-03 10:04:00,71.7,65.9,30.29,ENE,70,1.0,5.0,82,0.00,,---,0.00,327.00,VWS V14.01,2012-12-03 15:04:00,
2012-12-03 10:05:00,71.9,66.5,30.28,ESE,110,0.0,5.0,83,0.00,,---,0.00,322.00,VWS V14.01,2012-12-03 15:05:00,
2012-12-03 10:06:00,72.2,66.4,30.28,ENE,70,0.0,5.0,82,0.00,,---,0.00,322.00,VWS V14.01,2012-12-03 15:06:00,
2012-12-03 10:07:00,72.4,66.6,30.28,ENE,70,0.0,5.0,82,0.00,,---,0.00,322.00,VWS V14.01,2012-12-03 15:07:00,
2012-12-03 10:08:00,72.7,67.2,30.29,ENE,72,0.0,5.0,83,0.00,,---,0.00,322.00,VWS V14.01,2012-12-03 15:08:00,
2012-12-03 10:09:00,72.8,66.6,30.28,ENE,72,0.0,5.0,81,0.00,,---,0.00,281.00,VWS V14.01,2012-12-03 15:09:00,
2012-12-03 10:10:00,72.8,66.6,30.28,ENE,72,3.0,5.0,81,0.00,,---,0.00,269.00,VWS V14.01,2012-12-03 15:10:00,
2012-12-03 10:11:00,72.7,66.2,30.29,ENE,67,3.0,5.0,80,0.00,,---,0.00,272.00,VWS V14.01,2012-12-03 15:11:00,
2012-12-03 10:12:00,72.6,66.1,30.28,East,92,2.0,5.0,80,0.00,,---,0.00,267.00,VWS V14.01,2012-12-03 15:12:00,
2012-12-03 10:13:00,72.6,66.4,30.28,East,92,0.0,5.0,81,0.00,,---,0.00,264.00,VWS V14.01,2012-12-03 15:13:00,
2012-12-03 10:14:00,72.6,66.8,30.28,ENE,74,0.0,5.0,82,0.00,,---,0.00,299.00,VWS V14.01,2012-12-03 15:14:00,
2012-12-03 10:15:00,72.6,66.4,30.28,ENE,74,1.0,5.0,81,0.00,,---,0.00,272.00,VWS V14.01,2012-12-03 15:15:00,
2012-12-03 10:16:00,72.6,66.8,30.28,ENE,74,0.0,5.0,82,0.00,,---,0.00,272.00,VWS V14.01,2012-12-03 15:16:00,
2012-12-03 10:17:00,72.6,66.8,30.28,ENE,74,0.0,5.0,82,0.00,,---,0.00,272.00,VWS V14.01,2012-12-03 15:17:00,
2012-12-03 10:18:00,72.6,66.4,30.28,NE,52,3.0,5.0,81,0.00,,---,0.00,271.00,VWS V14.01,2012-12-03 15:18:00,
2012-12-03 10:19:00,72.6,66.1,30.28,NE,52,0.0,5.0,80,0.00,,---,0.00,271.00,VWS V14.01,2012-12-03 15:19:00,
2012-12-03 10:20:00,72.7,66.5,30.28,NE,48,0.0,5.0,81,0.00,,---,0.00,271.00,VWS V14.01,2012-12-03 15:20:00,
2012-12-03 10:21:00,72.7,66.9,30.28,NE,48,0.0,5.0,82,0.00,,---,0.00,271.00,VWS V14.01,2012-12-03 15:21:00,
2012-12-03 10:22:00,72.6,66.4,30.28,North,4,0.0,5.0,81,0.00,,---,0.00,292.00,VWS V14.01,2012-12-03 15:22:00,
2012-12-03 10:23:00,72.5,66.3,30.28,East,84,1.0,5.0,81,0.00,,---,0.00,297.00,VWS V14.01,2012-12-03 15:23:00,
2012-12-03 10:24:00,72.6,66.1,30.28,ESE,118,3.0,5.0,80,0.00,,---,0.00,320.00,VWS V14.01,2012-12-03 15:24:00,
2012-12-03 10:25:00,72.6,66.1,30.28,ESE,110,2.0,5.0,80,0.00,,---,0.00,320.00,VWS V14.01,2012-12-03 15:25:00,
2012-12-03 10:26:00,72.6,65.7,30.28,ENE,63,3.0,5.0,79,0.00,,---,0.00,443.00,VWS V14.01,2012-12-03 15:26:00,
2012-12-03 10:27:00,72.7,65.8,30.28,ENE,67,0.0,5.0,79,0.00,,---,0.00,504.00,VWS V14.01,2012-12-03 15:27:00,
2012-12-03 10:28:00,72.9,66.7,30.28,East,85,2.0,5.0,81,0.00,,---,0.00,504.00,VWS V14.01,2012-12-03 15:28:00,
2012-12-03 10:29:00,73.1,66.2,30.28,East,91,4.0,5.0,79,0.00,,---,0.00,578.00,VWS V14.01,2012-12-03 15:29:00,
2012-12-03 10:30:00,73.3,66.4,30.28,East,88,2.0,5.0,79,0.00,,---,0.00,585.00,VWS V14.01,2012-12-03 15:30:00,
2012-12-03 10:31:00,73.5,66.6,30.28,East,88,2.0,5.0,79,0.00,,---,0.00,649.00,VWS V14.01,2012-12-03 15:31:00,
2012-12-03 10:32:00,73.6,66.7,30.28,ESE,119,2.0,5.0,79,0.00,,---,0.00,649.00,VWS V14.01,2012-12-03 15:32:00,
2012-12-03 10:33:00,73.8,67.2,30.28,NE,39,2.0,5.0,80,0.00,,---,0.00,381.00,VWS V14.01,2012-12-03 15:33:00,
2012-12-03 10:34:00,73.9,67.3,30.28,SE,125,0.0,5.0,80,0.00,,---,0.00,381.00,VWS V14.01,2012-12-03 15:34:00,
2012-12-03 10:35:00,73.9,65.9,30.28,SE,146,1.0,5.0,76,0.00,,---,0.00,355.00,VWS V14.01,2012-12-03 15:35:00,
2012-12-03 10:36:00,73.9,66.6,30.28,SSE,154,0.0,5.0,78,0.00,,---,0.00,350.00,VWS V14.01,2012-12-03 15:36:00,
2012-12-03 10:37:00,74.0,67.4,30.28,SSE,154,0.0,5.0,80,0.00,,---,0.00,346.00,VWS V14.01,2012-12-03 15:37:00,
2012-12-03 10:38:00,74.3,67.7,30.28,SSE,154,0.0,5.0,80,0.00,,---,0.00,364.00,VWS V14.01,2012-12-03 15:38:00,
2012-12-03 10:39:00,74.3,67.7,30.28,SSE,154,0.0,5.0,80,0.00,,---,0.00,381.00,VWS V14.01,2012-12-03 15:39:00,
2012-12-03 10:40:00,74.2,67.3,30.28,SSE,154,0.0,5.0,79,0.00,,---,0.00,436.00,VWS V14.01,2012-12-03 15:40:00,
2012-12-03 10:41:00,74.2,67.3,30.28,SSE,154,0.0,5.0,79,0.00,,---,0.00,355.00,VWS V14.01,2012-12-03 15:41:00,
2012-12-03 10:42:00,74.1,67.2,30.28,SSE,154,0.0,5.0,79,0.00,,---,0.00,330.00,VWS V14.01,2012-12-03 15:42:00,
2012-12-03 10:43:00,74.1,66.8,30.28,SSE,154,0.0,5.0,78,0.00,,---,0.00,330.00,VWS V14.01,2012-12-03 15:43:00,
2012-12-03 10:44:00,74.0,67.1,30.28,SSE,154,0.0,5.0,79,0.00,,---,0.00,327.00,VWS V14.01,2012-12-03 15:44:00,
2012-12-03 10:45:00,73.9,67.0,30.28,SSE,154,0.0,5.0,79,0.00,,---,0.00,323.00,VWS V14.01,2012-12-03 15:45:00,
2012-12-03 10:46:00,73.9,67.7,30.28,East,79,1.0,5.0,81,0.00,,---,0.00,323.00,VWS V14.01,2012-12-03 15:46:00,
2012-12-03 10:47:00,73.9,67.3,30.28,NE,36,0.0,5.0,80,0.00,,---,0.00,323.00,VWS V14.01,2012-12-03 15:47:00,
2012-12-03 10:48:00,73.9,67.0,30.28,NE,37,0.0,5.0,79,0.00,,---,0.00,348.00,VWS V14.01,2012-12-03 15:48:00,
2012-12-03 10:49:00,73.9,66.6,30.28,ESE,102,3.0,5.0,78,0.00,,---,0.00,357.00,VWS V14.01,2012-12-03 15:49:00,
2012-12-03 10:50:00,74.0,66.7,30.28,ESE,123,2.0,5.0,78,0.00,,---,0.00,350.00,VWS V14.01,2012-12-03 15:50:00,
2012-12-03 10:51:00,74.0,66.0,30.28,East,89,6.0,6.0,76,0.00,,---,0.00,353.00,VWS V14.01,2012-12-03 15:51:00,
2012-12-03 10:52:00,74.0,66.0,30.28,East,85,4.0,7.0,76,0.00,,---,0.00,394.00,VWS V14.01,2012-12-03 15:52:00,
2012-12-03 10:53:00,74.0,65.6,30.28,East,81,3.0,7.0,75,0.00,,---,0.00,466.00,VWS V14.01,2012-12-03 15:53:00,
2012-12-03 10:54:00,74.0,65.6,30.28,East,86,6.0,7.0,75,0.00,,---,0.00,415.00,VWS V14.01,2012-12-03 15:54:00,
2012-12-03 10:55:00,74.1,66.1,30.28,East,93,3.0,7.0,76,0.00,,---,0.00,420.00,VWS V14.01,2012-12-03 15:55:00,
2012-12-03 10:56:00,74.1,65.7,30.28,ENE,72,4.0,7.0,75,0.00,,---,0.00,367.00,VWS V14.01,2012-12-03 15:56:00,
2012-12-03 10:57:00,74.2,66.2,30.28,East,95,1.0,7.0,76,0.00,,---,0.00,367.00,VWS V14.01,2012-12-03 15:57:00,
2012-12-03 10:58:00,74.2,66.2,30.28,NE,44,4.0,7.0,76,0.00,,---,0.00,325.00,VWS V14.01,2012-12-03 15:58:00,
2012-12-03 10:59:00,74.3,66.2,30.28,ENE,78,6.0,7.0,76,0.00,,---,0.00,313.00,VWS V14.01,2012-12-03 15:59:00,
2012-12-03 11:00:00,74.3,65.9,30.28,East,94,2.0,7.0,75,0.00,,---,0.00,313.00,VWS V14.01,2012-12-03 16:00:00,
2012-12-03 11:01:00,74.3,65.9,30.28,East,91,4.0,4.0,75,0.00,,---,0.00,306.00,VWS V14.01,2012-12-03 16:01:00,
2012-12-03 11:02:00,74.2,65.8,30.28,ENE,64,1.0,6.0,75,0.00,,---,0.00,311.00,VWS V14.01,2012-12-03 16:02:00,
2012-12-03 11:03:00,74.2,65.8,30.28,East,100,1.0,6.0,75,0.00,,---,0.00,311.00,VWS V14.01,2012-12-03 16:03:00,
2012-12-03 11:04:00,74.2,65.8,30.28,East,100,1.0,6.0,75,0.00,,---,0.00,323.00,VWS V14.01,2012-12-03 16:04:00,
2012-12-03 11:05:00,74.2,65.8,30.28,East,100,0.0,6.0,75,0.00,,---,0.00,323.00,VWS V14.01,2012-12-03 16:05:00,
2012-12-03 11:06:00,74.4,66.3,30.28,East,84,1.0,6.0,76,0.00,,---,0.00,323.00,VWS V14.01,2012-12-03 16:06:00,
2012-12-03 11:07:00,74.5,66.4,30.27,East,87,1.0,6.0,76,0.00,,---,0.00,325.00,VWS V14.01,2012-12-03 16:07:00,
2012-12-03 11:08:00,74.5,66.1,30.27,SW,215,2.0,6.0,75,0.00,,---,0.00,327.00,VWS V14.01,2012-12-03 16:08:00,
2012-12-03 11:09:00,74.5,66.1,30.27,ENE,77,0.0,6.0,75,0.00,,---,0.00,332.00,VWS V14.01,2012-12-03 16:09:00,
2012-12-03 11:10:00,74.5,66.1,30.27,NE,55,0.0,6.0,75,0.00,,---,0.00,339.00,VWS V14.01,2012-12-03 16:10:00,
2012-12-03 11:11:00,74.5,66.1,30.27,ENE,64,1.0,6.0,75,0.00,,---,0.00,350.00,VWS V14.01,2012-12-03 16:11:00,
2012-12-03 11:12:00,74.5,66.1,30.27,ENE,70,0.0,6.0,75,0.00,,---,0.00,360.00,VWS V14.01,2012-12-03 16:12:00,
2012-12-03 11:13:00,74.5,65.7,30.27,ESE,108,1.0,6.0,74,0.00,,---,0.00,394.00,VWS V14.01,2012-12-03 16:13:00,
2012-12-03 11:14:00,74.5,65.7,30.27,SE,146,1.0,6.0,74,0.00,,---,0.00,373.00,VWS V14.01,2012-12-03 16:14:00,
2012-12-03 11:15:00,74.6,65.8,30.27,SE,128,5.0,6.0,74,0.00,,---,0.00,360.00,VWS V14.01,2012-12-03 16:15:00,
2012-12-03 11:16:00,74.6,66.2,30.27,SE,145,0.0,6.0,75,0.00,,---,0.00,353.00,VWS V14.01,2012-12-03 16:16:00,
2012-12-03 11:17:00,74.6,66.2,30.27,SE,124,2.0,6.0,75,0.00,,---,0.00,348.00,VWS V14.01,2012-12-03 16:17:00,
2012-12-03 11:18:00,74.7,65.9,30.27,ESE,116,0.0,6.0,74,0.00,,---,0.00,348.00,VWS V14.01,2012-12-03 16:18:00,
2012-12-03 11:19:00,74.8,66.3,30.27,NE,52,2.0,6.0,75,0.00,,---,0.00,360.00,VWS V14.01,2012-12-03 16:19:00,
2012-12-03 11:20:00,74.8,66.0,30.27,ESE,102,0.0,6.0,74,0.00,,---,0.00,383.00,VWS V14.01,2012-12-03 16:20:00,
2012-12-03 11:21:00,74.7,65.9,30.27,ESE,102,0.0,6.0,74,0.00,,---,0.00,396.00,VWS V14.01,2012-12-03 16:21:00,
2012-12-03 11:22:00,74.8,66.0,30.27,East,80,1.0,6.0,74,0.00,,---,0.00,413.00,VWS V14.01,2012-12-03 16:22:00,
2012-12-03 11:23:00,74.9,66.8,30.27,NE,48,1.0,6.0,76,0.00,,---,0.00,399.00,VWS V14.01,2012-12-03 16:23:00,
2012-12-03 11:24:00,75.0,66.6,30.27,ENE,64,0.0,6.0,75,0.00,,---,0.00,385.00,VWS V14.01,2012-12-03 16:24:00,
2012-12-03 11:25:00,75.1,66.6,30.26,NNE,29,0.0,6.0,75,0.00,,---,0.00,385.00,VWS V14.01,2012-12-03 16:25:00,
2012-12-03 11:26:00,75.1,67.0,30.26,ENE,66,1.0,6.0,76,0.00,,---,0.00,357.00,VWS V14.01,2012-12-03 16:26:00,
2012-12-03 11:27:00,75.1,66.2,30.26,NNE,29,0.0,6.0,74,0.00,,---,0.00,343.00,VWS V14.01,2012-12-03 16:27:00,
2012-12-03 11:28:00,75.1,66.6,30.26,NNE,29,0.0,6.0,75,0.00,,---,0.00,343.00,VWS V14.01,2012-12-03 16:28:00,
2012-12-03 11:29:00,75.0,66.6,30.26,ESE,112,3.0,6.0,75,0.00,,---,0.00,348.00,VWS V14.01,2012-12-03 16:29:00,
2012-12-03 11:30:00,75.0,65.8,30.27,SW,220,2.0,6.0,73,0.00,,---,0.00,373.00,VWS V14.01,2012-12-03 16:30:00,
2012-12-03 11:31:00,75.0,65.8,30.26,East,82,2.0,6.0,73,0.00,,---,0.00,436.00,VWS V14.01,2012-12-03 16:31:00,
2012-12-03 11:32:00,75.1,65.9,30.26,ENE,62,6.0,6.0,73,0.00,,---,0.00,418.00,VWS V14.01,2012-12-03 16:32:00,
2012-12-03 11:33:00,75.1,65.9,30.26,NE,54,3.0,6.0,73,0.00,,---,0.00,452.00,VWS V14.01,2012-12-03 16:33:00,
2012-12-03 11:34:00,75.1,65.5,30.26,ENE,63,2.0,6.0,72,0.00,,---,0.00,469.00,VWS V14.01,2012-12-03 16:34:00,
2012-12-03 11:35:00,75.3,65.7,30.26,ENE,71,5.0,8.0,72,0.00,,---,0.00,471.00,VWS V14.01,2012-12-03 16:35:00,
2012-12-03 11:36:00,75.3,65.3,30.26,SE,127,3.0,8.0,71,0.00,,---,0.00,506.00,VWS V14.01,2012-12-03 16:36:00,
2012-12-03 11:37:00,75.4,65.8,30.26,ESE,119,4.0,8.0,72,0.00,,---,0.00,506.00,VWS V14.01,2012-12-03 16:37:00,
2012-12-03 11:38:00,75.4,65.3,30.26,SE,128,1.0,8.0,71,0.00,,---,0.00,506.00,VWS V14.01,2012-12-03 16:38:00,
2012-12-03 11:39:00,75.6,66.3,30.26,NE,50,0.0,8.0,73,0.00,,---,0.00,487.00,VWS V14.01,2012-12-03 16:39:00,
2012-12-03 11:40:00,75.8,66.5,30.26,ESE,122,1.0,8.0,73,0.00,,---,0.00,487.00,VWS V14.01,2012-12-03 16:40:00,
2012-12-03 11:41:00,75.9,65.8,30.26,NE,41,3.0,8.0,71,0.00,,---,0.00,413.00,VWS V14.01,2012-12-03 16:41:00,
2012-12-03 11:42:00,75.9,66.2,30.26,East,81,5.0,8.0,72,0.00,,---,0.00,388.00,VWS V14.01,2012-12-03 16:42:00,
2012-12-03 11:43:00,75.9,65.8,30.25,ENE,72,3.0,8.0,71,0.00,,---,0.00,373.00,VWS V14.01,2012-12-03 16:43:00,
2012-12-03 11:44:00,75.8,65.3,30.25,North,360,0.0,8.0,70,0.00,,---,0.00,364.00,VWS V14.01,2012-12-03 16:44:00,
2012-12-03 11:45:00,75.7,66.0,30.25,NE,54,3.0,8.0,72,0.00,,---,0.00,366.00,VWS V14.01,2012-12-03 16:45:00,
2012-12-03 11:46:00,75.6,65.9,30.25,SE,141,0.0,8.0,72,0.00,,---,0.00,366.00,VWS V14.01,2012-12-03 16:46:00,
2012-12-03 11:47:00,75.7,66.4,30.25,NE,43,1.0,8.0,73,0.00,,---,0.00,366.00,VWS V14.01,2012-12-03 16:47:00,
2012-12-03 11:48:00,75.7,66.4,30.25,ENE,75,5.0,8.0,73,0.00,,---,0.00,381.00,VWS V14.01,2012-12-03 16:48:00,
2012-12-03 11:49:00,75.8,66.1,30.25,ENE,77,2.0,8.0,72,0.00,,---,0.00,403.00,VWS V14.01,2012-12-03 16:49:00,
2012-12-03 11:50:00,75.8,65.7,30.25,SE,124,3.0,8.0,71,0.00,,---,0.00,373.00,VWS V14.01,2012-12-03 16:50:00,
2012-12-03 11:51:00,75.8,65.7,30.25,ESE,102,1.0,8.0,71,0.00,,---,0.00,369.00,VWS V14.01,2012-12-03 16:51:00,
2012-12-03 11:52:00,75.9,66.6,30.25,East,98,3.0,8.0,73,0.00,,---,0.00,369.00,VWS V14.01,2012-12-03 16:52:00,
2012-12-03 11:53:00,75.9,65.8,30.25,SE,131,4.0,8.0,71,0.00,,---,0.00,348.00,VWS V14.01,2012-12-03 16:53:00,
2012-12-03 11:54:00,76.0,65.5,30.25,South,176,3.0,8.0,70,0.00,,---,0.00,343.00,VWS V14.01,2012-12-03 16:54:00,
2012-12-03 11:55:00,76.0,65.5,30.25,South,172,3.0,8.0,70,0.00,,---,0.00,334.00,VWS V14.01,2012-12-03 16:55:00,
2012-12-03 11:56:00,76.0,65.5,30.25,SE,139,8.0,8.0,70,0.00,,---,0.00,323.00,VWS V14.01,2012-12-03 16:56:00,
2012-12-03 11:57:00,76.0,65.1,30.25,SE,140,3.0,8.0,69,0.00,,---,0.00,320.00,VWS V14.01,2012-12-03 16:57:00,
2012-12-03 11:58:00,75.9,65.4,30.25,South,186,0.0,8.0,70,0.00,,---,0.00,322.00,VWS V14.01,2012-12-03 16:58:00,
2012-12-03 11:59:00,75.9,65.8,30.25,East,85,2.0,8.0,71,0.00,,---,0.00,322.00,VWS V14.01,2012-12-03 16:59:00,
2012-12-03 12:00:00,76.0,66.3,30.25,ENE,69,1.0,8.0,72,0.00,,---,0.00,348.00,VWS V14.01,2012-12-03 17:00:00,
2012-12-03 12:01:00,76.0,65.9,30.25,ENE,77,5.0,5.0,71,0.00,,---,0.00,348.00,VWS V14.01,2012-12-03 17:01:00,
2012-12-03 12:02:00,76.0,65.5,30.25,East,85,3.0,7.0,70,0.00,,---,0.00,367.00,VWS V14.01,2012-12-03 17:02:00,
2012-12-03 12:03:00,75.9,65.4,30.24,ESE,102,1.0,7.0,70,0.00,,---,0.00,380.00,VWS V14.01,2012-12-03 17:03:00,
2012-12-03 12:04:00,75.9,65.4,30.24,East,93,1.0,7.0,70,0.00,,---,0.00,394.00,VWS V14.01,2012-12-03 17:04:00,
2012-12-03 12:05:00,75.9,65.4,30.24,SSE,148,2.0,7.0,70,0.00,,---,0.00,410.00,VWS V14.01,2012-12-03 17:05:00,
2012-12-03 12:06:00,75.8,65.3,30.24,ESE,119,0.0,7.0,70,0.00,,---,0.00,434.00,VWS V14.01,2012-12-03 17:06:00,
2012-12-03 12:07:00,75.7,64.8,30.24,East,84,5.0,7.0,69,0.00,,---,0.00,425.00,VWS V14.01,2012-12-03 17:07:00,
2012-12-03 12:08:00,75.7,65.2,30.24,ENE,65,1.0,7.0,70,0.00,,---,0.00,427.00,VWS V14.01,2012-12-03 17:08:00,
2012-12-03 12:09:00,75.7,65.2,30.24,ENE,64,1.0,7.0,70,0.00,,---,0.00,422.00,VWS V14.01,2012-12-03 17:09:00,
2012-12-03 12:10:00,75.9,66.2,30.24,ENE,64,0.0,7.0,72,0.00,,---,0.00,422.00,VWS V14.01,2012-12-03 17:10:00,
2012-12-03 12:11:00,76.0,66.3,30.24,ENE,63,2.0,7.0,72,0.00,,---,0.00,417.00,VWS V14.01,2012-12-03 17:11:00,
2012-12-03 12:12:00,76.1,66.8,30.24,ENE,59,1.0,7.0,73,0.00,,---,0.00,427.00,VWS V14.01,2012-12-03 17:12:00,
2012-12-03 12:13:00,76.1,66.4,30.24,ENE,72,3.0,7.0,72,0.00,,---,0.00,427.00,VWS V14.01,2012-12-03 17:13:00,
2012-12-03 12:14:00,76.2,66.5,30.24,North,355,1.0,7.0,72,0.00,,---,0.00,427.00,VWS V14.01,2012-12-03 17:14:00,
2012-12-03 12:15:00,76.2,66.5,30.24,East,83,0.0,7.0,72,0.00,,---,0.00,454.00,VWS V14.01,2012-12-03 17:15:00,
2012-12-03 12:16:00,76.2,65.7,30.24,NE,48,0.0,7.0,70,0.00,,---,0.00,454.00,VWS V14.01,2012-12-03 17:16:00,
2012-12-03 12:17:00,76.2,66.1,30.24,ESE,104,2.0,7.0,71,0.00,,---,0.00,424.00,VWS V14.01,2012-12-03 17:17:00,
2012-12-03 12:18:00,76.3,66.2,30.24,ENE,74,2.0,7.0,71,0.00,,---,0.00,411.00,VWS V14.01,2012-12-03 17:18:00,
2012-12-03 12:19:00,76.4,66.3,30.24,ENE,64,3.0,7.0,71,0.00,,---,0.00,415.00,VWS V14.01,2012-12-03 17:19:00,
2012-12-03 12:20:00,76.5,66.0,30.24,ENE,62,3.0,7.0,70,0.00,,---,0.00,387.00,VWS V14.01,2012-12-03 17:20:00,
2012-12-03 12:21:00,76.5,65.6,30.24,East,92,3.0,7.0,69,0.00,,---,0.00,352.00,VWS V14.01,2012-12-03 17:21:00,
2012-12-03 12:22:00,76.5,65.6,30.23,NW,318,0.0,7.0,69,0.00,,---,0.00,352.00,VWS V14.01,2012-12-03 17:22:00,
2012-12-03 12:23:00,76.5,65.6,30.23,ESE,114,1.0,7.0,69,0.00,,---,0.00,415.00,VWS V14.01,2012-12-03 17:23:00,
2012-12-03 12:24:00,76.5,65.2,30.23,East,79,4.0,7.0,68,0.00,,---,0.00,415.00,VWS V14.01,2012-12-03 17:24:00,
2012-12-03 12:25:00,76.5,65.6,30.23,NE,50,2.0,7.0,69,0.00,,---,0.00,531.00,VWS V14.01,2012-12-03 17:25:00,
2012-12-03 12:26:00,76.6,65.7,30.23,East,94,2.0,7.0,69,0.00,,---,0.00,531.00,VWS V14.01,2012-12-03 17:26:00,
2012-12-03 12:27:00,76.7,65.8,30.23,East,79,3.0,7.0,69,0.00,,---,0.00,531.00,VWS V14.01,2012-12-03 17:27:00,
2012-12-03 12:28:00,76.7,65.3,30.23,ENE,77,0.0,7.0,68,0.00,,---,0.00,531.00,VWS V14.01,2012-12-03 17:28:00,
2012-12-03 12:29:00,76.8,65.9,30.23,East,94,1.0,7.0,69,0.00,,---,0.00,779.00,VWS V14.01,2012-12-03 17:29:00,
2012-12-03 12:30:00,77.0,65.2,30.23,East,81,4.0,7.0,67,0.00,,---,0.00,749.00,VWS V14.01,2012-12-03 17:30:00,
2012-12-03 12:31:00,77.1,65.3,30.23,ENE,77,1.0,7.0,67,0.00,,---,0.00,726.00,VWS V14.01,2012-12-03 17:31:00,
2012-12-03 12:32:00,77.1,65.3,30.23,ESE,114,1.0,7.0,67,0.00,,---,0.00,726.00,VWS V14.01,2012-12-03 17:32:00,
2012-12-03 12:33:00,77.2,65.4,30.23,SSE,156,3.0,7.0,67,0.00,,---,0.00,719.00,VWS V14.01,2012-12-03 17:33:00,
2012-12-03 12:34:00,77.4,66.0,30.23,East,97,4.0,7.0,68,0.00,,---,0.00,728.00,VWS V14.01,2012-12-03 17:34:00,
2012-12-03 12:35:00,77.6,66.2,30.23,ENE,77,1.0,7.0,68,0.00,,---,0.00,745.00,VWS V14.01,2012-12-03 17:35:00,
2012-12-03 12:36:00,77.8,66.0,30.23,ESE,113,0.0,7.0,67,0.00,,---,0.00,754.00,VWS V14.01,2012-12-03 17:36:00,
2012-12-03 12:37:00,77.9,66.1,30.23,ESE,107,5.0,7.0,67,0.00,,---,0.00,754.00,VWS V14.01,2012-12-03 17:37:00,
2012-12-03 12:38:00,78.0,65.7,30.23,ESE,112,6.0,7.0,66,0.00,,---,0.00,141.00,VWS V14.01,2012-12-03 17:38:00,
2012-12-03 12:39:00,77.8,65.1,30.23,East,93,5.0,8.0,65,0.00,,---,0.00,146.00,VWS V14.01,2012-12-03 17:39:00,
2012-12-03 12:40:00,77.6,63.1,30.23,SE,136,1.0,8.0,61,0.00,,---,0.00,137.00,VWS V14.01,2012-12-03 17:40:00,
2012-12-03 12:41:00,77.5,63.0,30.23,SE,127,1.0,8.0,61,0.00,,---,0.00,128.00,VWS V14.01,2012-12-03 17:41:00,
2012-12-03 12:42:00,77.5,63.0,30.23,SE,127,1.0,8.0,61,0.00,,---,0.00,128.00,VWS V14.01,2012-12-03 17:42:00,
2012-12-03 12:43:00,76.7,63.6,30.23,ESE,104,3.0,8.0,64,0.00,,---,0.00,120.00,VWS V14.01,2012-12-03 17:43:00,
2012-12-03 12:44:00,76.4,64.2,30.23,ESE,122,2.0,8.0,66,0.00,,---,0.00,120.00,VWS V14.01,2012-12-03 17:44:00,
2012-12-03 12:45:00,76.2,63.6,30.23,East,89,0.0,8.0,65,0.00,,---,0.00,120.00,VWS V14.01,2012-12-03 17:45:00,
2012-12-03 12:46:00,76.0,63.4,30.22,SE,127,0.0,8.0,65,0.00,,---,0.00,155.00,VWS V14.01,2012-12-03 17:46:00,
2012-12-03 12:47:00,76.0,63.8,30.22,South,178,4.0,8.0,66,0.00,,---,0.00,731.00,VWS V14.01,2012-12-03 17:47:00,
2012-12-03 12:48:00,76.2,63.6,30.22,South,185,2.0,8.0,65,0.00,,---,0.00,719.00,VWS V14.01,2012-12-03 17:48:00,
2012-12-03 12:49:00,76.4,63.3,30.22,SE,142,1.0,8.0,64,0.00,,---,0.00,703.00,VWS V14.01,2012-12-03 17:49:00,
2012-12-03 12:50:00,76.8,64.2,30.22,East,101,3.0,8.0,65,0.00,,---,0.00,696.00,VWS V14.01,2012-12-03 17:50:00,
2012-12-03 12:51:00,77.0,63.9,30.22,ESE,114,1.0,8.0,64,0.00,,---,0.00,694.00,VWS V14.01,2012-12-03 17:51:00,
2012-12-03 12:52:00,77.3,64.2,30.22,ENE,74,1.0,8.0,64,0.00,,---,0.00,684.00,VWS V14.01,2012-12-03 17:52:00,
2012-12-03 12:53:00,77.5,63.9,30.22,East,99,4.0,8.0,63,0.00,,---,0.00,680.00,VWS V14.01,2012-12-03 17:53:00,
2012-12-03 12:54:00,77.6,64.0,30.22,SE,134,2.0,8.0,63,0.00,,---,0.00,684.00,VWS V14.01,2012-12-03 17:54:00,
2012-12-03 12:55:00,77.8,64.7,30.22,SE,137,1.0,8.0,64,0.00,,---,0.00,689.00,VWS V14.01,2012-12-03 17:55:00,
2012-12-03 12:56:00,78.2,64.6,30.22,SSE,158,5.0,8.0,63,0.00,,---,0.00,696.00,VWS V14.01,2012-12-03 17:56:00,
2012-12-03 12:57:00,78.4,64.8,30.22,South,185,0.0,8.0,63,0.00,,---,0.00,696.00,VWS V14.01,2012-12-03 17:57:00,
2012-12-03 12:58:00,78.5,64.4,30.22,SSW,193,3.0,8.0,62,0.00,,---,0.00,714.00,VWS V14.01,2012-12-03 17:58:00,
2012-12-03 12:59:00,78.6,64.5,30.22,SSW,203,6.0,8.0,62,0.00,,---,0.00,722.00,VWS V14.01,2012-12-03 17:59:00,
2012-12-03 13:00:00,78.6,64.5,30.22,SE,127,2.0,8.0,62,0.00,,---,0.00,780.00,VWS V14.01,2012-12-03 18:00:00,
2012-12-03 13:01:00,78.6,64.5,30.22,South,183,4.0,4.0,62,0.00,,---,0.00,800.00,VWS V14.01,2012-12-03 18:01:00,
2012-12-03 13:02:00,78.6,64.5,30.22,SE,143,2.0,6.0,62,0.00,,---,0.00,838.00,VWS V14.01,2012-12-03 18:02:00,
2012-12-03 13:03:00,78.6,64.5,30.22,SSW,212,2.0,6.0,62,0.00,,---,0.00,838.00,VWS V14.01,2012-12-03 18:03:00,
2012-12-03 13:04:00,78.7,64.6,30.21,SE,139,2.0,6.0,62,0.00,,---,0.00,838.00,VWS V14.01,2012-12-03 18:04:00,
2012-12-03 13:05:00,78.8,64.7,30.21,SE,137,1.0,6.0,62,0.00,,---,0.00,921.00,VWS V14.01,2012-12-03 18:05:00,
2012-12-03 13:06:00,78.8,64.2,30.21,North,7,1.0,6.0,61,0.00,,---,0.00,937.00,VWS V14.01,2012-12-03 18:06:00,
2012-12-03 13:07:00,78.9,65.2,30.21,SSE,158,2.0,6.0,63,0.00,,---,0.00,937.00,VWS V14.01,2012-12-03 18:07:00,
2012-12-03 13:08:00,79.1,65.0,30.21,East,84,4.0,6.0,62,0.00,,---,0.00,937.00,VWS V14.01,2012-12-03 18:08:00,
2012-12-03 13:09:00,79.3,64.2,30.21,SE,127,0.0,6.0,60,0.00,,---,0.00,937.00,VWS V14.01,2012-12-03 18:09:00,
2012-12-03 13:10:00,79.3,63.3,30.21,SSE,168,6.0,8.0,58,0.00,,---,0.00,271.00,VWS V14.01,2012-12-03 18:10:00,
2012-12-03 13:11:00,79.1,63.1,30.21,South,181,3.0,8.0,58,0.00,,---,0.00,229.00,VWS V14.01,2012-12-03 18:11:00,
2012-12-03 13:12:00,79.0,63.0,30.21,East,97,4.0,8.0,58,0.00,,---,0.00,200.00,VWS V14.01,2012-12-03 18:12:00,
2012-12-03 13:13:00,78.8,62.8,30.21,ENE,75,2.0,8.0,58,0.00,,---,0.00,197.00,VWS V14.01,2012-12-03 18:13:00,
2012-12-03 13:14:00,78.5,62.5,30.21,ENE,78,2.0,8.0,58,0.00,,---,0.00,197.00,VWS V14.01,2012-12-03 18:14:00,
2012-12-03 13:15:00,78.3,62.8,30.21,East,95,0.0,8.0,59,0.00,,---,0.00,197.00,VWS V14.01,2012-12-03 18:15:00,
2012-12-03 13:16:00,78.1,63.6,30.21,ESE,115,0.0,8.0,61,0.00,,---,0.00,197.00,VWS V14.01,2012-12-03 18:16:00,
2012-12-03 13:17:00,78.0,63.5,30.21,East,80,2.0,8.0,61,0.00,,---,0.00,197.00,VWS V14.01,2012-12-03 18:17:00,
2012-12-03 13:18:00,78.0,64.4,30.21,NE,41,7.0,8.0,63,0.00,,---,0.00,176.00,VWS V14.01,2012-12-03 18:18:00,
2012-12-03 13:19:00,77.9,64.3,30.21,ENE,75,6.0,8.0,63,0.00,,---,0.00,144.00,VWS V14.01,2012-12-03 18:19:00,
2012-12-03 13:20:00,77.7,64.6,30.21,NE,35,3.0,8.0,64,0.00,,---,0.00,132.00,VWS V14.01,2012-12-03 18:20:00,
2012-12-03 13:21:00,77.5,64.8,30.21,East,87,2.0,8.0,65,0.00,,---,0.00,127.00,VWS V14.01,2012-12-03 18:21:00,
2012-12-03 13:22:00,77.3,64.2,30.21,NE,41,1.0,8.0,64,0.00,,---,0.00,127.00,VWS V14.01,2012-12-03 18:22:00,
2012-12-03 13:23:00,77.1,64.9,30.21,NE,43,1.0,8.0,66,0.00,,---,0.00,130.00,VWS V14.01,2012-12-03 18:23:00,
2012-12-03 13:24:00,76.9,65.1,30.21,East,85,0.0,8.0,67,0.00,,---,0.00,134.00,VWS V14.01,2012-12-03 18:24:00,
2012-12-03 13:25:00,76.7,64.5,30.21,NNE,25,4.0,8.0,66,0.00,,---,0.00,130.00,VWS V14.01,2012-12-03 18:25:00,
2012-12-03 13:26:00,76.6,64.8,30.21,East,82,0.0,8.0,67,0.00,,---,0.00,128.00,VWS V14.01,2012-12-03 18:26:00,
2012-12-03 13:27:00,76.5,65.6,30.21,NE,56,1.0,8.0,69,0.00,,---,0.00,134.00,VWS V14.01,2012-12-03 18:27:00,
2012-12-03 13:28:00,76.3,65.0,30.21,East,91,3.0,8.0,68,0.00,,---,0.00,146.00,VWS V14.01,2012-12-03 18:28:00,
2012-12-03 13:29:00,76.2,64.9,30.20,ENE,58,2.0,8.0,68,0.00,,---,0.00,146.00,VWS V14.01,2012-12-03 18:29:00,
2012-12-03 13:30:00,76.2,64.9,30.20,ESE,106,2.0,8.0,68,0.00,,---,0.00,737.00,VWS V14.01,2012-12-03 18:30:00,
2012-12-03 13:31:00,76.3,65.0,30.20,East,83,3.0,8.0,68,0.00,,---,0.00,729.00,VWS V14.01,2012-12-03 18:31:00,
2012-12-03 13:32:00,76.7,64.5,30.20,ENE,65,0.0,8.0,66,0.00,,---,0.00,731.00,VWS V14.01,2012-12-03 18:32:00,
2012-12-03 13:33:00,77.1,64.4,30.20,East,84,1.0,8.0,65,0.00,,---,0.00,731.00,VWS V14.01,2012-12-03 18:33:00,
2012-12-03 13:34:00,77.3,63.7,30.20,NE,37,1.0,8.0,63,0.00,,---,0.00,165.00,VWS V14.01,2012-12-03 18:34:00,
2012-12-03 13:35:00,77.5,63.9,30.20,East,98,1.0,8.0,63,0.00,,---,0.00,162.00,VWS V14.01,2012-12-03 18:35:00,
2012-12-03 13:36:00,77.5,64.4,30.20,ESE,110,1.0,8.0,64,0.00,,---,0.00,158.00,VWS V14.01,2012-12-03 18:36:00,
2012-12-03 13:37:00,77.5,63.9,30.20,ESE,104,2.0,8.0,63,0.00,,---,0.00,156.00,VWS V14.01,2012-12-03 18:37:00,
2012-12-03 13:38:00,77.4,63.4,30.20,East,101,2.0,8.0,62,0.00,,---,0.00,156.00,VWS V14.01,2012-12-03 18:38:00,
2012-12-03 13:39:00,77.3,62.8,30.20,SE,140,2.0,8.0,61,0.00,,---,0.00,165.00,VWS V14.01,2012-12-03 18:39:00,
2012-12-03 13:40:00,77.1,62.6,30.20,East,100,3.0,8.0,61,0.00,,---,0.00,165.00,VWS V14.01,2012-12-03 18:40:00,
2012-12-03 13:41:00,77.0,63.0,30.20,East,87,4.0,8.0,62,0.00,,---,0.00,181.00,VWS V14.01,2012-12-03 18:41:00,
2012-12-03 13:42:00,76.9,63.4,30.20,ESE,110,1.0,8.0,63,0.00,,---,0.00,185.00,VWS V14.01,2012-12-03 18:42:00,
2012-12-03 13:43:00,76.9,63.4,30.20,East,97,3.0,8.0,63,0.00,,---,0.00,183.00,VWS V14.01,2012-12-03 18:43:00,
2012-12-03 13:44:00,76.9,62.9,30.20,East,89,3.0,8.0,62,0.00,,---,0.00,183.00,VWS V14.01,2012-12-03 18:44:00,
2012-12-03 13:45:00,76.9,62.9,30.20,ENE,60,2.0,8.0,62,0.00,,---,0.00,223.00,VWS V14.01,2012-12-03 18:45:00,
2012-12-03 13:46:00,76.9,62.9,30.20,East,91,2.0,8.0,62,0.00,,---,0.00,223.00,VWS V14.01,2012-12-03 18:46:00,
2012-12-03 13:47:00,77.0,63.0,30.20,ENE,70,1.0,8.0,62,0.00,,---,0.00,223.00,VWS V14.01,2012-12-03 18:47:00,
2012-12-03 13:48:00,77.1,63.1,30.20,East,97,0.0,8.0,62,0.00,,---,0.00,223.00,VWS V14.01,2012-12-03 18:48:00,
2012-12-03 13:49:00,77.3,63.7,30.20,ESE,105,3.0,8.0,63,0.00,,---,0.00,223.00,VWS V14.01,2012-12-03 18:49:00,
2012-12-03 13:50:00,77.5,63.9,30.20,ENE,70,0.0,8.0,63,0.00,,---,0.00,223.00,VWS V14.01,2012-12-03 18:50:00,
2012-12-03 13:51:00,77.7,64.6,30.20,ESE,108,0.0,8.0,64,0.00,,---,0.00,223.00,VWS V14.01,2012-12-03 18:51:00,
2012-12-03 13:52:00,77.6,64.9,30.20,East,99,1.0,8.0,65,0.00,,---,0.00,127.00,VWS V14.01,2012-12-03 18:52:00,
2012-12-03 13:53:00,77.5,64.8,30.20,NE,49,2.0,8.0,65,0.00,,---,0.00,127.00,VWS V14.01,2012-12-03 18:53:00,
2012-12-03 13:54:00,77.4,64.7,30.20,NE,42,0.0,8.0,65,0.00,,---,0.00,127.00,VWS V14.01,2012-12-03 18:54:00,
2012-12-03 13:55:00,77.2,64.1,30.20,ENE,69,4.0,8.0,64,0.00,,---,0.00,127.00,VWS V14.01,2012-12-03 18:55:00,
2012-12-03 13:56:00,77.1,64.4,30.20,ENE,59,3.0,8.0,65,0.00,,---,0.00,127.00,VWS V14.01,2012-12-03 18:56:00,
2012-12-03 13:57:00,76.9,64.7,30.20,ESE,104,4.0,8.0,66,0.00,,---,0.00,158.00,VWS V14.01,2012-12-03 18:57:00,
2012-12-03 13:58:00,76.9,64.7,30.20,ENE,73,2.0,8.0,66,0.00,,---,0.00,158.00,VWS V14.01,2012-12-03 18:58:00,
2012-12-03 13:59:00,77.0,64.3,30.20,ENE,66,0.0,8.0,65,0.00,,---,0.00,158.00,VWS V14.01,2012-12-03 18:59:00,
2012-12-03 14:00:00,77.1,65.7,30.20,North,6,0.0,8.0,68,0.00,,---,0.00,244.00,VWS V14.01,2012-12-03 19:00:00,
2012-12-03 14:01:00,77.3,65.5,30.20,North,6,0.0,1.0,67,0.00,,---,0.00,213.00,VWS V14.01,2012-12-03 19:01:00,
2012-12-03 14:02:00,77.3,65.1,30.20,ENE,58,1.0,5.0,66,0.00,,---,0.00,162.00,VWS V14.01,2012-12-03 19:02:00,
2012-12-03 14:03:00,77.3,65.1,30.20,East,95,2.0,5.0,66,0.00,,---,0.00,171.00,VWS V14.01,2012-12-03 19:03:00,
2012-12-03 14:04:00,77.2,64.5,30.20,East,82,5.0,5.0,65,0.00,,---,0.00,181.00,VWS V14.01,2012-12-03 19:04:00,
2012-12-03 14:05:00,77.1,64.0,30.20,North,353,0.0,5.0,64,0.00,,---,0.00,181.00,VWS V14.01,2012-12-03 19:05:00,
2012-12-03 14:06:00,77.0,64.8,30.20,North,4,0.0,5.0,66,0.00,,---,0.00,181.00,VWS V14.01,2012-12-03 19:06:00,
2012-12-03 14:07:00,77.0,64.8,30.20,North,3,0.0,5.0,66,0.00,,---,0.00,181.00,VWS V14.01,2012-12-03 19:07:00,
2012-12-03 14:08:00,77.0,65.2,30.19,ESE,121,2.0,5.0,67,0.00,,---,0.00,204.00,VWS V14.01,2012-12-03 19:08:00,
2012-12-03 14:09:00,77.0,63.9,30.19,ENE,64,1.0,5.0,64,0.00,,---,0.00,163.00,VWS V14.01,2012-12-03 19:09:00,
2012-12-03 14:10:00,77.0,63.9,30.19,East,97,1.0,5.0,64,0.00,,---,0.00,153.00,VWS V14.01,2012-12-03 19:10:00,
2012-12-03 14:11:00,77.0,63.5,30.19,East,97,0.0,5.0,63,0.00,,---,0.00,151.00,VWS V14.01,2012-12-03 19:11:00,
2012-12-03 14:12:00,77.0,64.3,30.19,East,97,0.0,5.0,65,0.00,,---,0.00,151.00,VWS V14.01,2012-12-03 19:12:00,
2012-12-03 14:13:00,76.9,64.7,30.19,East,97,0.0,5.0,66,0.00,,---,0.00,151.00,VWS V14.01,2012-12-03 19:13:00,
2012-12-03 14:14:00,76.9,63.8,30.19,East,100,0.0,5.0,64,0.00,,---,0.00,153.00,VWS V14.01,2012-12-03 19:14:00,
2012-12-03 14:15:00,76.9,63.8,30.19,ENE,60,0.0,5.0,64,0.00,,---,0.00,158.00,VWS V14.01,2012-12-03 19:15:00,
2012-12-03 14:16:00,77.0,64.8,30.19,NE,36,4.0,6.0,66,0.00,,---,0.00,156.00,VWS V14.01,2012-12-03 19:16:00,
2012-12-03 14:17:00,77.0,63.9,30.19,East,94,2.0,6.0,64,0.00,,---,0.00,151.00,VWS V14.01,2012-12-03 19:17:00,
2012-12-03 14:18:00,76.9,64.2,30.19,ESE,106,6.0,7.0,65,0.00,,---,0.00,151.00,VWS V14.01,2012-12-03 19:18:00,
2012-12-03 14:19:00,76.9,63.4,30.19,ENE,57,2.0,7.0,63,0.00,,---,0.00,142.00,VWS V14.01,2012-12-03 19:19:00,
2012-12-03 14:20:00,76.9,63.8,30.19,NE,43,2.0,7.0,64,0.00,,---,0.00,139.00,VWS V14.01,2012-12-03 19:20:00,
2012-12-03 14:21:00,76.8,63.7,30.19,ENE,63,4.0,7.0,64,0.00,,---,0.00,139.00,VWS V14.01,2012-12-03 19:21:00,
2012-12-03 14:22:00,76.7,63.6,30.19,ESE,118,2.0,7.0,64,0.00,,---,0.00,141.00,VWS V14.01,2012-12-03 19:22:00,
2012-12-03 14:23:00,76.7,63.6,30.19,NNE,29,1.0,7.0,64,0.00,,---,0.00,146.00,VWS V14.01,2012-12-03 19:23:00,
2012-12-03 14:24:00,76.6,63.5,30.19,ENE,65,2.0,7.0,64,0.00,,---,0.00,146.00,VWS V14.01,2012-12-03 19:24:00,
2012-12-03 14:25:00,76.6,63.5,30.19,East,81,4.0,7.0,64,0.00,,---,0.00,146.00,VWS V14.01,2012-12-03 19:25:00,
2012-12-03 14:26:00,76.6,63.5,30.19,East,83,1.0,7.0,64,0.00,,---,0.00,141.00,VWS V14.01,2012-12-03 19:26:00,
2012-12-03 14:27:00,76.5,63.4,30.19,East,79,0.0,7.0,64,0.00,,---,0.00,137.00,VWS V14.01,2012-12-03 19:27:00,
2012-12-03 14:28:00,76.5,63.9,30.19,SSE,158,0.0,7.0,65,0.00,,---,0.00,132.00,VWS V14.01,2012-12-03 19:28:00,
2012-12-03 14:29:00,76.5,63.9,30.19,SSE,154,0.0,7.0,65,0.00,,---,0.00,125.00,VWS V14.01,2012-12-03 19:29:00,
2012-12-03 14:30:00,76.5,63.9,30.19,SSE,154,0.0,7.0,65,0.00,,---,0.00,120.00,VWS V14.01,2012-12-03 19:30:00,
2012-12-03 14:31:00,76.4,63.8,30.19,SSE,154,0.0,7.0,65,0.00,,---,0.00,116.00,VWS V14.01,2012-12-03 19:31:00,
2012-12-03 14:32:00,76.3,64.6,30.19,SSE,152,1.0,7.0,67,0.00,,---,0.00,109.00,VWS V14.01,2012-12-03 19:32:00,
2012-12-03 14:33:00,76.2,64.0,30.19,SSE,152,0.0,7.0,66,0.00,,---,0.00,98.00,VWS V14.01,2012-12-03 19:33:00,
2012-12-03 14:34:00,76.1,64.4,30.19,NE,45,1.0,7.0,67,0.00,,---,0.00,98.00,VWS V14.01,2012-12-03 19:34:00,
2012-12-03 14:35:00,76.0,63.8,30.19,ENE,58,5.0,7.0,66,0.00,,---,0.00,93.00,VWS V14.01,2012-12-03 19:35:00,
2012-12-03 14:36:00,76.0,63.4,30.19,East,89,2.0,7.0,65,0.00,,---,0.00,91.00,VWS V14.01,2012-12-03 19:36:00,
2012-12-03 14:37:00,75.9,63.7,30.19,ENE,70,0.0,7.0,66,0.00,,---,0.00,93.00,VWS V14.01,2012-12-03 19:37:00,
2012-12-03 14:38:00,75.9,63.3,30.19,ENE,70,2.0,7.0,65,0.00,,---,0.00,113.00,VWS V14.01,2012-12-03 19:38:00,
2012-12-03 14:39:00,75.8,63.6,30.19,NE,41,1.0,7.0,66,0.00,,---,0.00,162.00,VWS V14.01,2012-12-03 19:39:00,
2012-12-03 14:40:00,75.8,63.6,30.19,East,92,1.0,7.0,66,0.00,,---,0.00,162.00,VWS V14.01,2012-12-03 19:40:00,
2012-12-03 14:41:00,75.8,64.1,30.19,East,83,4.0,7.0,67,0.00,,---,0.00,162.00,VWS V14.01,2012-12-03 19:41:00,
2012-12-03 14:42:00,76.0,63.4,30.19,East,80,3.0,9.0,65,0.00,,---,0.00,162.00,VWS V14.01,2012-12-03 19:42:00,
2012-12-03 14:43:00,76.3,63.7,30.19,ESE,108,1.0,9.0,65,0.00,,---,0.00,510.00,VWS V14.01,2012-12-03 19:43:00,
2012-12-03 14:44:00,76.7,63.6,30.19,SE,137,0.0,9.0,64,0.00,,---,0.00,506.00,VWS V14.01,2012-12-03 19:44:00,
2012-12-03 14:45:00,77.1,64.0,30.19,NE,41,3.0,9.0,64,0.00,,---,0.00,506.00,VWS V14.01,2012-12-03 19:45:00,
2012-12-03 14:46:00,77.4,62.9,30.19,East,93,2.0,9.0,61,0.00,,---,0.00,193.00,VWS V14.01,2012-12-03 19:46:00,
2012-12-03 14:47:00,77.5,63.0,30.19,East,86,2.0,9.0,61,0.00,,---,0.00,193.00,VWS V14.01,2012-12-03 19:47:00,
2012-12-03 14:48:00,77.6,63.1,30.19,SSE,159,2.0,9.0,61,0.00,,---,0.00,485.00,VWS V14.01,2012-12-03 19:48:00,
2012-12-03 14:49:00,77.9,62.9,30.19,South,183,3.0,9.0,60,0.00,,---,0.00,485.00,VWS V14.01,2012-12-03 19:49:00,
2012-12-03 14:50:00,78.1,63.1,30.19,ESE,112,2.0,9.0,60,0.00,,---,0.00,478.00,VWS V14.01,2012-12-03 19:50:00,
2012-12-03 14:51:00,78.2,63.2,30.19,ESE,112,4.0,9.0,60,0.00,,---,0.00,482.00,VWS V14.01,2012-12-03 19:51:00,
2012-12-03 14:52:00,78.4,63.4,30.19,NNE,23,1.0,9.0,60,0.00,,---,0.00,480.00,VWS V14.01,2012-12-03 19:52:00,
2012-12-03 14:53:00,78.3,62.8,30.19,NE,56,2.0,9.0,59,0.00,,---,0.00,496.00,VWS V14.01,2012-12-03 19:53:00,
2012-12-03 14:54:00,78.3,62.8,30.19,NNE,15,2.0,9.0,59,0.00,,---,0.00,506.00,VWS V14.01,2012-12-03 19:54:00,
2012-12-03 14:55:00,78.3,62.8,30.19,ENE,75,2.0,9.0,59,0.00,,---,0.00,517.00,VWS V14.01,2012-12-03 19:55:00,
2012-12-03 14:56:00,78.3,62.8,30.18,SSE,167,3.0,9.0,59,0.00,,---,0.00,482.00,VWS V14.01,2012-12-03 19:56:00,
2012-12-03 14:57:00,78.4,62.9,30.19,ESE,119,7.0,9.0,59,0.00,,---,0.00,529.00,VWS V14.01,2012-12-03 19:57:00,
2012-12-03 14:58:00,78.5,63.5,30.18,South,174,3.0,9.0,60,0.00,,---,0.00,517.00,VWS V14.01,2012-12-03 19:58:00,
2012-12-03 14:59:00,78.5,62.5,30.18,ESE,112,3.0,9.0,58,0.00,,---,0.00,517.00,VWS V14.01,2012-12-03 19:59:00,
2012-12-03 15:00:00,78.6,63.1,30.18,East,98,4.0,9.0,59,0.00,,---,0.00,508.00,VWS V14.01,2012-12-03 20:00:00,
2012-12-03 15:01:00,78.7,62.7,30.18,SE,129,8.0,8.0,58,0.00,,---,0.00,487.00,VWS V14.01,2012-12-03 20:01:00,
2012-12-03 15:02:00,78.7,62.2,30.18,ESE,120,4.0,8.0,57,0.00,,---,0.00,478.00,VWS V14.01,2012-12-03 20:02:00,
2012-12-03 15:03:00,78.7,62.2,30.18,SE,125,5.0,8.0,57,0.00,,---,0.00,455.00,VWS V14.01,2012-12-03 20:03:00,
2012-12-03 15:04:00,78.7,61.7,30.18,ESE,117,1.0,8.0,56,0.00,,---,0.00,455.00,VWS V14.01,2012-12-03 20:04:00,
2012-12-03 15:05:00,78.8,61.8,30.18,NNE,29,5.0,11.0,56,0.00,,---,0.00,455.00,VWS V14.01,2012-12-03 20:05:00,
2012-12-03 15:06:00,78.7,61.2,30.18,East,99,6.0,11.0,55,0.00,,---,0.00,455.00,VWS V14.01,2012-12-03 20:06:00,
2012-12-03 15:07:00,78.6,61.6,30.19,East,80,5.0,11.0,56,0.00,,---,0.00,455.00,VWS V14.01,2012-12-03 20:07:00,
2012-12-03 15:08:00,78.5,61.5,30.18,ENE,60,4.0,11.0,56,0.00,,---,0.00,455.00,VWS V14.01,2012-12-03 20:08:00,
2012-12-03 15:09:00,78.3,61.8,30.18,ENE,60,4.0,11.0,57,0.00,,---,0.00,455.00,VWS V14.01,2012-12-03 20:09:00,
2012-12-03 15:10:00,78.1,61.6,30.18,East,79,5.0,11.0,57,0.00,,---,0.00,63.00,VWS V14.01,2012-12-03 20:10:00,
2012-12-03 15:11:00,78.0,61.5,30.19,NE,45,2.0,11.0,57,0.00,,---,0.00,54.00,VWS V14.01,2012-12-03 20:11:00,
2012-12-03 15:12:00,77.9,61.5,30.19,East,86,3.0,11.0,57,0.00,,---,0.00,49.00,VWS V14.01,2012-12-03 20:12:00,
2012-12-03 15:13:00,77.7,61.3,30.18,ENE,64,4.0,11.0,57,0.00,,---,0.00,47.00,VWS V14.01,2012-12-03 20:13:00,
2012-12-03 15:14:00,77.5,61.6,30.19,NE,47,0.0,11.0,58,0.00,,---,0.00,47.00,VWS V14.01,2012-12-03 20:14:00,
2012-12-03 15:15:00,77.3,62.3,30.19,ESE,108,2.0,11.0,60,0.00,,---,0.00,49.00,VWS V14.01,2012-12-03 20:15:00,
2012-12-03 15:16:00,77.1,61.7,30.18,ENE,64,1.0,11.0,59,0.00,,---,0.00,49.00,VWS V14.01,2012-12-03 20:16:00,
2012-12-03 15:17:00,76.9,61.5,30.18,ENE,64,3.0,11.0,59,0.00,,---,0.00,53.00,VWS V14.01,2012-12-03 20:17:00,
2012-12-03 15:18:00,76.8,62.3,30.18,East,100,0.0,11.0,61,0.00,,---,0.00,53.00,VWS V14.01,2012-12-03 20:18:00,
2012-12-03 15:19:00,76.7,62.2,30.18,East,89,2.0,11.0,61,0.00,,---,0.00,339.00,VWS V14.01,2012-12-03 20:19:00,
2012-12-03 15:20:00,76.7,61.8,30.18,North,4,0.0,11.0,60,0.00,,---,0.00,339.00,VWS V14.01,2012-12-03 20:20:00,
2012-12-03 15:21:00,76.6,62.2,30.18,ESE,104,3.0,11.0,61,0.00,,---,0.00,49.00,VWS V14.01,2012-12-03 20:21:00,
2012-12-03 15:22:00,76.7,61.8,30.18,ESE,118,3.0,11.0,60,0.00,,---,0.00,49.00,VWS V14.01,2012-12-03 20:22:00,
2012-12-03 15:23:00,76.7,61.8,30.18,SE,135,1.0,11.0,60,0.00,,---,0.00,49.00,VWS V14.01,2012-12-03 20:23:00,
2012-12-03 15:24:00,76.7,61.8,30.18,ENE,77,6.0,11.0,60,0.00,,---,0.00,49.00,VWS V14.01,2012-12-03 20:24:00,
2012-12-03 15:25:00,76.7,61.8,30.18,ESE,118,3.0,11.0,60,0.00,,---,0.00,49.00,VWS V14.01,2012-12-03 20:25:00,
2012-12-03 15:26:00,76.7,61.3,30.18,NE,47,3.0,11.0,59,0.00,,---,0.00,49.00,VWS V14.01,2012-12-03 20:26:00,
2012-12-03 15:27:00,76.8,61.4,30.18,East,89,6.0,11.0,59,0.00,,---,0.00,49.00,VWS V14.01,2012-12-03 20:27:00,
2012-12-03 15:28:00,76.9,61.5,30.18,East,101,3.0,11.0,59,0.00,,---,0.00,49.00,VWS V14.01,2012-12-03 20:28:00,
2012-12-03 15:29:00,77.0,61.1,30.18,East,87,1.0,11.0,58,0.00,,---,0.00,121.00,VWS V14.01,2012-12-03 20:29:00,
2012-12-03 15:30:00,77.1,61.2,30.18,NNE,13,1.0,11.0,58,0.00,,---,0.00,88.00,VWS V14.01,2012-12-03 20:30:00,
2012-12-03 15:31:00,77.1,61.7,30.18,ENE,67,7.0,11.0,59,0.00,,---,0.00,67.00,VWS V14.01,2012-12-03 20:31:00,
2012-12-03 15:32:00,77.2,61.3,30.18,SSE,151,0.0,11.0,58,0.00,,---,0.00,67.00,VWS V14.01,2012-12-03 20:32:00,
2012-12-03 15:33:00,77.3,60.9,30.18,SE,131,2.0,11.0,57,0.00,,---,0.00,65.00,VWS V14.01,2012-12-03 20:33:00,
2012-12-03 15:34:00,77.5,61.1,30.18,South,170,3.0,11.0,57,0.00,,---,0.00,70.00,VWS V14.01,2012-12-03 20:34:00,
2012-12-03 15:35:00,77.5,60.1,30.18,SSE,152,0.0,11.0,55,0.00,,---,0.00,84.00,VWS V14.01,2012-12-03 20:35:00,
2012-12-03 15:36:00,77.6,60.2,30.18,ESE,105,5.0,11.0,55,0.00,,---,0.00,62.00,VWS V14.01,2012-12-03 20:36:00,
2012-12-03 15:37:00,77.8,60.4,30.18,South,174,2.0,11.0,55,0.00,,---,0.00,63.00,VWS V14.01,2012-12-03 20:37:00,
2012-12-03 15:38:00,77.8,60.9,30.18,SSE,160,2.0,11.0,56,0.00,,---,0.00,60.00,VWS V14.01,2012-12-03 20:38:00,
2012-12-03 15:39:00,77.9,60.5,30.18,East,96,2.0,11.0,55,0.00,,---,0.00,65.00,VWS V14.01,2012-12-03 20:39:00,
2012-12-03 15:40:00,78.0,61.0,30.18,SE,125,3.0,11.0,56,0.00,,---,0.00,81.00,VWS V14.01,2012-12-03 20:40:00,
2012-12-03 15:41:00,78.1,61.1,30.18,East,97,2.0,11.0,56,0.00,,---,0.00,114.00,VWS V14.01,2012-12-03 20:41:00,
2012-12-03 15:42:00,78.1,61.1,30.18,East,82,2.0,11.0,56,0.00,,---,0.00,114.00,VWS V14.01,2012-12-03 20:42:00,
2012-12-03 15:43:00,78.1,61.1,30.18,SE,134,3.0,11.0,56,0.00,,---,0.00,72.00,VWS V14.01,2012-12-03 20:43:00,
2012-12-03 15:44:00,78.0,61.0,30.18,South,185,2.0,11.0,56,0.00,,---,0.00,54.00,VWS V14.01,2012-12-03 20:44:00,
2012-12-03 15:45:00,78.0,61.0,30.18,SSE,147,2.0,11.0,56,0.00,,---,0.00,53.00,VWS V14.01,2012-12-03 20:45:00,
2012-12-03 15:46:00,78.0,61.0,30.18,SSW,198,3.0,11.0,56,0.00,,---,0.00,49.00,VWS V14.01,2012-12-03 20:46:00,
2012-12-03 15:47:00,78.1,61.1,30.18,SE,133,1.0,11.0,56,0.00,,---,0.00,47.00,VWS V14.01,2012-12-03 20:47:00,
2012-12-03 15:48:00,78.1,61.1,30.18,East,98,1.0,11.0,56,0.00,,---,0.00,47.00,VWS V14.01,2012-12-03 20:48:00,
2012-12-03 15:49:00,78.1,61.1,30.18,South,189,2.0,11.0,56,0.00,,---,0.00,47.00,VWS V14.01,2012-12-03 20:49:00,
2012-12-03 15:50:00,78.1,61.1,30.18,South,181,1.0,11.0,56,0.00,,---,0.00,47.00,VWS V14.01,2012-12-03 20:50:00,
2012-12-03 15:51:00,78.1,61.6,30.18,South,185,1.0,11.0,57,0.00,,---,0.00,47.00,VWS V14.01,2012-12-03 20:51:00,
2012-12-03 15:52:00,78.1,61.6,30.18,WNW,293,0.0,11.0,57,0.00,,---,0.00,47.00,VWS V14.01,2012-12-03 20:52:00,
2012-12-03 15:53:00,78.1,61.1,30.18,WNW,293,0.0,11.0,56,0.00,,---,0.00,47.00,VWS V14.01,2012-12-03 20:53:00,
2012-12-03 15:54:00,78.1,61.6,30.18,East,87,3.0,11.0,57,0.00,,---,0.00,47.00,VWS V14.01,2012-12-03 20:54:00,
2012-12-03 15:55:00,78.1,61.1,30.18,SSE,152,4.0,11.0,56,0.00,,---,0.00,56.00,VWS V14.01,2012-12-03 20:55:00,
2012-12-03 15:56:00,78.0,61.0,30.18,ESE,121,3.0,11.0,56,0.00,,---,0.00,79.00,VWS V14.01,2012-12-03 20:56:00,
2012-12-03 15:57:00,78.0,60.5,30.18,East,86,0.0,11.0,55,0.00,,---,0.00,79.00,VWS V14.01,2012-12-03 20:57:00,
2012-12-03 15:58:00,77.9,61.0,30.18,ESE,109,3.0,11.0,56,0.00,,---,0.00,54.00,VWS V14.01,2012-12-03 20:58:00,
2012-12-03 15:59:00,77.9,60.5,30.18,ENE,77,1.0,11.0,55,0.00,,---,0.00,44.00,VWS V14.01,2012-12-03 20:59:00,
2012-12-03 16:00:00,77.9,60.5,30.18,ESE,113,0.0,11.0,55,0.00,,---,0.00,42.00,VWS V14.01,2012-12-03 21:00:00,
2012-12-03 16:01:00,77.8,60.9,30.18,ESE,113,1.0,2.0,56,0.00,,---,0.00,42.00,VWS V14.01,2012-12-03 21:01:00,
2012-12-03 16:02:00,77.7,60.8,30.18,ENE,72,2.0,3.0,56,0.00,,---,0.00,40.00,VWS V14.01,2012-12-03 21:02:00,
2012-12-03 16:03:00,77.7,60.8,30.18,SE,145,4.0,4.0,56,0.00,,---,0.00,40.00,VWS V14.01,2012-12-03 21:03:00,
2012-12-03 16:04:00,77.7,60.8,30.18,SE,129,1.0,4.0,56,0.00,,---,0.00,40.00,VWS V14.01,2012-12-03 21:04:00,
2012-12-03 16:05:00,77.7,60.8,30.18,ESE,120,4.0,5.0,56,0.00,,---,0.00,40.00,VWS V14.01,2012-12-03 21:05:00,
2012-12-03 16:06:00,77.7,60.8,30.18,ESE,104,7.0,7.0,56,0.00,,---,0.00,40.00,VWS V14.01,2012-12-03 21:06:00,
2012-12-03 16:07:00,77.7,60.8,30.18,NE,38,2.0,7.0,56,0.00,,---,0.00,40.00,VWS V14.01,2012-12-03 21:07:00,
2012-12-03 16:08:00,77.7,60.8,30.18,SE,139,4.0,7.0,56,0.00,,---,0.00,40.00,VWS V14.01,2012-12-03 21:08:00,
2012-12-03 16:09:00,77.7,60.8,30.18,NE,44,2.0,7.0,56,0.00,,---,0.00,39.00,VWS V14.01,2012-12-03 21:09:00,
2012-12-03 16:10:00,77.7,60.8,30.18,NE,55,0.0,7.0,56,0.00,,---,0.00,39.00,VWS V14.01,2012-12-03 21:10:00,
2012-12-03 16:11:00,77.7,60.8,30.18,NE,55,0.0,7.0,56,0.00,,---,0.00,39.00,VWS V14.01,2012-12-03 21:11:00,
2012-12-03 16:12:00,77.7,61.3,30.18,ENE,68,1.0,7.0,57,0.00,,---,0.00,37.00,VWS V14.01,2012-12-03 21:12:00,
2012-12-03 16:13:00,77.6,61.2,30.18,SE,139,0.0,7.0,57,0.00,,---,0.00,37.00,VWS V14.01,2012-12-03 21:13:00,
2012-12-03 16:14:00,77.6,61.2,30.18,East,94,4.0,7.0,57,0.00,,---,0.00,37.00,VWS V14.01,2012-12-03 21:14:00,
2012-12-03 16:15:00,77.5,60.1,30.18,South,176,3.0,7.0,55,0.00,,---,0.00,37.00,VWS V14.01,2012-12-03 21:15:00,
2012-12-03 16:16:00,77.5,59.6,30.18,South,177,3.0,7.0,54,0.00,,---,0.00,37.00,VWS V14.01,2012-12-03 21:16:00,
2012-12-03 16:17:00,77.5,59.0,30.18,SE,124,3.0,7.0,53,0.00,,---,0.00,37.00,VWS V14.01,2012-12-03 21:17:00,
2012-12-03 16:18:00,77.5,59.0,30.19,SSE,159,0.0,7.0,53,0.00,,---,0.00,37.00,VWS V14.01,2012-12-03 21:18:00,
2012-12-03 16:19:00,77.5,59.0,30.19,ENE,61,1.0,7.0,53,0.00,,---,0.00,37.00,VWS V14.01,2012-12-03 21:19:00,
2012-12-03 16:20:00,77.5,59.0,30.19,ESE,109,4.0,7.0,53,0.00,,---,0.00,39.00,VWS V14.01,2012-12-03 21:20:00,
2012-12-03 16:21:00,77.5,59.0,30.19,SSE,153,4.0,7.0,53,0.00,,---,0.00,40.00,VWS V14.01,2012-12-03 21:21:00,
2012-12-03 16:22:00,77.6,59.1,30.19,SSE,166,2.0,7.0,53,0.00,,---,0.00,40.00,VWS V14.01,2012-12-03 21:22:00,
2012-12-03 16:23:00,77.6,59.1,30.19,SSW,203,0.0,7.0,53,0.00,,---,0.00,40.00,VWS V14.01,2012-12-03 21:23:00,
2012-12-03 16:24:00,77.6,59.1,30.18,South,174,0.0,7.0,53,0.00,,---,0.00,40.00,VWS V14.01,2012-12-03 21:24:00,
2012-12-03 16:25:00,77.6,59.1,30.18,SE,146,2.0,7.0,53,0.00,,---,0.00,39.00,VWS V14.01,2012-12-03 21:25:00,
2012-12-03 16:26:00,77.6,59.1,30.18,SE,144,1.0,7.0,53,0.00,,---,0.00,37.00,VWS V14.01,2012-12-03 21:26:00,
2012-12-03 16:27:00,77.7,59.2,30.18,SE,131,6.0,7.0,53,0.00,,---,0.00,35.00,VWS V14.01,2012-12-03 21:27:00,
2012-12-03 16:28:00,77.7,59.2,30.18,ESE,118,0.0,7.0,53,0.00,,---,0.00,35.00,VWS V14.01,2012-12-03 21:28:00,
2012-12-03 16:29:00,77.6,59.1,30.18,NE,45,1.0,7.0,53,0.00,,---,0.00,33.00,VWS V14.01,2012-12-03 21:29:00,
2012-12-03 16:30:00,77.6,59.1,30.18,NE,56,0.0,7.0,53,0.00,,---,0.00,32.00,VWS V14.01,2012-12-03 21:30:00,
2012-12-03 16:31:00,77.5,59.6,30.18,NE,56,0.0,7.0,54,0.00,,---,0.00,32.00,VWS V14.01,2012-12-03 21:31:00,
2012-12-03 16:32:00,77.4,59.5,30.19,South,191,0.0,7.0,54,0.00,,---,0.00,30.00,VWS V14.01,2012-12-03 21:32:00,
2012-12-03 16:33:00,77.4,59.5,30.19,South,170,5.0,7.0,54,0.00,,---,0.00,30.00,VWS V14.01,2012-12-03 21:33:00,
2012-12-03 16:34:00,77.3,59.4,30.19,South,174,4.0,7.0,54,0.00,,---,0.00,28.00,VWS V14.01,2012-12-03 21:34:00,
2012-12-03 16:35:00,77.3,59.4,30.19,East,95,2.0,7.0,54,0.00,,---,0.00,26.00,VWS V14.01,2012-12-03 21:35:00,
2012-12-03 16:36:00,77.3,59.4,30.19,ESE,110,1.0,7.0,54,0.00,,---,0.00,26.00,VWS V14.01,2012-12-03 21:36:00,
2012-12-03 16:37:00,77.2,59.3,30.19,East,82,6.0,7.0,54,0.00,,---,0.00,25.00,VWS V14.01,2012-12-03 21:37:00,
2012-12-03 16:38:00,77.2,59.3,30.19,East,83,1.0,7.0,54,0.00,,---,0.00,25.00,VWS V14.01,2012-12-03 21:38:00,
2012-12-03 16:39:00,77.1,59.2,30.19,East,95,0.0,7.0,54,0.00,,---,0.00,25.00,VWS V14.01,2012-12-03 21:39:00,
2012-12-03 16:40:00,77.1,59.2,30.19,ESE,114,2.0,7.0,54,0.00,,---,0.00,25.00,VWS V14.01,2012-12-03 21:40:00,
2012-12-03 16:41:00,77.0,59.1,30.19,ENE,72,0.0,7.0,54,0.00,,---,0.00,23.00,VWS V14.01,2012-12-03 21:41:00,
2012-12-03 16:42:00,77.0,59.1,30.19,East,79,1.0,7.0,54,0.00,,---,0.00,23.00,VWS V14.01,2012-12-03 21:42:00,
2012-12-03 16:43:00,77.0,59.1,30.19,ENE,70,2.0,7.0,54,0.00,,---,0.00,23.00,VWS V14.01,2012-12-03 21:43:00,
2012-12-03 16:44:00,77.0,59.1,30.19,East,92,1.0,7.0,54,0.00,,---,0.00,23.00,VWS V14.01,2012-12-03 21:44:00,
2012-12-03 16:45:00,76.9,59.5,30.19,East,79,1.0,7.0,55,0.00,,---,0.00,23.00,VWS V14.01,2012-12-03 21:45:00,
2012-12-03 16:46:00,76.7,59.8,30.19,ENE,75,0.0,7.0,56,0.00,,---,0.00,23.00,VWS V14.01,2012-12-03 21:46:00,
2012-12-03 16:47:00,76.6,60.2,30.19,East,83,3.0,7.0,57,0.00,,---,0.00,21.00,VWS V14.01,2012-12-03 21:47:00,
2012-12-03 16:48:00,76.4,59.6,30.19,East,87,3.0,7.0,56,0.00,,---,0.00,21.00,VWS V14.01,2012-12-03 21:48:00,
2012-12-03 16:49:00,76.4,60.5,30.19,East,87,0.0,7.0,58,0.00,,---,0.00,21.00,VWS V14.01,2012-12-03 21:49:00,
2012-12-03 16:50:00,76.2,60.4,30.19,East,87,0.0,7.0,58,0.00,,---,0.00,21.00,VWS V14.01,2012-12-03 21:50:00,
2012-12-03 16:51:00,76.1,60.8,30.19,ENE,64,0.0,7.0,59,0.00,,---,0.00,21.00,VWS V14.01,2012-12-03 21:51:00,
2012-12-03 16:52:00,76.0,60.7,30.19,ENE,64,0.0,7.0,59,0.00,,---,0.00,21.00,VWS V14.01,2012-12-03 21:52:00,
2012-12-03 16:53:00,75.8,60.5,30.19,ENE,64,0.0,7.0,59,0.00,,---,0.00,21.00,VWS V14.01,2012-12-03 21:53:00,
2012-12-03 16:54:00,75.7,60.4,30.19,ENE,64,1.0,7.0,59,0.00,,---,0.00,19.00,VWS V14.01,2012-12-03 21:54:00,
2012-12-03 16:55:00,75.6,60.3,30.19,ENE,64,0.0,7.0,59,0.00,,---,0.00,19.00,VWS V14.01,2012-12-03 21:55:00,
2012-12-03 16:56:00,75.5,60.7,30.19,ENE,64,0.0,7.0,60,0.00,,---,0.00,19.00,VWS V14.01,2012-12-03 21:56:00,
2012-12-03 16:57:00,75.4,60.6,30.19,East,87,2.0,7.0,60,0.00,,---,0.00,19.00,VWS V14.01,2012-12-03 21:57:00,
2012-12-03 16:58:00,75.4,60.6,30.19,ENE,57,3.0,7.0,60,0.00,,---,0.00,19.00,VWS V14.01,2012-12-03 21:58:00,
2012-12-03 16:59:00,75.3,60.0,30.19,East,91,0.0,7.0,59,0.00,,---,0.00,19.00,VWS V14.01,2012-12-03 21:59:00,
2012-12-03 17:00:00,75.3,60.5,30.19,East,91,1.0,7.0,60,0.00,,---,0.00,18.00,VWS V14.01,2012-12-03 22:00:00,
2012-12-03 17:01:00,75.2,60.4,30.19,East,91,0.0,1.0,60,0.00,,---,0.00,18.00,VWS V14.01,2012-12-03 22:01:00,
2012-12-03 17:02:00,75.1,60.8,30.19,East,91,0.0,1.0,61,0.00,,---,0.00,18.00,VWS V14.01,2012-12-03 22:02:00,
2012-12-03 17:03:00,75.0,60.2,30.19,East,91,0.0,1.0,60,0.00,,---,0.00,16.00,VWS V14.01,2012-12-03 22:03:00,
2012-12-03 17:04:00,75.0,60.2,30.19,East,91,0.0,1.0,60,0.00,,---,0.00,16.00,VWS V14.01,2012-12-03 22:04:00,
2012-12-03 17:05:00,74.9,60.6,30.19,East,91,0.0,1.0,61,0.00,,---,0.00,14.00,VWS V14.01,2012-12-03 22:05:00,
2012-12-03 17:06:00,74.8,60.5,30.19,East,91,0.0,1.0,61,0.00,,---,0.00,14.00,VWS V14.01,2012-12-03 22:06:00,
2012-12-03 17:07:00,74.7,60.4,30.19,East,91,0.0,1.0,61,0.00,,---,0.00,14.00,VWS V14.01,2012-12-03 22:07:00,
2012-12-03 17:08:00,74.5,60.2,30.19,East,91,0.0,1.0,61,0.00,,---,0.00,12.00,VWS V14.01,2012-12-03 22:08:00,
2012-12-03 17:09:00,74.4,60.1,30.19,East,91,0.0,1.0,61,0.00,,---,0.00,12.00,VWS V14.01,2012-12-03 22:09:00,
2012-12-03 17:10:00,74.4,60.1,30.19,East,96,2.0,2.0,61,0.00,,---,0.00,12.00,VWS V14.01,2012-12-03 22:10:00,
2012-12-03 17:11:00,74.4,59.6,30.19,East,94,1.0,4.0,60,0.00,,---,0.00,11.00,VWS V14.01,2012-12-03 22:11:00,
2012-12-03 17:12:00,74.4,59.6,30.19,SE,145,1.0,4.0,60,0.00,,---,0.00,11.00,VWS V14.01,2012-12-03 22:12:00,
2012-12-03 17:13:00,74.3,59.1,30.19,ENE,74,2.0,4.0,59,0.00,,---,0.00,9.00,VWS V14.01,2012-12-03 22:13:00,
2012-12-03 17:14:00,74.4,59.2,30.19,ESE,122,2.0,4.0,59,0.00,,---,0.00,9.00,VWS V14.01,2012-12-03 22:14:00,
2012-12-03 17:15:00,74.4,58.7,30.19,East,79,2.0,4.0,58,0.00,,---,0.00,9.00,VWS V14.01,2012-12-03 22:15:00,
2012-12-03 17:16:00,74.4,58.7,30.19,East,100,3.0,4.0,58,0.00,,---,0.00,7.00,VWS V14.01,2012-12-03 22:16:00,
2012-12-03 17:17:00,74.4,58.7,30.19,SE,125,0.0,4.0,58,0.00,,---,0.00,7.00,VWS V14.01,2012-12-03 22:17:00,
2012-12-03 17:18:00,74.4,58.2,30.19,SE,125,0.0,4.0,57,0.00,,---,0.00,7.00,VWS V14.01,2012-12-03 22:18:00,
2012-12-03 17:19:00,74.4,58.2,30.19,SE,125,0.0,4.0,57,0.00,,---,0.00,7.00,VWS V14.01,2012-12-03 22:19:00,
2012-12-03 17:20:00,74.4,58.2,30.20,East,100,2.0,4.0,57,0.00,,---,0.00,5.00,VWS V14.01,2012-12-03 22:20:00,
2012-12-03 17:21:00,74.4,58.2,30.20,ENE,60,2.0,4.0,57,0.00,,---,0.00,5.00,VWS V14.01,2012-12-03 22:21:00,
2012-12-03 17:22:00,74.4,58.7,30.20,ENE,60,0.0,4.0,58,0.00,,---,0.00,0.00,VWS V14.01,2012-12-03 22:22:00,
2012-12-03 17:23:00,74.3,58.6,30.20,ENE,62,1.0,4.0,58,0.00,,---,0.00,0.00,VWS V14.01,2012-12-03 22:23:00,
2012-12-03 17:24:00,74.2,58.5,30.20,ENE,62,0.0,4.0,58,0.00,,---,0.00,0.00,VWS V14.01,2012-12-03 22:24:00,
2012-12-03 17:25:00,74.2,58.5,30.20,ENE,62,1.0,4.0,58,0.00,,---,0.00,0.00,VWS V14.01,2012-12-03 22:25:00,
2012-12-03 17:26:00,74.0,58.8,30.20,East,80,0.0,4.0,59,0.00,,---,0.00,0.00,VWS V14.01,2012-12-03 22:26:00,
2012-12-03 17:27:00,73.9,58.7,30.20,East,80,0.0,4.0,59,0.00,,---,0.00,0.00,VWS V14.01,2012-12-03 22:27:00,
2012-12-03 17:28:00,73.8,58.6,30.20,ENE,72,2.0,4.0,59,0.00,,---,0.00,0.00,VWS V14.01,2012-12-03 22:28:00,
2012-12-03 17:29:00,73.7,59.0,30.20,ENE,72,0.0,4.0,60,0.00,,---,0.00,0.00,VWS V14.01,2012-12-03 22:29:00,
2012-12-03 17:30:00,73.6,58.9,30.20,ENE,72,0.0,4.0,60,0.00,,---,0.00,0.00,VWS V14.01,2012-12-03 22:30:00,
2012-12-03 17:31:00,73.5,58.8,30.20,ENE,72,0.0,4.0,60,0.00,,---,0.00,0.00,VWS V14.01,2012-12-03 22:31:00,
2012-12-03 17:32:00,73.4,58.7,30.20,ENE,72,2.0,4.0,60,0.00,,---,0.00,0.00,VWS V14.01,2012-12-03 22:32:00,
2012-12-03 17:33:00,73.3,58.6,30.20,NE,40,0.0,4.0,60,0.00,,---,0.00,0.00,VWS V14.01,2012-12-03 22:33:00,
2012-12-03 17:34:00,73.2,58.5,30.20,NE,40,1.0,4.0,60,0.00,,---,0.00,0.00,VWS V14.01,2012-12-03 22:34:00,
2012-12-03 17:35:00,73.1,58.9,30.20,NE,40,0.0,4.0,61,0.00,,---,0.00,0.00,VWS V14.01,2012-12-03 22:35:00,
2012-12-03 17:36:00,73.0,58.8,30.20,NE,40,0.0,4.0,61,0.00,,---,0.00,0.00,VWS V14.01,2012-12-03 22:36:00,
2012-12-03 17:37:00,72.8,58.6,30.20,NE,40,0.0,4.0,61,0.00,,---,0.00,0.00,VWS V14.01,2012-12-03 22:37:00,
2012-12-03 17:38:00,72.8,59.0,30.20,NE,40,0.0,4.0,62,0.00,,---,0.00,0.00,VWS V14.01,2012-12-03 22:38:00,
2012-12-03 17:39:00,72.5,58.8,30.20,NE,40,0.0,4.0,62,0.00,,---,0.00,0.00,VWS V14.01,2012-12-03 22:39:00,
2012-12-03 17:40:00,72.4,58.7,30.20,NE,40,0.0,4.0,62,0.00,,---,0.00,0.00,VWS V14.01,2012-12-03 22:40:00,
2012-12-03 17:41:00,72.3,58.6,30.20,NE,53,1.0,4.0,62,0.00,,---,0.00,0.00,VWS V14.01,2012-12-03 22:41:00,
2012-12-03 17:42:00,72.2,58.5,30.20,NE,52,0.0,4.0,62,0.00,,---,0.00,0.00,VWS V14.01,2012-12-03 22:42:00,
2012-12-03 17:43:00,72.0,58.7,30.20,NE,52,0.0,4.0,63,0.00,,---,0.00,0.00,VWS V14.01,2012-12-03 22:43:00,
2012-12-03 17:44:00,71.8,58.5,30.20,NE,52,0.0,4.0,63,0.00,,---,0.00,0.00,VWS V14.01,2012-12-03 22:44:00,
2012-12-03 17:45:00,71.7,58.9,30.20,NE,52,0.0,4.0,64,0.00,,---,0.00,0.00,VWS V14.01,2012-12-03 22:45:00,
2012-12-03 17:46:00,71.6,58.8,30.20,NE,52,0.0,4.0,64,0.00,,---,0.00,0.00,VWS V14.01,2012-12-03 22:46:00,
2012-12-03 17:47:00,71.5,58.7,30.20,NE,53,0.0,4.0,64,0.00,,---,0.00,0.00,VWS V14.01,2012-12-03 22:47:00,
2012-12-03 17:48:00,71.4,58.6,30.20,NE,53,0.0,4.0,64,0.00,,---,0.00,0.00,VWS V14.01,2012-12-03 22:48:00,
2012-12-03 17:49:00,71.3,58.5,30.20,NE,53,1.0,4.0,64,0.00,,---,0.00,0.00,VWS V14.01,2012-12-03 22:49:00,
2012-12-03 17:50:00,71.2,58.4,30.20,NE,53,0.0,4.0,64,0.00,,---,0.00,0.00,VWS V14.01,2012-12-03 22:50:00,
2012-12-03 17:51:00,71.0,58.7,30.20,East,88,0.0,4.0,65,0.00,,---,0.00,0.00,VWS V14.01,2012-12-03 22:51:00,
2012-12-03 17:52:00,71.0,58.7,30.20,East,88,0.0,4.0,65,0.00,,---,0.00,0.00,VWS V14.01,2012-12-03 22:52:00,
2012-12-03 17:53:00,70.9,58.6,30.20,East,88,1.0,4.0,65,0.00,,---,0.00,0.00,VWS V14.01,2012-12-03 22:53:00,
2012-12-03 17:54:00,70.7,58.4,30.20,East,88,0.0,4.0,65,0.00,,---,0.00,0.00,VWS V14.01,2012-12-03 22:54:00,
2012-12-03 17:55:00,70.6,58.7,30.20,ENE,78,2.0,4.0,66,0.00,,---,0.00,0.00,VWS V14.01,2012-12-03 22:55:00,
2012-12-03 17:56:00,70.4,58.5,30.20,ENE,77,0.0,4.0,66,0.00,,---,0.00,0.00,VWS V14.01,2012-12-03 22:56:00,
2012-12-03 17:57:00,70.3,58.4,30.20,ENE,77,0.0,4.0,66,0.00,,---,0.00,0.00,VWS V14.01,2012-12-03 22:57:00,
2012-12-03 17:58:00,70.2,58.3,30.20,ENE,77,0.0,4.0,66,0.00,,---,0.00,0.00,VWS V14.01,2012-12-03 22:58:00,
2012-12-03 17:59:00,70.1,58.7,30.20,ENE,76,0.0,4.0,67,0.00,,---,0.00,0.00,VWS V14.01,2012-12-03 22:59:00,
2012-12-03 18:00:00,70.1,58.7,30.20,ENE,76,0.0,4.0,67,0.00,,---,0.00,0.00,VWS V14.01,2012-12-03 23:00:00,
2012-12-03 18:01:00,69.9,58.5,30.20,ENE,76,0.0,1.0,67,0.00,,---,0.00,0.00,VWS V14.01,2012-12-03 23:01:00,
2012-12-03 18:02:00,69.9,58.5,30.20,ENE,76,0.0,1.0,67,0.00,,---,0.00,0.00,VWS V14.01,2012-12-03 23:02:00,
2012-12-03 18:03:00,69.9,58.5,30.20,ENE,76,0.0,1.0,67,0.00,,---,0.00,0.00,VWS V14.01,2012-12-03 23:03:00,
2012-12-03 18:04:00,69.9,58.5,30.20,ENE,76,0.0,1.0,67,0.00,,---,0.00,0.00,VWS V14.01,2012-12-03 23:04:00,
2012-12-03 18:05:00,69.8,58.4,30.20,ENE,76,0.0,1.0,67,0.00,,---,0.00,0.00,VWS V14.01,2012-12-03 23:05:00,
2012-12-03 18:06:00,69.8,58.8,30.21,ENE,76,0.0,1.0,68,0.00,,---,0.00,0.00,VWS V14.01,2012-12-03 23:06:00,
2012-12-03 18:07:00,69.7,58.7,30.21,ENE,76,0.0,1.0,68,0.00,,---,0.00,0.00,VWS V14.01,2012-12-03 23:07:00,
2012-12-03 18:08:00,69.7,58.7,30.21,ENE,76,0.0,1.0,68,0.00,,---,0.00,0.00,VWS V14.01,2012-12-03 23:08:00,
2012-12-03 18:09:00,69.6,58.6,30.21,ENE,76,0.0,1.0,68,0.00,,---,0.00,0.00,VWS V14.01,2012-12-03 23:09:00,
2012-12-03 18:10:00,69.6,58.6,30.21,ENE,76,0.0,1.0,68,0.00,,---,0.00,0.00,VWS V14.01,2012-12-03 23:10:00,
2012-12-03 18:11:00,69.7,58.7,30.20,ENE,61,0.0,2.0,68,0.00,,---,0.00,0.00,VWS V14.01,2012-12-03 23:11:00,
2012-12-03 18:12:00,69.7,58.7,30.21,ENE,61,1.0,2.0,68,0.00,,---,0.00,0.00,VWS V14.01,2012-12-03 23:12:00,
2012-12-03 18:13:00,69.7,58.7,30.21,ENE,66,0.0,2.0,68,0.00,,---,0.00,0.00,VWS V14.01,2012-12-03 23:13:00,
2012-12-03 18:14:00,69.6,58.6,30.21,ENE,66,0.0,2.0,68,0.00,,---,0.00,0.00,VWS V14.01,2012-12-03 23:14:00,
2012-12-03 18:15:00,69.5,58.5,30.21,ENE,64,1.0,2.0,68,0.00,,---,0.00,0.00,VWS V14.01,2012-12-03 23:15:00,
2012-12-03 18:16:00,69.5,58.5,30.21,ENE,64,0.0,2.0,68,0.00,,---,0.00,0.00,VWS V14.01,2012-12-03 23:16:00,
2012-12-03 18:17:00,69.5,58.9,30.21,ENE,69,1.0,2.0,69,0.00,,---,0.00,0.00,VWS V14.01,2012-12-03 23:17:00,
2012-12-03 18:18:00,69.4,58.8,30.21,ENE,69,0.0,2.0,69,0.00,,---,0.00,0.00,VWS V14.01,2012-12-03 23:18:00,
2012-12-03 18:19:00,69.4,58.8,30.21,ENE,69,1.0,2.0,69,0.00,,---,0.00,0.00,VWS V14.01,2012-12-03 23:19:00,
2012-12-03 18:20:00,69.4,58.8,30.21,ENE,69,0.0,2.0,69,0.00,,---,0.00,0.00,VWS V14.01,2012-12-03 23:20:00,
2012-12-03 18:21:00,69.4,58.8,30.21,East,85,1.0,2.0,69,0.00,,---,0.00,0.00,VWS V14.01,2012-12-03 23:21:00,
2012-12-03 18:22:00,69.4,58.8,30.21,East,89,2.0,2.0,69,0.00,,---,0.00,0.00,VWS V14.01,2012-12-03 23:22:00,
2012-12-03 18:23:00,69.3,58.7,30.21,ENE,62,0.0,3.0,69,0.00,,---,0.00,0.00,VWS V14.01,2012-12-03 23:23:00,
2012-12-03 18:24:00,69.3,58.7,30.21,ENE,62,0.0,3.0,69,0.00,,---,0.00,0.00,VWS V14.01,2012-12-03 23:24:00,
2012-12-03 18:25:00,69.4,58.8,30.21,ENE,62,0.0,3.0,69,0.00,,---,0.00,0.00,VWS V14.01,2012-12-03 23:25:00,
2012-12-03 18:26:00,69.5,58.5,30.21,ENE,62,0.0,3.0,68,0.00,,---,0.00,0.00,VWS V14.01,2012-12-03 23:26:00,
2012-12-03 18:27:00,69.5,58.5,30.21,ENE,62,0.0,3.0,68,0.00,,---,0.00,0.00,VWS V14.01,2012-12-03 23:27:00,
2012-12-03 18:28:00,69.4,58.8,30.21,ENE,62,1.0,3.0,69,0.00,,---,0.00,0.00,VWS V14.01,2012-12-03 23:28:00,
2012-12-03 18:29:00,69.4,58.8,30.21,ENE,62,0.0,3.0,69,0.00,,---,0.00,0.00,VWS V14.01,2012-12-03 23:29:00,
2012-12-03 18:30:00,69.4,58.8,30.21,ENE,62,0.0,3.0,69,0.00,,---,0.00,0.00,VWS V14.01,2012-12-03 23:30:00,
2012-12-03 18:31:00,69.5,58.5,30.21,East,81,0.0,3.0,68,0.00,,---,0.00,0.00,VWS V14.01,2012-12-03 23:31:00,
2012-12-03 18:32:00,69.5,58.5,30.21,East,81,0.0,3.0,68,0.00,,---,0.00,0.00,VWS V14.01,2012-12-03 23:32:00,
2012-12-03 18:33:00,69.6,58.6,30.21,East,81,0.0,3.0,68,0.00,,---,0.00,0.00,VWS V14.01,2012-12-03 23:33:00,
2012-12-03 18:34:00,69.7,58.7,30.21,East,81,0.0,3.0,68,0.00,,---,0.00,0.00,VWS V14.01,2012-12-03 23:34:00,
2012-12-03 18:35:00,69.7,58.7,30.21,East,81,0.0,3.0,68,0.00,,---,0.00,0.00,VWS V14.01,2012-12-03 23:35:00,
2012-12-03 18:36:00,69.7,58.7,30.21,East,81,0.0,3.0,68,0.00,,---,0.00,0.00,VWS V14.01,2012-12-03 23:36:00,
2012-12-03 18:37:00,69.6,58.6,30.21,East,81,0.0,3.0,68,0.00,,---,0.00,0.00,VWS V14.01,2012-12-03 23:37:00,
2012-12-03 18:38:00,69.6,58.6,30.21,East,81,0.0,3.0,68,0.00,,---,0.00,0.00,VWS V14.01,2012-12-03 23:38:00,
2012-12-03 18:39:00,69.5,58.5,30.21,East,80,0.0,3.0,68,0.00,,---,0.00,0.00,VWS V14.01,2012-12-03 23:39:00,
2012-12-03 18:40:00,69.5,58.5,30.21,East,80,0.0,3.0,68,0.00,,---,0.00,0.00,VWS V14.01,2012-12-03 23:40:00,
2012-12-03 18:41:00,69.5,58.5,30.21,East,80,0.0,3.0,68,0.00,,---,0.00,0.00,VWS V14.01,2012-12-03 23:41:00,
2012-12-03 18:42:00,69.5,58.5,30.22,East,80,0.0,3.0,68,0.00,,---,0.00,0.00,VWS V14.01,2012-12-03 23:42:00,
2012-12-03 18:43:00,69.5,58.5,30.22,East,80,0.0,3.0,68,0.00,,---,0.00,0.00,VWS V14.01,2012-12-03 23:43:00,
2012-12-03 18:44:00,69.5,58.5,30.22,East,80,1.0,3.0,68,0.00,,---,0.00,0.00,VWS V14.01,2012-12-03 23:44:00,
2012-12-03 18:45:00,69.5,58.5,30.22,East,93,0.0,3.0,68,0.00,,---,0.00,0.00,VWS V14.01,2012-12-03 23:45:00,
2012-12-03 18:46:00,69.4,58.4,30.22,East,93,1.0,3.0,68,0.00,,---,0.00,0.00,VWS V14.01,2012-12-03 23:46:00,
2012-12-03 18:47:00,69.4,58.4,30.22,East,93,0.0,3.0,68,0.00,,---,0.00,0.00,VWS V14.01,2012-12-03 23:47:00,
2012-12-03 18:48:00,69.4,58.8,30.22,East,93,0.0,3.0,69,0.00,,---,0.00,0.00,VWS V14.01,2012-12-03 23:48:00,
2012-12-03 18:49:00,69.3,58.7,30.22,East,93,0.0,3.0,69,0.00,,---,0.00,0.00,VWS V14.01,2012-12-03 23:49:00,
2012-12-03 18:50:00,69.3,58.7,30.22,East,93,2.0,3.0,69,0.00,,---,0.00,0.00,VWS V14.01,2012-12-03 23:50:00,
2012-12-03 18:51:00,69.2,58.6,30.22,East,93,0.0,3.0,69,0.00,,---,0.00,0.00,VWS V14.01,2012-12-03 23:51:00,
2012-12-03 18:52:00,69.2,58.6,30.22,NE,50,2.0,3.0,69,0.00,,---,0.00,0.00,VWS V14.01,2012-12-03 23:52:00,
2012-12-03 18:53:00,69.2,58.6,30.22,ENE,66,1.0,3.0,69,0.00,,---,0.00,0.00,VWS V14.01,2012-12-03 23:53:00,
2012-12-03 18:54:00,69.2,58.6,30.22,East,84,1.0,3.0,69,0.00,,---,0.00,0.00,VWS V14.01,2012-12-03 23:54:00,
2012-12-03 18:55:00,69.3,58.7,30.22,ENE,66,0.0,3.0,69,0.00,,---,0.00,0.00,VWS V14.01,2012-12-03 23:55:00,
2012-12-03 18:56:00,69.2,58.6,30.22,ENE,61,1.0,3.0,69,0.00,,---,0.00,0.00,VWS V14.01,2012-12-03 23:56:00,
2012-12-03 18:57:00,69.2,58.6,30.22,ENE,61,0.0,3.0,69,0.00,,---,0.00,0.00,VWS V14.01,2012-12-03 23:57:00,
2012-12-03 18:58:00,69.2,58.6,30.22,ENE,61,2.0,3.0,69,0.00,,---,0.00,0.00,VWS V14.01,2012-12-03 23:58:00,
2012-12-03 18:59:00,69.2,58.6,30.22,ENE,61,0.0,3.0,69,0.00,,---,0.00,0.00,VWS V14.01,2012-12-03 23:59:00,
2012-12-03 19:00:00,69.1,58.5,30.22,NE,46,0.0,3.0,69,0.00,,---,0.00,0.00,VWS V14.01,2012-12-04 00:00:00,
2012-12-03 19:01:00,69.1,58.5,30.22,East,81,0.0,2.0,69,0.00,,---,0.00,0.00,VWS V14.01,2012-12-04 00:01:00,
2012-12-03 19:02:00,69.1,58.5,30.22,East,81,0.0,2.0,69,0.00,,---,0.00,0.00,VWS V14.01,2012-12-04 00:02:00,
2012-12-03 19:03:00,69.1,58.5,30.22,East,81,0.0,2.0,69,0.00,,---,0.00,0.00,VWS V14.01,2012-12-04 00:03:00,
2012-12-03 19:04:00,69.0,58.4,30.22,East,81,0.0,2.0,69,0.00,,---,0.00,0.00,VWS V14.01,2012-12-04 00:04:00,
2012-12-03 19:05:00,69.0,58.4,30.22,East,87,0.0,2.0,69,0.00,,---,0.00,0.00,VWS V14.01,2012-12-04 00:05:00,
2012-12-03 19:06:00,69.0,58.4,30.22,East,87,0.0,2.0,69,0.00,,---,0.00,0.00,VWS V14.01,2012-12-04 00:06:00,
2012-12-03 19:07:00,68.9,58.3,30.22,East,87,0.0,2.0,69,0.00,,---,0.00,0.00,VWS V14.01,2012-12-04 00:07:00,
2012-12-03 19:08:00,68.9,58.3,30.22,East,89,0.0,2.0,69,0.00,,---,0.00,0.00,VWS V14.01,2012-12-04 00:08:00,
2012-12-03 19:09:00,68.8,58.2,30.22,East,95,1.0,2.0,69,0.00,,---,0.00,0.00,VWS V14.01,2012-12-04 00:09:00,
2012-12-03 19:10:00,68.8,58.2,30.22,East,98,2.0,2.0,69,0.00,,---,0.00,0.00,VWS V14.01,2012-12-04 00:10:00,
2012-12-03 19:11:00,68.8,58.2,30.22,ENE,69,0.0,3.0,69,0.00,,---,0.00,0.00,VWS V14.01,2012-12-04 00:11:00,
2012-12-03 19:12:00,68.8,58.2,30.23,ENE,69,0.0,3.0,69,0.00,,---,0.00,0.00,VWS V14.01,2012-12-04 00:12:00,
2012-12-03 19:13:00,68.8,58.2,30.23,SE,127,0.0,3.0,69,0.00,,---,0.00,0.00,VWS V14.01,2012-12-04 00:13:00,
2012-12-03 19:14:00,68.8,58.2,30.23,East,93,4.0,4.0,69,0.00,,---,0.00,0.00,VWS V14.01,2012-12-04 00:14:00,
2012-12-03 19:15:00,68.8,58.2,30.23,East,79,0.0,4.0,69,0.00,,---,0.00,0.00,VWS V14.01,2012-12-04 00:15:00,
2012-12-03 19:16:00,68.8,58.2,30.23,East,100,0.0,4.0,69,0.00,,---,0.00,0.00,VWS V14.01,2012-12-04 00:16:00,
2012-12-03 19:17:00,68.8,58.2,30.23,East,100,0.0,4.0,69,0.00,,---,0.00,0.00,VWS V14.01,2012-12-04 00:17:00,
2012-12-03 19:18:00,68.9,58.3,30.23,ESE,123,0.0,4.0,69,0.00,,---,0.00,0.00,VWS V14.01,2012-12-04 00:18:00,
2012-12-03 19:19:00,68.9,58.3,30.23,ESE,123,0.0,4.0,69,0.00,,---,0.00,0.00,VWS V14.01,2012-12-04 00:19:00,
2012-12-03 19:20:00,68.8,58.2,30.23,ESE,123,0.0,4.0,69,0.00,,---,0.00,0.00,VWS V14.01,2012-12-04 00:20:00,
2012-12-03 19:21:00,68.8,58.2,30.23,ESE,113,1.0,4.0,69,0.00,,---,0.00,0.00,VWS V14.01,2012-12-04 00:21:00,
2012-12-03 19:22:00,68.8,58.2,30.23,ESE,123,0.0,4.0,69,0.00,,---,0.00,0.00,VWS V14.01,2012-12-04 00:22:00,
2012-12-03 19:23:00,68.8,58.2,30.23,East,96,2.0,4.0,69,0.00,,---,0.00,0.00,VWS V14.01,2012-12-04 00:23:00,
2012-12-03 19:24:00,68.8,58.2,30.23,ESE,113,3.0,4.0,69,0.00,,---,0.00,0.00,VWS V14.01,2012-12-04 00:24:00,
2012-12-03 19:25:00,68.8,58.2,30.22,East,94,0.0,4.0,69,0.00,,---,0.00,0.00,VWS V14.01,2012-12-04 00:25:00,
2012-12-03 19:26:00,68.8,58.2,30.23,ESE,117,3.0,4.0,69,0.00,,---,0.00,0.00,VWS V14.01,2012-12-04 00:26:00,
2012-12-03 19:27:00,68.7,58.1,30.23,East,84,2.0,4.0,69,0.00,,---,0.00,0.00,VWS V14.01,2012-12-04 00:27:00,
2012-12-03 19:28:00,68.7,58.1,30.23,East,84,0.0,4.0,69,0.00,,---,0.00,0.00,VWS V14.01,2012-12-04 00:28:00,
2012-12-03 19:29:00,68.7,58.1,30.23,East,84,0.0,4.0,69,0.00,,---,0.00,0.00,VWS V14.01,2012-12-04 00:29:00,
2012-12-03 19:30:00,68.7,58.1,30.23,East,84,0.0,4.0,69,0.00,,---,0.00,0.00,VWS V14.01,2012-12-04 00:30:00,
2012-12-03 19:31:00,68.6,58.4,30.23,East,84,0.0,4.0,70,0.00,,---,0.00,0.00,VWS V14.01,2012-12-04 00:31:00,
2012-12-03 19:32:00,68.5,58.3,30.23,ESE,103,2.0,4.0,70,0.00,,---,0.00,0.00,VWS V14.01,2012-12-04 00:32:00,
2012-12-03 19:33:00,68.5,58.3,30.23,ESE,106,0.0,4.0,70,0.00,,---,0.00,0.00,VWS V14.01,2012-12-04 00:33:00,
2012-12-03 19:34:00,68.3,58.2,30.23,ENE,76,0.0,4.0,70,0.00,,---,0.00,0.00,VWS V14.01,2012-12-04 00:34:00,
2012-12-03 19:35:00,68.3,58.2,30.23,ENE,76,0.0,4.0,70,0.00,,---,0.00,0.00,VWS V14.01,2012-12-04 00:35:00,
2012-12-03 19:36:00,68.2,58.5,30.23,ENE,76,1.0,4.0,71,0.00,,---,0.00,0.00,VWS V14.01,2012-12-04 00:36:00,
2012-12-03 19:37:00,68.1,58.3,30.23,ENE,76,1.0,4.0,71,0.00,,---,0.00,0.00,VWS V14.01,2012-12-04 00:37:00,
2012-12-03 19:38:00,68.1,58.3,30.23,ENE,76,1.0,4.0,71,0.00,,---,0.00,0.00,VWS V14.01,2012-12-04 00:38:00,
2012-12-03 19:39:00,68.0,58.3,30.23,ENE,76,0.0,4.0,71,0.00,,---,0.00,0.00,VWS V14.01,2012-12-04 00:39:00,
2012-12-03 19:40:00,68.0,58.7,30.23,ENE,76,0.0,4.0,72,0.00,,---,0.00,0.00,VWS V14.01,2012-12-04 00:40:00,
2012-12-03 19:41:00,67.8,58.5,30.23,ENE,76,0.0,4.0,72,0.00,,---,0.00,0.00,VWS V14.01,2012-12-04 00:41:00,
2012-12-03 19:42:00,67.7,58.4,30.23,ENE,76,0.0,4.0,72,0.00,,---,0.00,0.00,VWS V14.01,2012-12-04 00:42:00,
2012-12-03 19:43:00,67.7,58.4,30.23,ENE,76,1.0,4.0,72,0.00,,---,0.00,0.00,VWS V14.01,2012-12-04 00:43:00,
2012-12-03 19:44:00,67.6,58.3,30.23,East,84,2.0,4.0,72,0.00,,---,0.00,0.00,VWS V14.01,2012-12-04 00:44:00,
2012-12-03 19:45:00,67.6,58.3,30.23,NE,37,1.0,4.0,72,0.00,,---,0.00,0.00,VWS V14.01,2012-12-04 00:45:00,
2012-12-03 19:46:00,67.5,58.2,30.23,NE,37,0.0,4.0,72,0.00,,---,0.00,0.00,VWS V14.01,2012-12-04 00:46:00,
2012-12-03 19:47:00,67.5,58.2,30.23,East,81,1.0,4.0,72,0.00,,---,0.00,0.00,VWS V14.01,2012-12-04 00:47:00,
2012-12-03 19:48:00,67.4,58.1,30.23,East,81,0.0,4.0,72,0.00,,---,0.00,0.00,VWS V14.01,2012-12-04 00:48:00,
2012-12-03 19:49:00,67.4,58.1,30.23,East,81,0.0,4.0,72,0.00,,---,0.00,0.00,VWS V14.01,2012-12-04 00:49:00,
2012-12-03 19:50:00,67.3,58.0,30.23,ESE,102,0.0,4.0,72,0.00,,---,0.00,0.00,VWS V14.01,2012-12-04 00:50:00,
2012-12-03 19:51:00,67.2,58.3,30.23,ESE,102,0.0,4.0,73,0.00,,---,0.00,0.00,VWS V14.01,2012-12-04 00:51:00,
2012-12-03 19:52:00,67.1,58.2,30.23,East,90,1.0,4.0,73,0.00,,---,0.00,0.00,VWS V14.01,2012-12-04 00:52:00,
2012-12-03 19:53:00,67.0,58.1,30.23,East,90,0.0,4.0,73,0.00,,---,0.00,0.00,VWS V14.01,2012-12-04 00:53:00,
2012-12-03 19:54:00,67.0,58.1,30.23,East,90,0.0,4.0,73,0.00,,---,0.00,0.00,VWS V14.01,2012-12-04 00:54:00,
2012-12-03 19:55:00,66.9,58.0,30.23,East,90,0.0,4.0,73,0.00,,---,0.00,0.00,VWS V14.01,2012-12-04 00:55:00,
2012-12-03 19:56:00,66.9,58.0,30.23,East,93,1.0,4.0,73,0.00,,---,0.00,0.00,VWS V14.01,2012-12-04 00:56:00,
2012-12-03 19:57:00,66.9,58.0,30.23,East,86,0.0,4.0,73,0.00,,---,0.00,0.00,VWS V14.01,2012-12-04 00:57:00,
2012-12-03 19:58:00,66.9,58.0,30.23,East,86,0.0,4.0,73,0.00,,---,0.00,0.00,VWS V14.01,2012-12-04 00:58:00,
2012-12-03 19:59:00,66.8,57.9,30.23,East,86,0.0,4.0,73,0.00,,---,0.00,0.00,VWS V14.01,2012-12-04 00:59:00,
2012-12-03 20:00:00,66.8,57.9,30.23,ENE,70,0.0,4.0,73,0.00,,---,0.00,0.00,VWS V14.01,2012-12-04 01:00:00,
2012-12-03 20:01:00,66.7,58.2,30.23,East,97,0.0,3.0,74,0.00,,---,0.00,0.00,VWS V14.01,2012-12-04 01:01:00,
2012-12-03 20:02:00,66.7,58.2,30.23,East,97,0.0,3.0,74,0.00,,---,0.00,0.00,VWS V14.01,2012-12-04 01:02:00,
2012-12-03 20:03:00,66.7,58.2,30.23,East,97,0.0,3.0,74,0.00,,---,0.00,0.00,VWS V14.01,2012-12-04 01:03:00,
2012-12-03 20:04:00,66.7,58.2,30.23,East,79,0.0,3.0,74,0.00,,---,0.00,0.00,VWS V14.01,2012-12-04 01:04:00,
2012-12-03 20:05:00,66.7,58.2,30.23,East,79,0.0,3.0,74,0.00,,---,0.00,0.00,VWS V14.01,2012-12-04 01:05:00,
2012-12-03 20:06:00,66.7,58.2,30.23,SSE,156,1.0,3.0,74,0.00,,---,0.00,0.00,VWS V14.01,2012-12-04 01:06:00,
2012-12-03 20:07:00,66.8,58.3,30.23,SE,143,0.0,3.0,74,0.00,,---,0.00,0.00,VWS V14.01,2012-12-04 01:07:00,
2012-12-03 20:08:00,66.8,57.9,30.23,SE,143,0.0,3.0,73,0.00,,---,0.00,0.00,VWS V14.01,2012-12-04 01:08:00,
2012-12-03 20:09:00,66.8,57.9,30.23,SE,142,0.0,3.0,73,0.00,,---,0.00,0.00,VWS V14.01,2012-12-04 01:09:00,
2012-12-03 20:10:00,66.8,57.9,30.23,SE,142,0.0,3.0,73,0.00,,---,0.00,0.00,VWS V14.01,2012-12-04 01:10:00,
2012-12-03 20:11:00,66.8,57.9,30.23,SE,142,1.0,3.0,73,0.00,,---,0.00,0.00,VWS V14.01,2012-12-04 01:11:00,
2012-12-03 20:12:00,66.7,58.2,30.24,SE,142,0.0,3.0,74,0.00,,---,0.00,0.00,VWS V14.01,2012-12-04 01:12:00,
2012-12-03 20:13:00,66.6,58.1,30.24,ESE,112,0.0,3.0,74,0.00,,---,0.00,0.00,VWS V14.01,2012-12-04 01:13:00,
2012-12-03 20:14:00,66.5,58.0,30.24,ESE,112,0.0,3.0,74,0.00,,---,0.00,0.00,VWS V14.01,2012-12-04 01:14:00,
2012-12-03 20:15:00,66.5,58.0,30.24,ESE,112,0.0,3.0,74,0.00,,---,0.00,0.00,VWS V14.01,2012-12-04 01:15:00,
2012-12-03 20:16:00,66.5,58.0,30.24,ESE,112,0.0,3.0,74,0.00,,---,0.00,0.00,VWS V14.01,2012-12-04 01:16:00,
2012-12-03 20:17:00,66.4,57.9,30.24,ESE,112,1.0,3.0,74,0.00,,---,0.00,0.00,VWS V14.01,2012-12-04 01:17:00,
2012-12-03 20:18:00,66.5,58.0,30.24,ESE,112,1.0,3.0,74,0.00,,---,0.00,0.00,VWS V14.01,2012-12-04 01:18:00,
2012-12-03 20:19:00,66.5,58.0,30.24,ESE,112,1.0,3.0,74,0.00,,---,0.00,0.00,VWS V14.01,2012-12-04 01:19:00,
2012-12-03 20:20:00,66.5,58.0,30.24,ESE,112,4.0,4.0,74,0.00,,---,0.00,0.00,VWS V14.01,2012-12-04 01:20:00,
2012-12-03 20:21:00,66.5,58.0,30.24,East,91,2.0,4.0,74,0.00,,---,0.00,0.00,VWS V14.01,2012-12-04 01:21:00,
2012-12-03 20:22:00,66.5,58.0,30.24,East,80,1.0,4.0,74,0.00,,---,0.00,0.00,VWS V14.01,2012-12-04 01:22:00,
2012-12-03 20:23:00,66.5,58.0,30.24,East,81,1.0,4.0,74,0.00,,---,0.00,0.00,VWS V14.01,2012-12-04 01:23:00,
2012-12-03 20:24:00,66.4,57.9,30.24,East,81,1.0,4.0,74,0.00,,---,0.00,0.00,VWS V14.01,2012-12-04 01:24:00,
2012-12-03 20:25:00,66.3,58.2,30.24,East,81,0.0,4.0,75,0.00,,---,0.00,0.00,VWS V14.01,2012-12-04 01:25:00,
2012-12-03 20:26:00,66.2,58.0,30.24,East,81,0.0,4.0,75,0.00,,---,0.00,0.00,VWS V14.01,2012-12-04 01:26:00,
2012-12-03 20:27:00,66.2,58.0,30.24,ESE,106,0.0,4.0,75,0.00,,---,0.00,0.00,VWS V14.01,2012-12-04 01:27:00,
2012-12-03 20:28:00,66.1,58.0,30.24,ESE,106,0.0,4.0,75,0.00,,---,0.00,0.00,VWS V14.01,2012-12-04 01:28:00,
2012-12-03 20:29:00,66.1,58.0,30.24,SE,143,1.0,4.0,75,0.00,,---,0.00,0.00,VWS V14.01,2012-12-04 01:29:00,
2012-12-03 20:30:00,66.1,58.0,30.24,East,85,2.0,4.0,75,0.00,,---,0.00,0.00,VWS V14.01,2012-12-04 01:30:00,
2012-12-03 20:31:00,66.1,58.0,30.24,East,100,1.0,4.0,75,0.00,,---,0.00,0.00,VWS V14.01,2012-12-04 01:31:00,
2012-12-03 20:32:00,66.2,58.0,30.24,SE,126,4.0,4.0,75,0.00,,---,0.00,0.00,VWS V14.01,2012-12-04 01:32:00,
2012-12-03 20:33:00,66.2,58.0,30.24,ESE,109,1.0,4.0,75,0.00,,---,0.00,0.00,VWS V14.01,2012-12-04 01:33:00,
2012-12-03 20:34:00,66.2,58.0,30.24,SE,129,1.0,4.0,75,0.00,,---,0.00,0.00,VWS V14.01,2012-12-04 01:34:00,
2012-12-03 20:35:00,66.3,58.2,30.24,ESE,123,2.0,4.0,75,0.00,,---,0.00,0.00,VWS V14.01,2012-12-04 01:35:00,
2012-12-03 20:36:00,66.3,58.2,30.24,SE,125,0.0,4.0,75,0.00,,---,0.00,0.00,VWS V14.01,2012-12-04 01:36:00,
2012-12-03 20:37:00,66.3,58.2,30.24,NE,50,1.0,4.0,75,0.00,,---,0.00,0.00,VWS V14.01,2012-12-04 01:37:00,
2012-12-03 20:38:00,66.3,58.2,30.24,NE,50,0.0,4.0,75,0.00,,---,0.00,0.00,VWS V14.01,2012-12-04 01:38:00,
2012-12-03 20:39:00,66.3,58.2,30.24,NE,51,0.0,4.0,75,0.00,,---,0.00,0.00,VWS V14.01,2012-12-04 01:39:00,
2012-12-03 20:40:00,66.3,58.2,30.24,SE,137,1.0,4.0,75,0.00,,---,0.00,0.00,VWS V14.01,2012-12-04 01:40:00,
2012-12-03 20:41:00,66.3,58.2,30.24,SE,137,0.0,4.0,75,0.00,,---,0.00,0.00,VWS V14.01,2012-12-04 01:41:00,
2012-12-03 20:42:00,66.3,58.2,30.24,SSE,155,1.0,4.0,75,0.00,,---,0.00,0.00,VWS V14.01,2012-12-04 01:42:00,
2012-12-03 20:43:00,66.3,58.2,30.24,SSE,147,3.0,4.0,75,0.00,,---,0.00,0.00,VWS V14.01,2012-12-04 01:43:00,
2012-12-03 20:44:00,66.2,58.0,30.24,SE,128,1.0,4.0,75,0.00,,---,0.00,0.00,VWS V14.01,2012-12-04 01:44:00,
2012-12-03 20:45:00,66.2,58.0,30.24,SE,128,0.0,4.0,75,0.00,,---,0.00,0.00,VWS V14.01,2012-12-04 01:45:00,
2012-12-03 20:46:00,66.2,58.0,30.24,SE,142,0.0,4.0,75,0.00,,---,0.00,0.00,VWS V14.01,2012-12-04 01:46:00,
2012-12-03 20:47:00,66.2,58.0,30.24,ESE,116,2.0,4.0,75,0.00,,---,0.00,0.00,VWS V14.01,2012-12-04 01:47:00,
2012-12-03 20:48:00,66.2,58.0,30.24,ESE,106,1.0,4.0,75,0.00,,---,0.00,0.00,VWS V14.01,2012-12-04 01:48:00,
2012-12-03 20:49:00,66.2,58.0,30.24,SSE,163,2.0,4.0,75,0.00,,---,0.00,0.00,VWS V14.01,2012-12-04 01:49:00,
2012-12-03 20:50:00,66.2,58.0,30.24,SE,129,1.0,4.0,75,0.00,,---,0.00,0.00,VWS V14.01,2012-12-04 01:50:00,
2012-12-03 20:51:00,66.2,58.0,30.24,East,87,3.0,4.0,75,0.00,,---,0.00,0.00,VWS V14.01,2012-12-04 01:51:00,
2012-12-03 20:52:00,66.2,58.0,30.24,ESE,106,1.0,4.0,75,0.00,,---,0.00,0.00,VWS V14.01,2012-12-04 01:52:00,
2012-12-03 20:53:00,66.2,58.0,30.24,SE,130,3.0,4.0,75,0.00,,---,0.00,0.00,VWS V14.01,2012-12-04 01:53:00,
2012-12-03 20:54:00,66.1,58.0,30.24,East,91,1.0,4.0,75,0.00,,---,0.00,0.00,VWS V14.01,2012-12-04 01:54:00,
2012-12-03 20:55:00,66.1,58.0,30.24,ESE,115,2.0,4.0,75,0.00,,---,0.00,0.00,VWS V14.01,2012-12-04 01:55:00,
2012-12-03 20:56:00,66.1,58.0,30.24,East,91,3.0,5.0,75,0.00,,---,0.00,0.00,VWS V14.01,2012-12-04 01:56:00,
2012-12-03 20:57:00,66.1,58.0,30.24,SE,129,0.0,5.0,75,0.00,,---,0.00,0.00,VWS V14.01,2012-12-04 01:57:00,
2012-12-03 20:58:00,66.1,58.0,30.24,ESE,114,0.0,5.0,75,0.00,,---,0.00,0.00,VWS V14.01,2012-12-04 01:58:00,
2012-12-03 20:59:00,66.1,58.3,30.24,ESE,102,2.0,5.0,76,0.00,,---,0.00,0.00,VWS V14.01,2012-12-04 01:59:00,
2012-12-03 21:00:00,66.1,58.3,30.24,ESE,120,0.0,5.0,76,0.00,,---,0.00,0.00,VWS V14.01,2012-12-04 02:00:00,
2012-12-03 21:01:00,66.0,58.2,30.24,ESE,102,2.0,2.0,76,0.00,,---,0.00,0.00,VWS V14.01,2012-12-04 02:01:00,
2012-12-03 21:02:00,66.0,58.2,30.24,SE,135,1.0,3.0,76,0.00,,---,0.00,0.00,VWS V14.01,2012-12-04 02:02:00,
2012-12-03 21:03:00,66.0,58.2,30.24,SE,143,1.0,3.0,76,0.00,,---,0.00,0.00,VWS V14.01,2012-12-04 02:03:00,
2012-12-03 21:04:00,66.0,58.2,30.24,SE,138,3.0,5.0,76,0.00,,---,0.00,0.00,VWS V14.01,2012-12-04 02:04:00,
2012-12-03 21:05:00,66.0,58.2,30.24,ESE,122,1.0,5.0,76,0.00,,---,0.00,0.00,VWS V14.01,2012-12-04 02:05:00,
2012-12-03 21:06:00,66.0,58.2,30.24,ESE,120,0.0,5.0,76,0.00,,---,0.00,0.00,VWS V14.01,2012-12-04 02:06:00,
2012-12-03 21:07:00,66.0,58.2,30.24,SE,127,0.0,5.0,76,0.00,,---,0.00,0.00,VWS V14.01,2012-12-04 02:07:00,
2012-12-03 21:08:00,65.9,58.1,30.24,SE,128,0.0,5.0,76,0.00,,---,0.00,0.00,VWS V14.01,2012-12-04 02:08:00,
2012-12-03 21:09:00,65.9,58.1,30.24,ESE,105,2.0,5.0,76,0.00,,---,0.00,0.00,VWS V14.01,2012-12-04 02:09:00,
2012-12-03 21:10:00,65.9,58.1,30.24,ESE,111,1.0,5.0,76,0.00,,---,0.00,0.00,VWS V14.01,2012-12-04 02:10:00,
2012-12-03 21:11:00,65.9,58.1,30.24,ESE,106,2.0,5.0,76,0.00,,---,0.00,0.00,VWS V14.01,2012-12-04 02:11:00,
2012-12-03 21:12:00,65.9,58.1,30.24,South,187,0.0,5.0,76,0.00,,---,0.00,0.00,VWS V14.01,2012-12-04 02:12:00,
2012-12-03 21:13:00,65.8,58.4,30.24,SSE,152,2.0,5.0,77,0.00,,---,0.00,0.00,VWS V14.01,2012-12-04 02:13:00,
2012-12-03 21:14:00,65.9,58.5,30.24,SE,143,0.0,5.0,77,0.00,,---,0.00,0.00,VWS V14.01,2012-12-04 02:14:00,
2012-12-03 21:15:00,65.9,58.5,30.24,SE,143,1.0,5.0,77,0.00,,---,0.00,0.00,VWS V14.01,2012-12-04 02:15:00,
2012-12-03 21:16:00,65.9,58.5,30.24,SE,140,3.0,5.0,77,0.00,,---,0.00,0.00,VWS V14.01,2012-12-04 02:16:00,
2012-12-03 21:17:00,65.9,58.5,30.24,SE,141,0.0,5.0,77,0.00,,---,0.00,0.00,VWS V14.01,2012-12-04 02:17:00,
2012-12-03 21:18:00,65.9,58.5,30.24,ESE,120,0.0,5.0,77,0.00,,---,0.00,0.00,VWS V14.01,2012-12-04 02:18:00,
2012-12-03 21:19:00,65.8,58.4,30.24,SE,125,0.0,5.0,77,0.00,,---,0.00,0.00,VWS V14.01,2012-12-04 02:19:00,
2012-12-03 21:20:00,65.8,58.4,30.24,SSE,156,3.0,5.0,77,0.00,,---,0.00,0.00,VWS V14.01,2012-12-04 02:20:00,
2012-12-03 21:21:00,65.8,58.4,30.24,SSE,150,0.0,5.0,77,0.00,,---,0.00,0.00,VWS V14.01,2012-12-04 02:21:00,
2012-12-03 21:22:00,65.8,58.4,30.24,ESE,112,1.0,5.0,77,0.00,,---,0.00,0.00,VWS V14.01,2012-12-04 02:22:00,
2012-12-03 21:23:00,65.8,58.4,30.24,SE,141,0.0,5.0,77,0.00,,---,0.00,0.00,VWS V14.01,2012-12-04 02:23:00,
2012-12-03 21:24:00,65.8,58.4,30.24,SE,127,2.0,5.0,77,0.00,,---,0.00,0.00,VWS V14.01,2012-12-04 02:24:00,
2012-12-03 21:25:00,65.8,58.4,30.24,ESE,118,2.0,5.0,77,0.00,,---,0.00,0.00,VWS V14.01,2012-12-04 02:25:00,
2012-12-03 21:26:00,65.8,58.4,30.24,NNE,19,1.0,5.0,77,0.00,,---,0.00,0.00,VWS V14.01,2012-12-04 02:26:00,
2012-12-03 21:27:00,65.7,58.3,30.24,South,179,1.0,5.0,77,0.00,,---,0.00,0.00,VWS V14.01,2012-12-04 02:27:00,
2012-12-03 21:28:00,65.6,58.2,30.24,South,175,0.0,5.0,77,0.00,,---,0.00,0.00,VWS V14.01,2012-12-04 02:28:00,
2012-12-03 21:29:00,65.6,58.2,30.24,East,101,4.0,5.0,77,0.00,,---,0.00,0.00,VWS V14.01,2012-12-04 02:29:00,
2012-12-03 21:30:00,65.6,58.2,30.25,East,97,0.0,5.0,77,0.00,,---,0.00,0.00,VWS V14.01,2012-12-04 02:30:00,
2012-12-03 21:31:00,65.6,58.6,30.25,ESE,122,2.0,5.0,78,0.00,,---,0.00,0.00,VWS V14.01,2012-12-04 02:31:00,
2012-12-03 21:32:00,65.5,58.5,30.25,East,97,1.0,5.0,78,0.00,,---,0.00,0.00,VWS V14.01,2012-12-04 02:32:00,
2012-12-03 21:33:00,65.6,58.6,30.25,SE,129,2.0,5.0,78,0.00,,---,0.00,0.00,VWS V14.01,2012-12-04 02:33:00,
2012-12-03 21:34:00,65.5,58.5,30.24,SSE,147,1.0,5.0,78,0.00,,---,0.00,0.00,VWS V14.01,2012-12-04 02:34:00,
2012-12-03 21:35:00,65.5,58.5,30.25,SSW,198,0.0,5.0,78,0.00,,---,0.00,0.00,VWS V14.01,2012-12-04 02:35:00,
2012-12-03 21:36:00,65.4,58.4,30.24,SE,141,2.0,5.0,78,0.00,,---,0.00,0.00,VWS V14.01,2012-12-04 02:36:00,
2012-12-03 21:37:00,65.4,58.4,30.24,SE,140,1.0,5.0,78,0.00,,---,0.00,0.00,VWS V14.01,2012-12-04 02:37:00,
2012-12-03 21:38:00,65.4,58.4,30.24,East,85,0.0,5.0,78,0.00,,---,0.00,0.00,VWS V14.01,2012-12-04 02:38:00,
2012-12-03 21:39:00,65.3,58.3,30.24,East,85,0.0,5.0,78,0.00,,---,0.00,0.00,VWS V14.01,2012-12-04 02:39:00,
2012-12-03 21:40:00,65.3,58.3,30.24,East,91,0.0,5.0,78,0.00,,---,0.00,0.00,VWS V14.01,2012-12-04 02:40:00,
2012-12-03 21:41:00,65.3,58.3,30.24,ESE,112,0.0,5.0,78,0.00,,---,0.00,0.00,VWS V14.01,2012-12-04 02:41:00,
2012-12-03 21:42:00,65.2,58.5,30.25,ESE,102,2.0,5.0,79,0.00,,---,0.00,0.00,VWS V14.01,2012-12-04 02:42:00,
2012-12-03 21:43:00,65.2,58.5,30.24,ESE,102,0.0,5.0,79,0.00,,---,0.00,0.00,VWS V14.01,2012-12-04 02:43:00,
2012-12-03 21:44:00,65.1,58.4,30.25,ESE,102,0.0,5.0,79,0.00,,---,0.00,0.00,VWS V14.01,2012-12-04 02:44:00,
2012-12-03 21:45:00,65.1,58.4,30.24,ESE,102,0.0,5.0,79,0.00,,---,0.00,0.00,VWS V14.01,2012-12-04 02:45:00,
2012-12-03 21:46:00,65.0,58.3,30.25,ENE,67,0.0,5.0,79,0.00,,---,0.00,0.00,VWS V14.01,2012-12-04 02:46:00,
2012-12-03 21:47:00,65.0,58.3,30.25,ESE,112,0.0,5.0,79,0.00,,---,0.00,0.00,VWS V14.01,2012-12-04 02:47:00,
2012-12-03 21:48:00,65.0,58.3,30.25,ESE,112,0.0,5.0,79,0.00,,---,0.00,0.00,VWS V14.01,2012-12-04 02:48:00,
2012-12-03 21:49:00,65.0,58.3,30.25,ESE,112,0.0,5.0,79,0.00,,---,0.00,0.00,VWS V14.01,2012-12-04 02:49:00,
2012-12-03 21:50:00,64.9,58.2,30.25,ESE,122,0.0,5.0,79,0.00,,---,0.00,0.00,VWS V14.01,2012-12-04 02:50:00,
2012-12-03 21:51:00,64.9,58.6,30.25,ESE,122,0.0,5.0,80,0.00,,---,0.00,0.00,VWS V14.01,2012-12-04 02:51:00,
2012-12-03 21:52:00,64.9,58.6,30.25,ESE,122,0.0,5.0,80,0.00,,---,0.00,0.00,VWS V14.01,2012-12-04 02:52:00,
2012-12-03 21:53:00,64.9,58.6,30.25,SE,129,0.0,5.0,80,0.00,,---,0.00,0.00,VWS V14.01,2012-12-04 02:53:00,
2012-12-03 21:54:00,64.9,58.6,30.25,SE,129,0.0,5.0,80,0.00,,---,0.00,0.00,VWS V14.01,2012-12-04 02:54:00,
2012-12-03 21:55:00,64.9,58.6,30.25,East,80,0.0,5.0,80,0.00,,---,0.00,0.00,VWS V14.01,2012-12-04 02:55:00,
2012-12-03 21:56:00,64.8,58.5,30.25,East,81,1.0,5.0,80,0.00,,---,0.00,0.00,VWS V14.01,2012-12-04 02:56:00,
2012-12-03 21:57:00,64.8,58.5,30.25,East,81,1.0,5.0,80,0.00,,---,0.00,0.00,VWS V14.01,2012-12-04 02:57:00,
2012-12-03 21:58:00,64.7,58.4,30.25,East,81,0.0,5.0,80,0.00,,---,0.00,0.00,VWS V14.01,2012-12-04 02:58:00,
2012-12-03 21:59:00,64.6,58.3,30.25,ENE,76,2.0,5.0,80,0.00,,---,0.00,0.00,VWS V14.01,2012-12-04 02:59:00,
2012-12-03 22:00:00,64.5,58.5,30.25,ENE,76,0.0,5.0,81,0.00,,---,0.00,0.00,VWS V14.01,2012-12-04 03:00:00,
2012-12-03 22:01:00,64.4,58.5,30.25,ENE,76,2.0,2.0,81,0.00,,---,0.00,0.00,VWS V14.01,2012-12-04 03:01:00,
2012-12-03 22:02:00,64.4,58.5,30.25,ENE,76,0.0,2.0,81,0.00,,---,0.00,0.00,VWS V14.01,2012-12-04 03:02:00,
2012-12-03 22:03:00,64.3,58.3,30.25,ESE,108,0.0,2.0,81,0.00,,---,0.00,0.00,VWS V14.01,2012-12-04 03:03:00,
2012-12-03 22:04:00,64.3,58.3,30.25,ESE,108,0.0,2.0,81,0.00,,---,0.00,0.00,VWS V14.01,2012-12-04 03:04:00,
2012-12-03 22:05:00,64.3,58.3,30.25,ESE,108,0.0,2.0,81,0.00,,---,0.00,0.00,VWS V14.01,2012-12-04 03:05:00,
2012-12-03 22:06:00,64.2,58.3,30.25,ESE,108,0.0,2.0,81,0.00,,---,0.00,0.00,VWS V14.01,2012-12-04 03:06:00,
2012-12-03 22:07:00,64.1,58.2,30.25,ESE,108,0.0,2.0,81,0.00,,---,0.00,0.00,VWS V14.01,2012-12-04 03:07:00,
2012-12-03 22:08:00,64.1,58.5,30.25,East,98,0.0,2.0,82,0.00,,---,0.00,0.00,VWS V14.01,2012-12-04 03:08:00,
2012-12-03 22:09:00,64.1,58.5,30.25,East,98,0.0,2.0,82,0.00,,---,0.00,0.00,VWS V14.01,2012-12-04 03:09:00,
2012-12-03 22:10:00,64.0,58.4,30.25,East,98,0.0,2.0,82,0.00,,---,0.00,0.00,VWS V14.01,2012-12-04 03:10:00,
2012-12-03 22:11:00,63.9,58.3,30.25,East,98,0.0,2.0,82,0.00,,---,0.00,0.00,VWS V14.01,2012-12-04 03:11:00,
2012-12-03 22:12:00,63.8,58.2,30.25,East,99,1.0,2.0,82,0.00,,---,0.00,0.00,VWS V14.01,2012-12-04 03:12:00,
2012-12-03 22:13:00,63.8,58.5,30.25,East,98,1.0,2.0,83,0.00,,---,0.00,0.00,VWS V14.01,2012-12-04 03:13:00,
2012-12-03 22:14:00,63.7,58.5,30.25,East,99,0.0,2.0,83,0.00,,---,0.00,0.00,VWS V14.01,2012-12-04 03:14:00,
2012-12-03 22:15:00,63.6,58.3,30.25,East,98,0.0,2.0,83,0.00,,---,0.00,0.00,VWS V14.01,2012-12-04 03:15:00,
2012-12-03 22:16:00,63.6,58.3,30.25,East,98,0.0,2.0,83,0.00,,---,0.00,0.00,VWS V14.01,2012-12-04 03:16:00,
2012-12-03 22:17:00,63.6,58.3,30.25,East,99,0.0,2.0,83,0.00,,---,0.00,0.00,VWS V14.01,2012-12-04 03:17:00,
2012-12-03 22:18:00,63.6,58.3,30.25,East,98,0.0,2.0,83,0.00,,---,0.00,0.00,VWS V14.01,2012-12-04 03:18:00,
2012-12-03 22:19:00,63.5,58.2,30.25,East,98,0.0,2.0,83,0.00,,---,0.00,0.00,VWS V14.01,2012-12-04 03:19:00,
2012-12-03 22:20:00,63.4,58.2,30.25,East,98,0.0,2.0,83,0.00,,---,0.00,0.00,VWS V14.01,2012-12-04 03:20:00,
2012-12-03 22:21:00,63.3,58.1,30.25,ENE,75,0.0,2.0,83,0.00,,---,0.00,0.00,VWS V14.01,2012-12-04 03:21:00,
2012-12-03 22:22:00,63.2,58.0,30.25,ENE,75,0.0,2.0,83,0.00,,---,0.00,0.00,VWS V14.01,2012-12-04 03:22:00,
2012-12-03 22:23:00,63.1,58.2,30.25,ENE,75,0.0,2.0,84,0.00,,---,0.00,0.00,VWS V14.01,2012-12-04 03:23:00,
2012-12-03 22:24:00,63.0,58.1,30.25,ENE,75,0.0,2.0,84,0.00,,---,0.00,0.00,VWS V14.01,2012-12-04 03:24:00,
2012-12-03 22:25:00,62.9,58.0,30.25,ENE,75,0.0,2.0,84,0.00,,---,0.00,0.00,VWS V14.01,2012-12-04 03:25:00,
2012-12-03 22:26:00,62.9,58.0,30.25,ENE,75,0.0,2.0,84,0.00,,---,0.00,0.00,VWS V14.01,2012-12-04 03:26:00,
2012-12-03 22:27:00,62.7,58.1,30.25,ENE,75,0.0,2.0,85,0.00,,---,0.00,0.00,VWS V14.01,2012-12-04 03:27:00,
2012-12-03 22:28:00,62.7,58.1,30.25,ENE,75,0.0,2.0,85,0.00,,---,0.00,0.00,VWS V14.01,2012-12-04 03:28:00,
2012-12-03 22:29:00,62.6,58.0,30.25,ENE,75,1.0,2.0,85,0.00,,---,0.00,0.00,VWS V14.01,2012-12-04 03:29:00,
2012-12-03 22:30:00,62.5,57.9,30.25,ENE,75,0.0,2.0,85,0.00,,---,0.00,0.00,VWS V14.01,2012-12-04 03:30:00,
2012-12-03 22:31:00,62.5,57.9,30.25,ENE,75,0.0,2.0,85,0.00,,---,0.00,0.00,VWS V14.01,2012-12-04 03:31:00,
2012-12-03 22:32:00,62.4,57.8,30.25,ENE,75,0.0,2.0,85,0.00,,---,0.00,0.00,VWS V14.01,2012-12-04 03:32:00,
2012-12-03 22:33:00,62.3,58.1,30.25,ENE,75,0.0,2.0,86,0.00,,---,0.00,0.00,VWS V14.01,2012-12-04 03:33:00,
2012-12-03 22:34:00,62.3,57.7,30.25,ENE,75,0.0,2.0,85,0.00,,---,0.00,0.00,VWS V14.01,2012-12-04 03:34:00,
2012-12-03 22:35:00,62.2,58.0,30.25,ENE,75,0.0,2.0,86,0.00,,---,0.00,0.00,VWS V14.01,2012-12-04 03:35:00,
2012-12-03 22:36:00,62.2,58.0,30.25,ENE,75,0.0,2.0,86,0.00,,---,0.00,0.00,VWS V14.01,2012-12-04 03:36:00,
2012-12-03 22:37:00,62.1,57.9,30.25,ENE,75,0.0,2.0,86,0.00,,---,0.00,0.00,VWS V14.01,2012-12-04 03:37:00,
2012-12-03 22:38:00,62.1,57.9,30.25,ENE,75,1.0,2.0,86,0.00,,---,0.00,0.00,VWS V14.01,2012-12-04 03:38:00,
2012-12-03 22:39:00,62.1,57.9,30.25,ENE,75,0.0,2.0,86,0.00,,---,0.00,0.00,VWS V14.01,2012-12-04 03:39:00,
2012-12-03 22:40:00,62.0,57.8,30.25,ENE,75,1.0,2.0,86,0.00,,---,0.00,0.00,VWS V14.01,2012-12-04 03:40:00,
2012-12-03 22:41:00,62.0,58.1,30.25,ENE,75,0.0,2.0,87,0.00,,---,0.00,0.00,VWS V14.01,2012-12-04 03:41:00,
2012-12-03 22:42:00,62.0,58.1,30.25,ENE,75,0.0,2.0,87,0.00,,---,0.00,0.00,VWS V14.01,2012-12-04 03:42:00,
2012-12-03 22:43:00,62.0,58.1,30.25,ENE,75,0.0,2.0,87,0.00,,---,0.00,0.00,VWS V14.01,2012-12-04 03:43:00,
2012-12-03 22:44:00,61.9,58.0,30.25,ENE,75,1.0,2.0,87,0.00,,---,0.00,0.00,VWS V14.01,2012-12-04 03:44:00,
2012-12-03 22:45:00,61.9,58.0,30.25,ENE,75,0.0,2.0,87,0.00,,---,0.00,0.00,VWS V14.01,2012-12-04 03:45:00,
2012-12-03 22:46:00,61.9,58.0,30.25,ENE,75,0.0,2.0,87,0.00,,---,0.00,0.00,VWS V14.01,2012-12-04 03:46:00,
2012-12-03 22:47:00,61.9,58.0,30.25,ENE,75,1.0,2.0,87,0.00,,---,0.00,0.00,VWS V14.01,2012-12-04 03:47:00,
2012-12-03 22:48:00,61.9,58.0,30.25,ENE,75,0.0,2.0,87,0.00,,---,0.00,0.00,VWS V14.01,2012-12-04 03:48:00,
2012-12-03 22:49:00,61.9,58.0,30.25,ENE,75,0.0,2.0,87,0.00,,---,0.00,0.00,VWS V14.01,2012-12-04 03:49:00,
2012-12-03 22:50:00,61.8,57.9,30.25,ENE,75,0.0,2.0,87,0.00,,---,0.00,0.00,VWS V14.01,2012-12-04 03:50:00,
2012-12-03 22:51:00,61.8,57.9,30.25,ENE,75,0.0,2.0,87,0.00,,---,0.00,0.00,VWS V14.01,2012-12-04 03:51:00,
2012-12-03 22:52:00,61.8,57.9,30.25,ENE,75,1.0,2.0,87,0.00,,---,0.00,0.00,VWS V14.01,2012-12-04 03:52:00,
2012-12-03 22:53:00,61.8,57.9,30.25,ENE,75,2.0,2.0,87,0.00,,---,0.00,0.00,VWS V14.01,2012-12-04 03:53:00,
2012-12-03 22:54:00,61.8,57.9,30.25,ENE,75,1.0,2.0,87,0.00,,---,0.00,0.00,VWS V14.01,2012-12-04 03:54:00,
2012-12-03 22:55:00,61.8,58.2,30.25,ENE,75,0.0,2.0,88,0.00,,---,0.00,0.00,VWS V14.01,2012-12-04 03:55:00,
2012-12-03 22:56:00,61.8,58.2,30.25,ENE,75,0.0,2.0,88,0.00,,---,0.00,0.00,VWS V14.01,2012-12-04 03:56:00,
2012-12-03 22:57:00,61.8,58.2,30.25,ENE,75,0.0,2.0,88,0.00,,---,0.00,0.00,VWS V14.01,2012-12-04 03:57:00,
2012-12-03 22:58:00,61.8,58.2,30.25,NNE,31,0.0,3.0,88,0.00,,---,0.00,0.00,VWS V14.01,2012-12-04 03:58:00,
2012-12-03 22:59:00,61.8,58.2,30.25,NE,37,1.0,3.0,88,0.00,,---,0.00,0.00,VWS V14.01,2012-12-04 03:59:00,
2012-12-03 23:00:00,61.8,58.2,30.25,NNE,22,0.0,3.0,88,0.00,,---,0.00,0.00,VWS V14.01,2012-12-04 04:00:00,
2012-12-03 23:01:00,61.8,58.2,30.25,NNE,22,0.0,0.0,88,0.00,,---,0.00,0.00,VWS V14.01,2012-12-04 04:01:00,
2012-12-03 23:02:00,61.8,58.2,30.25,NE,54,0.0,2.0,88,0.00,,---,0.00,0.00,VWS V14.01,2012-12-04 04:02:00,
2012-12-03 23:03:00,61.8,58.2,30.25,NE,38,0.0,2.0,88,0.00,,---,0.00,0.00,VWS V14.01,2012-12-04 04:03:00,
2012-12-03 23:04:00,61.9,58.3,30.25,NE,38,0.0,2.0,88,0.00,,---,0.00,0.00,VWS V14.01,2012-12-04 04:04:00,
2012-12-03 23:05:00,61.9,58.3,30.25,ENE,62,1.0,2.0,88,0.00,,---,0.00,0.00,VWS V14.01,2012-12-04 04:05:00,
2012-12-03 23:06:00,61.9,58.3,30.25,ENE,62,1.0,2.0,88,0.00,,---,0.00,0.00,VWS V14.01,2012-12-04 04:06:00,
2012-12-03 23:07:00,61.9,58.3,30.25,ENE,62,0.0,2.0,88,0.00,,---,0.00,0.00,VWS V14.01,2012-12-04 04:07:00,
2012-12-03 23:08:00,61.9,58.3,30.25,ENE,62,0.0,2.0,88,0.00,,---,0.00,0.00,VWS V14.01,2012-12-04 04:08:00,
2012-12-03 23:09:00,61.9,58.3,30.25,ENE,62,0.0,2.0,88,0.00,,---,0.00,0.00,VWS V14.01,2012-12-04 04:09:00,
2012-12-03 23:10:00,62.0,58.4,30.25,ENE,62,0.0,2.0,88,0.00,,---,0.00,0.00,VWS V14.01,2012-12-04 04:10:00,
2012-12-03 23:11:00,62.0,58.4,30.25,ENE,62,0.0,2.0,88,0.00,,---,0.00,0.00,VWS V14.01,2012-12-04 04:11:00,
2012-12-03 23:12:00,62.0,58.4,30.25,ENE,62,1.0,2.0,88,0.00,,---,0.00,0.00,VWS V14.01,2012-12-04 04:12:00,
2012-12-03 23:13:00,62.0,58.4,30.25,ENE,62,2.0,2.0,88,0.00,,---,0.00,0.00,VWS V14.01,2012-12-04 04:13:00,
2012-12-03 23:14:00,62.0,58.4,30.25,NNE,18,1.0,2.0,88,0.00,,---,0.00,0.00,VWS V14.01,2012-12-04 04:14:00,
2012-12-03 23:15:00,62.0,58.4,30.25,NNE,21,0.0,2.0,88,0.00,,---,0.00,0.00,VWS V14.01,2012-12-04 04:15:00,
2012-12-03 23:16:00,62.0,58.4,30.25,NNE,21,0.0,2.0,88,0.00,,---,0.00,0.00,VWS V14.01,2012-12-04 04:16:00,
2012-12-03 23:17:00,62.1,58.5,30.25,NNE,21,0.0,2.0,88,0.00,,---,0.00,0.00,VWS V14.01,2012-12-04 04:17:00,
2012-12-03 23:18:00,62.1,58.5,30.25,NNE,21,0.0,2.0,88,0.00,,---,0.00,0.00,VWS V14.01,2012-12-04 04:18:00,
2012-12-03 23:19:00,62.1,58.5,30.25,NNE,25,0.0,2.0,88,0.00,,---,0.00,0.00,VWS V14.01,2012-12-04 04:19:00,
2012-12-03 23:20:00,62.1,58.8,30.25,NE,37,2.0,2.0,89,0.00,,---,0.00,0.00,VWS V14.01,2012-12-04 04:20:00,
2012-12-03 23:21:00,62.1,58.8,30.25,ENE,77,2.0,2.0,89,0.00,,---,0.00,0.00,VWS V14.01,2012-12-04 04:21:00,
2012-12-03 23:22:00,62.1,58.8,30.25,ENE,77,0.0,2.0,89,0.00,,---,0.00,0.00,VWS V14.01,2012-12-04 04:22:00,
2012-12-03 23:23:00,62.1,58.8,30.25,ENE,74,1.0,2.0,89,0.00,,---,0.00,0.00,VWS V14.01,2012-12-04 04:23:00,
2012-12-03 23:24:00,62.1,58.5,30.25,ENE,74,0.0,2.0,88,0.00,,---,0.00,0.00,VWS V14.01,2012-12-04 04:24:00,
2012-12-03 23:25:00,62.1,58.5,30.25,NE,44,0.0,3.0,88,0.00,,---,0.00,0.00,VWS V14.01,2012-12-04 04:25:00,
2012-12-03 23:26:00,62.1,58.5,30.25,ENE,78,1.0,3.0,88,0.00,,---,0.00,0.00,VWS V14.01,2012-12-04 04:26:00,
2012-12-03 23:27:00,62.1,58.5,30.25,NE,55,3.0,3.0,88,0.00,,---,0.00,0.00,VWS V14.01,2012-12-04 04:27:00,
2012-12-03 23:28:00,62.1,58.5,30.25,ENE,77,0.0,3.0,88,0.00,,---,0.00,0.00,VWS V14.01,2012-12-04 04:28:00,
2012-12-03 23:29:00,62.1,58.5,30.25,NNE,31,2.0,3.0,88,0.00,,---,0.00,0.00,VWS V14.01,2012-12-04 04:29:00,
2012-12-03 23:30:00,62.1,58.5,30.25,NNE,31,0.0,3.0,88,0.00,,---,0.00,0.00,VWS V14.01,2012-12-04 04:30:00,
2012-12-03 23:31:00,62.0,58.4,30.25,NE,39,1.0,3.0,88,0.00,,---,0.00,0.00,VWS V14.01,2012-12-04 04:31:00,
2012-12-03 23:32:00,62.0,58.4,30.25,NE,39,0.0,3.0,88,0.00,,---,0.00,0.00,VWS V14.01,2012-12-04 04:32:00,
2012-12-03 23:33:00,62.0,58.7,30.25,NE,39,1.0,3.0,89,0.00,,---,0.00,0.00,VWS V14.01,2012-12-04 04:33:00,
2012-12-03 23:34:00,62.0,58.7,30.25,NE,41,1.0,3.0,89,0.00,,---,0.00,0.00,VWS V14.01,2012-12-04 04:34:00,
2012-12-03 23:35:00,62.0,58.7,30.25,East,79,0.0,3.0,89,0.00,,---,0.00,0.00,VWS V14.01,2012-12-04 04:35:00,
2012-12-03 23:36:00,62.1,58.8,30.25,NE,54,0.0,3.0,89,0.00,,---,0.00,0.00,VWS V14.01,2012-12-04 04:36:00,
2012-12-03 23:37:00,62.1,58.8,30.25,NE,56,2.0,3.0,89,0.00,,---,0.00,0.00,VWS V14.01,2012-12-04 04:37:00,
2012-12-03 23:38:00,62.1,58.8,30.25,NE,56,0.0,3.0,89,0.00,,---,0.00,0.00,VWS V14.01,2012-12-04 04:38:00,
2012-12-03 23:39:00,62.1,58.8,30.25,East,83,1.0,3.0,89,0.00,,---,0.00,0.00,VWS V14.01,2012-12-04 04:39:00,
2012-12-03 23:40:00,62.0,58.7,30.24,East,83,0.0,3.0,89,0.00,,---,0.00,0.00,VWS V14.01,2012-12-04 04:40:00,
2012-12-03 23:41:00,62.0,58.7,30.24,East,83,0.0,3.0,89,0.00,,---,0.00,0.00,VWS V14.01,2012-12-04 04:41:00,
2012-12-03 23:42:00,62.0,58.7,30.25,NE,41,1.0,3.0,89,0.00,,---,0.00,0.00,VWS V14.01,2012-12-04 04:42:00,
2012-12-03 23:43:00,62.0,58.7,30.25,NE,41,1.0,3.0,89,0.00,,---,0.00,0.00,VWS V14.01,2012-12-04 04:43:00,
2012-12-03 23:44:00,62.0,58.7,30.25,NE,44,0.0,3.0,89,0.00,,---,0.00,0.00,VWS V14.01,2012-12-04 04:44:00,
2012-12-03 23:45:00,61.9,58.6,30.25,NE,47,1.0,3.0,89,0.00,,---,0.00,0.00,VWS V14.01,2012-12-04 04:45:00,
2012-12-03 23:46:00,61.9,58.6,30.25,NE,47,0.0,3.0,89,0.00,,---,0.00,0.00,VWS V14.01,2012-12-04 04:46:00,
2012-12-03 23:47:00,61.9,58.6,30.25,NE,48,1.0,3.0,89,0.00,,---,0.00,0.00,VWS V14.01,2012-12-04 04:47:00,
2012-12-03 23:48:00,61.9,58.6,30.25,NE,48,0.0,3.0,89,0.00,,---,0.00,0.00,VWS V14.01,2012-12-04 04:48:00,
2012-12-03 23:49:00,61.9,58.6,30.25,NE,48,0.0,3.0,89,0.00,,---,0.00,0.00,VWS V14.01,2012-12-04 04:49:00,
2012-12-03 23:50:00,61.9,58.6,30.24,NE,48,1.0,3.0,89,0.00,,---,0.00,0.00,VWS V14.01,2012-12-04 04:50:00,
2012-12-03 23:51:00,61.8,58.5,30.25,NE,48,0.0,3.0,89,0.00,,---,0.00,0.00,VWS V14.01,2012-12-04 04:51:00,
2012-12-03 23:52:00,61.8,58.5,30.24,ENE,66,2.0,3.0,89,0.00,,---,0.00,0.00,VWS V14.01,2012-12-04 04:52:00,
2012-12-03 23:53:00,61.8,58.5,30.24,ENE,66,1.0,3.0,89,0.00,,---,0.00,0.00,VWS V14.01,2012-12-04 04:53:00,
2012-12-03 23:54:00,61.8,58.5,30.24,ENE,66,0.0,3.0,89,0.00,,---,0.00,0.00,VWS V14.01,2012-12-04 04:54:00,
2012-12-03 23:55:00,61.7,58.4,30.24,ENE,66,0.0,3.0,89,0.00,,---,0.00,0.00,VWS V14.01,2012-12-04 04:55:00,
2012-12-03 23:56:00,61.7,58.4,30.24,ENE,66,0.0,3.0,89,0.00,,---,0.00,0.00,VWS V14.01,2012-12-04 04:56:00,
2012-12-03 23:57:00,61.7,58.4,30.24,ENE,66,0.0,3.0,89,0.00,,---,0.00,0.00,VWS V14.01,2012-12-04 04:57:00,
2012-12-03 23:58:00,61.6,58.3,30.24,ENE,66,0.0,3.0,89,0.00,,---,0.00,0.00,VWS V14.01,2012-12-04 04:58:00,
2012-12-03 23:59:00,61.5,58.2,30.24,ENE,66,0.0,3.0,89,0.00,,---,0.00,0.00,VWS V14.01,2012-12-04 04:59:00,